[[{"header":{"parameterUnit":"m.s-1","parameterCategory":1,"la1":30.6,"la2":28.766,"lo1":-90.7593,"lo2":-88.6598,"dy":0.0162,"dx":0.0183,"nx":116,"ny":114,"refTime":"2023-07-17T12:00:00:Z","depth":0,"parameterNumber":2,"parameterNumberName":"U-component_of_WINDS"},"data":[0.0,0.0,0.0,0.0,0.0,0.0,0.0,0.0,0.0,0.0,0.0,0.0,0.0,0.0,0.0,0.0,0.0,0.0,0.0,0.0,0.0,0.0,0.0,0.0,0.0,0.0,0.0,0.0,0.0,0.0,0.0,0.0,0.0,0.0,0.0,0.0,0.0,0.0,0.0,0.0,0.0,0.0,0.0,0.0,0.0,0.0,0.0,0.0,0.0,0.0,0.0,0.0,0.0,0.0,0.0,0.0,0.0,0.0,0.0,0.0,0.0,0.0,0.0,0.0,0.0,0.0,0.0,0.0,0.0,0.0,0.0,0.0,0.0,0.0,0.0,0.0,0.0,0.0,0.0,0.0,0.0,0.0,0.0,0.0,0.0,0.0,0.0,0.0,0.0,0.0,0.0,0.0,0.0,0.0,0.0,0.0,0.0,0.0,0.0,0.0,0.0,0.0,0.0,0.0,0.0,0.0,0.0,0.0,0.0,0.0,0.0,0.0,0.0,0.0,0.0,0.0,0.0,0.0,0.0,0.0,0.0,0.0,0.0,0.0,0.0,0.0,0.0,0.0,0.0,0.0,0.0,0.0,0.0,0.0,0.0,0.0,0.0,0.0,0.0,0.0,0.0,0.0,0.0,0.0,0.0,0.0,0.0,0.0,0.0,0.0,0.0,0.0,0.0,0.0,0.0,0.0,0.0,0.0,0.0,0.0,0.0,0.0,0.0,0.0,0.0,0.0,0.0,0.0,0.0,0.0,0.0,0.0,0.0,0.0,0.0,0.0,0.0,0.0,0.0,0.0,0.0,0.0,0.0,0.0,0.0,0.0,0.0,0.0,0.0,0.0,0.0,0.0,0.0,0.0,0.0,0.0,0.0,0.0,0.0,0.0,0.0,0.0,0.0,0.0,0.0,0.0,0.0,0.0,0.0,0.0,0.0,0.0,0.0,0.0,0.0,0.0,0.0,0.0,0.0,0.0,0.0,0.0,0.0,0.0,0.0,0.0,0.0,0.0,0.0,0.0,0.0,0.0,0.0,0.0,0.0,0.0,0.0,0.0,0.0,0.0,0.0,0.0,0.0,0.0,0.0,0.0,0.0,0.0,0.0,0.0,0.0,0.0,0.0,0.0,0.0,0.0,0.0,0.0,0.0,0.0,0.0,0.0,0.0,0.0,0.0,0.0,0.0,0.0,0.0,0.0,0.0,0.0,0.0,0.0,0.0,0.0,0.0,0.0,0.0,0.0,0.0,0.0,0.0,0.0,0.0,0.0,0.0,0.0,0.0,0.0,0.0,0.0,0.0,0.0,0.0,0.0,0.0,0.0,0.0,0.0,0.0,0.0,0.0,0.0,0.0,0.0,0.0,0.0,0.0,0.0,0.0,0.0,0.0,0.0,0.0,0.0,0.0,0.0,0.0,0.0,0.0,0.0,0.0,0.0,0.0,0.0,0.0,0.0,0.0,0.0,0.0,0.0,0.0,0.0,0.0,0.0,0.0,0.0,0.0,0.0,0.0,0.0,0.0,0.0,0.0,0.0,0.0,0.0,0.0,0.0,0.0,0.0,0.0,0.0,0.0,0.0,0.0,0.0,0.0,0.0,0.0,0.0,0.0,0.0,0.0,0.0,0.0,0.0,0.0,0.0,0.0,0.0,0.0,0.0,0.0,0.0,0.0,0.0,0.0,0.0,0.0,0.0,0.0,0.0,0.0,0.0,0.0,0.0,0.0,0.0,0.0,0.0,0.0,0.0,0.0,0.0,0.0,0.0,0.0,0.0,0.0,0.0,0.0,0.0,0.0,0.0,0.0,0.0,0.0,0.0,0.0,0.0,0.0,0.0,0.0,0.0,0.0,0.0,0.0,0.0,0.0,0.0,0.0,0.0,0.0,0.0,0.0,0.0,0.0,0.0,0.0,0.0,0.0,0.0,0.0,0.0,0.0,0.0,0.0,0.0,0.0,0.0,0.0,0.0,0.0,0.0,0.0,0.0,0.0,0.0,0.0,0.0,0.0,0.0,0.0,0.0,0.0,0.0,0.0,0.0,0.0,0.0,0.0,0.0,0.0,0.0,0.0,0.0,0.0,0.0,0.0,0.0,0.0,0.0,0.0,0.0,0.0,0.0,0.0,0.0,0.0,0.0,0.0,0.0,0.0,0.0,0.0,0.0,0.0,0.0,0.0,0.0,0.0,0.0,0.0,0.0,0.0,0.0,0.0,0.0,0.0,0.0,0.0,0.0,0.0,0.0,0.0,0.0,0.0,0.0,0.0,0.0,0.0,0.0,0.0,0.0,0.0,0.0,0.0,0.0,0.0,0.0,0.0,0.0,0.0,0.0,0.0,0.0,0.0,0.0,0.0,0.0,0.0,0.0,0.0,0.0,0.0,0.0,0.0,0.0,0.0,0.0,0.0,0.0,0.0,0.0,0.0,0.0,0.0,0.0,0.0,0.0,0.0,0.0,0.0,0.0,0.0,0.0,0.0,0.0,0.0,0.0,0.0,0.0,0.0,0.0,0.0,0.0,0.0,0.0,0.0,0.0,0.0,0.0,0.0,0.0,0.0,0.0,0.0,0.0,0.0,0.0,0.0,0.0,0.0,0.0,0.0,0.0,0.0,0.0,0.0,0.0,0.0,0.0,0.0,0.0,0.0,0.0,0.0,0.0,0.0,0.0,0.0,0.0,0.0,0.0,0.0,0.0,0.0,0.0,0.0,0.0,0.0,0.0,0.0,0.0,0.0,0.0,0.0,0.0,0.0,0.0,0.0,0.0,0.0,0.0,0.0,0.0,0.0,0.0,0.0,0.0,0.0,0.0,0.0,0.0,0.0,0.0,0.0,0.0,0.0,0.0,0.0,0.0,0.0,0.0,0.0,0.0,0.0,0.0,0.0,0.0,0.0,0.0,0.0,0.0,0.0,0.0,0.0,0.0,0.0,0.0,0.0,0.0,0.0,0.0,0.0,0.0,0.0,0.0,0.0,0.0,0.0,0.0,0.0,0.0,0.0,0.0,0.0,0.0,0.0,0.0,0.0,0.0,0.0,0.0,0.0,0.0,0.0,0.0,0.0,0.0,0.0,0.0,0.0,0.0,0.0,0.0,0.0,0.0,0.0,0.0,0.0,0.0,0.0,0.0,0.0,0.0,0.0,0.0,0.0,0.0,0.0,0.0,0.0,0.0,0.0,0.0,0.0,0.0,0.0,0.0,0.0,0.0,0.0,0.0,0.0,0.0,0.0,0.0,0.0,0.0,0.0,0.0,0.0,0.0,0.0,0.0,0.0,0.0,0.0,0.0,0.0,0.0,0.0,0.0,0.0,0.0,0.0,0.0,0.0,0.0,0.0,0.0,0.0,0.0,0.0,0.0,0.0,0.0,0.0,0.0,0.0,0.0,0.0,0.0,0.0,0.0,0.0,0.0,0.0,0.0,0.0,0.0,0.0,0.0,0.0,0.0,0.0,0.0,0.0,0.0,0.0,0.0,0.0,0.0,0.0,0.0,0.0,0.0,0.0,0.0,0.0,0.0,0.0,0.0,0.0,0.0,0.0,0.0,0.0,0.0,0.0,0.0,0.0,0.0,0.0,0.0,0.0,0.0,0.0,0.0,0.0,0.0,0.0,0.0,0.0,0.0,0.0,0.0,0.0,0.0,0.0,0.0,0.0,0.0,0.0,0.0,0.0,0.0,0.0,0.0,0.0,0.0,0.0,0.0,0.0,0.0,0.0,0.0,0.0,0.0,0.0,0.0,0.0,0.0,0.0,0.0,0.0,0.0,0.0,0.0,0.0,0.0,0.0,0.0,0.0,0.0,0.0,0.0,0.0,0.0,0.0,0.0,0.0,0.0,0.0,0.0,0.0,0.0,0.0,0.0,0.0,0.0,0.0,0.0,0.0,0.0,0.0,0.0,0.0,0.0,0.0,0.0,0.0,0.0,0.0,0.0,0.0,0.0,0.0,0.0,0.0,0.0,0.0,0.0,0.0,0.0,0.0,0.0,0.0,0.0,0.0,0.0,0.0,0.0,0.0,0.0,0.0,0.0,0.0,0.0,0.0,0.0,0.0,0.0,0.0,0.0,0.0,0.0,0.0,0.0,0.0,0.0,0.0,0.0,0.0,0.0,0.0,0.0,0.0,0.0,0.0,0.0,0.0,0.0,0.0,0.0,0.0,0.0,0.0,0.0,0.0,0.0,0.0,0.0,0.0,0.0,0.0,0.0,0.0,0.0,0.0,0.0,0.0,0.0,0.0,0.0,0.0,0.0,0.0,0.0,0.0,0.0,0.0,0.0,0.0,0.0,0.0,0.0,0.0,0.0,0.0,0.0,0.0,0.0,0.0,0.0,0.0,0.0,0.0,0.0,0.0,0.0,0.0,0.0,0.0,0.0,0.0,0.0,0.0,0.0,0.0,0.0,0.0,0.0,0.0,0.0,0.0,0.0,0.0,0.0,0.0,0.0,0.0,0.0,0.0,0.0,0.0,0.0,0.0,0.0,0.0,0.0,0.0,0.0,0.0,0.0,0.0,0.0,0.0,0.0,0.0,0.0,0.0,0.0,0.0,0.0,0.0,0.0,0.0,0.0,0.0,0.0,0.0,0.0,0.0,0.0,0.0,0.0,0.0,0.0,0.0,0.0,0.0,0.0,0.0,0.0,0.0,0.0,0.0,0.0,0.0,0.0,0.0,0.0,0.0,0.0,0.0,0.0,0.0,0.0,0.0,0.0,0.0,0.0,0.0,0.0,0.0,0.0,0.0,0.0,0.0,0.0,0.0,0.0,0.0,0.0,0.0,0.0,0.0,0.0,0.0,0.0,0.0,0.0,0.0,0.0,0.0,0.0,0.0,0.0,0.0,0.0,0.0,0.0,0.0,0.0,0.0,0.0,0.0,0.0,0.0,0.0,0.0,0.0,0.0,0.0,0.0,0.0,0.0,0.0,0.0,0.0,0.0,0.0,0.0,0.0,0.0,0.0,0.0,0.0,0.0,0.0,0.0,0.0,0.0,0.0,0.0,0.0,0.0,0.0,0.0,0.0,0.0,0.0,0.0,0.0,0.0,0.0,0.0,0.0,0.0,0.0,0.0,0.0,0.0,0.0,0.0,0.0,0.0,0.0,0.0,0.0,0.0,0.0,0.0,0.0,0.0,0.0,0.0,0.0,0.0,0.0,0.0,0.0,0.0,0.0,0.0,0.0,0.0,0.0,0.0,0.0,0.0,0.0,0.0,0.0,0.0,0.0,0.0,0.0,0.0,0.0,0.0,0.0,0.0,0.0,0.0,0.0,0.0,0.0,0.0,0.0,0.0,0.0,0.0,0.0,0.0,0.0,0.0,0.0,0.0,0.0,0.0,0.0,0.0,0.0,0.0,0.0,0.0,0.0,0.0,0.0,0.0,0.0,0.0,0.0,0.0,0.0,0.0,0.0,0.0,0.0,0.0,0.0,0.0,0.0,0.0,0.0,0.0,0.0,0.0,0.0,0.0,0.0,0.0,0.0,0.0,0.0,0.0,0.0,0.0,0.0,0.0,0.0,0.0,0.0,0.0,0.0,0.0,0.0,0.0,0.0,0.0,0.0,0.0,0.0,0.0,0.0,0.0,0.0,0.0,0.0,0.0,0.0,0.0,0.0,0.0,0.0,0.0,0.0,0.0,0.0,0.0,0.0,0.0,0.0,0.0,0.0,0.0,0.0,0.0,0.0,0.0,0.0,0.0,0.0,0.0,0.0,0.0,0.0,0.0,0.0,0.0,0.0,0.0,0.0,0.0,0.0,0.0,0.0,0.0,0.0,0.0,0.0,0.0,0.0,0.0,0.0,0.0,0.0,0.0,0.0,0.0,0.0,0.0,0.0,0.0,0.0,0.0,0.0,0.0,0.0,0.0,0.0,0.0,0.0,0.0,0.0,0.0,0.0,0.0,0.0,0.0,0.0,0.0,0.0,0.0,0.0,0.0,0.0,0.0,0.0,0.0,0.0,0.0,0.0,0.0,0.0,0.0,0.0,0.0,0.0,0.0,0.0,0.0,0.0,0.0,0.0,0.0,0.0,0.0,0.0,0.0,0.0,0.0,0.0,0.0,0.0,0.0,0.0,0.0,0.0,0.0,0.0,0.0,0.0,0.0,0.0,-4.1901,0.0,0.0,0.0,0.0,0.0,0.0,0.0,0.0,0.0,0.0,0.0,0.0,0.0,0.0,0.0,0.0,0.0,0.0,0.0,0.0,0.0,0.0,0.0,0.0,0.0,0.0,0.0,0.0,0.0,0.0,0.0,0.0,0.0,0.0,0.0,0.0,0.0,0.0,0.0,0.0,0.0,0.0,0.0,0.0,0.0,0.0,0.0,0.0,0.0,0.0,0.0,0.0,0.0,0.0,0.0,0.0,0.0,0.0,0.0,0.0,0.0,0.0,0.0,0.0,0.0,0.0,0.0,0.0,0.0,0.0,0.0,0.0,0.0,0.0,0.0,0.0,0.0,0.0,0.0,0.0,0.0,0.0,0.0,0.0,0.0,0.0,0.0,0.0,0.0,0.0,0.0,0.0,0.0,0.0,0.0,0.0,0.0,0.0,0.0,0.0,0.0,0.0,0.0,0.0,0.0,0.0,0.0,0.0,0.0,0.0,0.0,0.0,0.0,0.0,0.0,0.0,-4.302,0.0,0.0,0.0,0.0,0.0,0.0,0.0,0.0,0.0,0.0,0.0,0.0,0.0,0.0,0.0,0.0,0.0,0.0,0.0,0.0,0.0,0.0,0.0,0.0,0.0,0.0,0.0,0.0,0.0,0.0,0.0,0.0,0.0,0.0,0.0,0.0,0.0,0.0,0.0,0.0,0.0,0.0,0.0,0.0,0.0,0.0,0.0,0.0,0.0,0.0,0.0,0.0,0.0,0.0,0.0,0.0,0.0,0.0,0.0,0.0,0.0,0.0,0.0,0.0,0.0,0.0,0.0,0.0,0.0,0.0,0.0,0.0,0.0,0.0,0.0,0.0,0.0,0.0,0.0,0.0,0.0,0.0,0.0,0.0,0.0,0.0,0.0,0.0,0.0,0.0,0.0,0.0,0.0,0.0,0.0,0.0,0.0,0.0,0.0,0.0,0.0,0.0,0.0,0.0,0.0,0.0,0.0,0.0,-4.7645,-4.8453,-4.893,-4.8269,-4.8398,-4.9077,-4.7609,-4.6636,-4.6049,-4.5094,0.0,0.0,0.0,0.0,0.0,0.0,0.0,0.0,0.0,0.0,0.0,0.0,0.0,0.0,0.0,0.0,0.0,0.0,0.0,0.0,0.0,0.0,0.0,0.0,0.0,0.0,0.0,0.0,0.0,0.0,0.0,0.0,0.0,0.0,0.0,0.0,0.0,0.0,-3.779,-3.7264,-3.6738,-3.6298,-3.6109,0.0,0.0,0.0,0.0,0.0,0.0,0.0,0.0,0.0,0.0,0.0,0.0,0.0,0.0,0.0,0.0,0.0,0.0,0.0,0.0,0.0,0.0,0.0,0.0,0.0,0.0,0.0,0.0,0.0,0.0,0.0,0.0,0.0,0.0,0.0,0.0,0.0,0.0,0.0,0.0,0.0,0.0,0.0,-4.5112,-4.5375,0.0,0.0,0.0,0.0,0.0,0.0,0.0,0.0,0.0,0.0,0.0,0.0,0.0,-4.5577,-4.8215,-4.8716,-4.8932,-4.904,-5.1334,-5.2105,-5.1499,-5.1389,-5.1793,-5.2509,-5.1591,0.0,-4.6838,-4.5333,0.0,0.0,0.0,0.0,0.0,0.0,0.0,0.0,0.0,0.0,0.0,0.0,0.0,0.0,0.0,0.0,0.0,0.0,0.0,0.0,0.0,0.0,0.0,0.0,0.0,0.0,0.0,0.0,0.0,0.0,0.0,0.0,0.0,0.0,0.0,0.0,-3.7087,-3.8702,-3.9015,-3.8685,-3.8505,-3.8463,-3.7701,-3.6717,-3.5454,-3.3555,0.0,0.0,0.0,0.0,0.0,0.0,0.0,0.0,0.0,0.0,0.0,0.0,0.0,0.0,0.0,0.0,0.0,0.0,0.0,0.0,0.0,0.0,0.0,0.0,0.0,0.0,0.0,0.0,0.0,0.0,0.0,0.0,0.0,0.0,0.0,0.0,0.0,0.0,0.0,-4.3635,-4.6186,-4.6105,-4.6879,-4.6649,0.0,0.0,0.0,0.0,0.0,0.0,0.0,0.0,0.0,-4.8229,-4.7284,-4.7795,-4.9954,-5.0609,-5.0912,-5.0912,-5.2472,-5.3023,-5.2674,-5.2674,-5.2876,-5.317,-5.2344,-5.1169,-4.9738,-4.8122,-4.6691,-4.5333,0.0,0.0,0.0,0.0,-4.025,-3.9774,0.0,0.0,0.0,0.0,0.0,0.0,0.0,0.0,0.0,0.0,0.0,0.0,0.0,0.0,0.0,-3.0216,0.0,0.0,0.0,0.0,0.0,0.0,0.0,0.0,0.0,0.0,0.0,0.0,-3.8857,-3.9843,-3.9246,-3.9279,-3.9165,-3.8893,-3.7784,-3.6717,-3.5615,-3.4147,-3.2925,0.0,0.0,0.0,0.0,0.0,0.0,0.0,0.0,0.0,0.0,0.0,0.0,0.0,0.0,0.0,0.0,0.0,0.0,0.0,0.0,0.0,0.0,0.0,0.0,0.0,0.0,0.0,0.0,0.0,0.0,0.0,0.0,0.0,0.0,0.0,0.0,0.0,0.0,-4.5893,-4.7946,-4.723,-4.8956,-4.9047,0.0,0.0,0.0,0.0,0.0,0.0,-4.8194,-4.8346,-4.8938,-5.0038,-4.9619,-5.0059,-5.1408,-5.2013,-5.2197,-5.1995,-5.2619,-5.2803,-5.2601,-5.2803,-5.2784,-5.2564,-5.216,-5.1867,-5.1555,-4.9939,-4.8526,-4.7222,-4.5122,-4.3415,-4.2113,-4.225,-4.1391,-4.0315,0.0,0.0,0.0,0.0,0.0,0.0,0.0,0.0,0.0,0.0,0.0,0.0,0.0,0.0,-2.8248,-3.0309,-3.072,-3.0697,0.0,0.0,0.0,0.0,0.0,0.0,0.0,0.0,0.0,-3.684,-3.7901,-3.8363,-3.8274,-3.8403,-3.8018,-3.7181,-3.6164,-3.6627,-3.7892,-3.4539,-3.3481,-3.3617,0.0,0.0,0.0,0.0,0.0,0.0,0.0,0.0,0.0,0.0,0.0,0.0,0.0,0.0,0.0,0.0,0.0,0.0,0.0,0.0,0.0,0.0,0.0,0.0,0.0,0.0,0.0,0.0,0.0,0.0,0.0,0.0,0.0,0.0,0.0,0.0,0.0,0.0,0.0,-5.0273,-5.2819,0.0,0.0,0.0,0.0,-5.026,-5.0452,-5.0875,-5.1687,-5.211,-5.2186,-5.1879,-5.2177,-5.2603,-5.3078,-5.3133,-5.2766,-5.1995,-5.2032,-5.1665,-5.0949,-5.1701,-5.1646,-5.0967,-5.1683,-5.1573,-5.0729,-4.9058,-4.8324,-4.8086,-4.6415,-4.5034,-4.3997,-4.3988,-4.2762,-4.1154,0.0,0.0,0.0,0.0,0.0,0.0,0.0,0.0,0.0,0.0,0.0,0.0,0.0,-2.5137,-2.6464,-2.804,-2.9219,-2.9712,-2.9398,0.0,0.0,0.0,0.0,0.0,0.0,0.0,-3.5405,-3.6184,-3.6489,-3.6539,-3.6342,-3.612,-3.5619,-3.4872,-3.3997,-3.367,-3.371,-3.3266,-3.2865,-3.2127,-2.8003,-2.6336,0.0,0.0,0.0,0.0,0.0,0.0,0.0,0.0,0.0,0.0,0.0,0.0,0.0,0.0,0.0,0.0,0.0,0.0,0.0,0.0,0.0,0.0,0.0,0.0,0.0,0.0,0.0,0.0,0.0,0.0,0.0,0.0,0.0,0.0,0.0,0.0,0.0,-5.2754,-5.5087,0.0,-5.1764,-5.2013,-5.2376,-5.2299,-5.3818,-5.4636,-5.4388,-5.4804,-5.4714,-5.4,-5.3599,-5.3461,-5.3604,-5.3336,-5.3078,-5.2766,-5.2252,-5.1848,-5.1555,-5.1334,-5.1077,-5.0784,-5.0545,-5.0582,-5.0674,-4.9003,-4.8636,-4.8964,-4.6994,-4.5659,-4.4693,-4.3429,-4.2193,-4.1204,0.0,0.0,0.0,0.0,0.0,0.0,0.0,0.0,0.0,0.0,0.0,-2.2153,-2.2099,-2.3298,-2.453,-2.5505,-2.7214,-2.8018,-2.747,0.0,0.0,0.0,0.0,0.0,0.0,-3.3662,-3.4445,-3.4448,-3.4425,-3.3979,-3.314,-3.3044,-3.2547,-3.1648,-3.1159,-3.0485,-2.977,-3.07,-3.1478,-3.1828,-2.8412,-2.6316,-2.5119,0.0,0.0,0.0,0.0,0.0,0.0,0.0,0.0,0.0,0.0,0.0,0.0,0.0,0.0,0.0,0.0,0.0,0.0,0.0,0.0,0.0,0.0,0.0,0.0,0.0,0.0,0.0,0.0,0.0,0.0,0.0,0.0,0.0,0.0,-5.2539,-5.4668,-5.4062,-5.6733,-5.728,-5.3916,-5.508,-5.5862,-5.5359,-5.6896,-5.7524,-5.6817,-5.6951,-5.6504,-5.5342,-5.4597,-5.4099,-5.3814,-5.3545,-5.3189,-5.2803,-5.1977,-5.1444,-5.1151,-5.0637,-5.0233,-4.9939,-4.9682,-4.9738,-4.9848,-4.8471,-4.8251,-4.8614,-4.7186,-4.6088,-4.511,-4.3484,-4.2193,-4.117,0.0,0.0,0.0,0.0,0.0,0.0,0.0,0.0,0.0,0.0,-2.158,-2.099,-2.0442,-2.1473,-2.2373,-2.2806,-2.4636,-2.5416,-2.4523,-2.5963,0.0,0.0,0.0,0.0,-3.0656,-3.1968,-3.2349,-3.1711,-3.1769,-3.0777,-2.886,-2.9364,-2.8895,-2.7625,-2.7745,-2.7377,-2.6704,-2.6892,-2.9321,-3.2842,-2.9907,-2.6704,-2.3837,0.0,0.0,0.0,0.0,0.0,0.0,0.0,0.0,0.0,0.0,0.0,0.0,0.0,0.0,0.0,0.0,0.0,0.0,0.0,0.0,0.0,0.0,0.0,0.0,0.0,0.0,0.0,0.0,0.0,0.0,0.0,0.0,0.0,-5.0371,-5.4023,-5.6074,-5.4433,-5.791,-5.9322,-5.6504,-5.7748,-5.8949,-5.9483,-5.9473,-5.9317,-5.892,-5.85,-5.75,-5.5788,-5.5323,-5.4682,-5.3832,-5.3777,-5.3198,-5.2018,-5.1151,-5.0343,-4.9591,-4.9554,-4.9095,-4.8361,-4.9169,-4.904,-4.8214,-4.7407,-4.7076,-4.7039,-4.7039,-4.63,-4.5166,-4.4359,-4.2832,-4.1068,0.0,0.0,0.0,0.0,0.0,0.0,0.0,0.0,0.0,0.0,-2.0186,-1.8877,-1.8166,-1.7855,-1.8028,-1.8846,-2.0302,-2.1287,-2.1679,0.0,0.0,0.0,0.0,0.0,-2.9286,-2.9366,-2.949,-2.9693,-2.9274,-2.8618,-2.7727,-2.7641,-2.7054,-2.6072,-2.5586,-2.4884,-2.4104,-2.3903,-2.4791,-2.6321,-2.6749,-2.6335,-2.5479,0.0,0.0,0.0,0.0,0.0,0.0,0.0,0.0,0.0,0.0,0.0,0.0,0.0,0.0,0.0,0.0,0.0,0.0,0.0,0.0,0.0,0.0,0.0,0.0,0.0,0.0,0.0,0.0,0.0,0.0,0.0,-4.8672,-5.1953,-5.4473,-5.6933,-5.8769,-5.9492,-6.0625,-6.0737,-5.9222,-5.9406,-5.9659,-5.9706,-5.9046,-5.8831,-5.9317,-5.8081,-5.7136,-5.6663,-5.5651,-5.4988,-5.4741,-5.3534,-5.2772,-5.2419,-5.0724,-4.9793,-4.9554,-4.8948,-4.8526,-4.8288,-4.7939,-4.7664,-4.7388,-4.6562,-4.6232,-4.6195,-4.5742,-4.512,-4.4297,-4.3098,-4.1719,-4.0358,0.0,0.0,0.0,0.0,0.0,0.0,0.0,0.0,0.0,0.0,-1.8759,-1.6837,-1.5039,-1.4027,-1.3926,-1.4988,-1.6243,-1.7563,-1.8961,0.0,0.0,0.0,0.0,-2.5439,-2.6472,-2.694,-2.7222,-2.7267,-2.7305,-2.6933,-2.6169,-2.5884,-2.5095,-2.3928,-2.3374,-2.2443,-2.1295,-2.135,-2.1079,-2.0757,-2.2673,-2.3428,-2.3574,-2.4748,-2.5564,-2.6314,-2.7535,-2.9045,-3.0724,-3.2196,0.0,0.0,0.0,0.0,0.0,0.0,0.0,0.0,0.0,0.0,0.0,0.0,0.0,0.0,0.0,0.0,0.0,0.0,0.0,0.0,0.0,0.0,0.0,0.0,-5.0801,-5.4004,-5.6758,-5.8027,-5.9414,-6.1465,-6.1387,-6.1051,-6.0773,-6.0664,-6.0406,-5.985,-5.9263,-5.895,-5.8992,-5.7723,-5.6992,-5.6992,-5.593,-5.5109,-5.4554,-5.36,-5.2742,-5.2045,-5.0528,-4.9767,-4.9554,-4.8691,-4.8122,0.0,-4.7315,-4.6929,-4.6544,-4.5736,-4.5406,0.0,0.0,0.0,0.0,0.0,-4.094,-4.007,0.0,0.0,0.0,0.0,0.0,0.0,0.0,0.0,0.0,0.0,0.0,-1.4684,-1.1465,-1.0228,-1.0092,-1.1172,-1.2538,-1.4246,0.0,0.0,0.0,-1.9664,-2.0984,-2.2019,-2.2636,-2.4095,-2.4682,-2.4316,-2.524,-2.5175,-2.4204,-2.3948,-2.2998,-2.1545,-2.1042,-1.9945,-1.8522,-1.8931,-1.8016,-1.6411,-1.8191,-1.9154,-1.9787,-2.2322,-2.4301,-2.5854,-2.7041,-2.8621,-3.0513,-3.238,0.0,0.0,0.0,0.0,0.0,0.0,0.0,0.0,0.0,0.0,0.0,0.0,0.0,0.0,0.0,0.0,0.0,0.0,0.0,0.0,0.0,0.0,0.0,0.0,-5.3183,-5.5918,-5.7656,-5.7812,-5.8672,-6.1133,-6.082,-6.0621,-6.1188,-6.1217,-6.0826,-5.991,-5.954,-5.9088,-5.8501,0.0,0.0,0.0,0.0,-5.5013,-5.39,-5.3639,-5.2779,-5.1308,-5.0403,-4.9805,-4.9505,-4.8675,-4.7865,-4.7075,-4.7021,-4.6526,-4.57,-4.4911,-4.4562,-4.458,-4.4491,-4.4143,-4.3432,-4.1603,-4.0577,-4.007,0.0,0.0,0.0,0.0,0.0,0.0,0.0,0.0,0.0,-1.8461,-1.5082,-1.1802,-0.8642,-0.702,-0.6482,-0.732,-0.9641,-1.1921,0.0,0.0,-1.5879,-1.674,-1.6535,-1.7097,-1.8602,-1.853,-1.9044,-2.0153,-2.0947,-2.1501,-2.1847,-2.1151,-2.0565,-2.0047,-1.851,-1.7311,-1.6419,-1.5776,-1.5415,-1.5261,-1.4842,-1.5855,-1.7886,-2.0532,-2.245,-2.4193,-2.6704,-2.8864,-3.0735,-3.2552,-3.3857,-3.494,-3.6255,0.0,0.0,0.0,0.0,0.0,0.0,0.0,0.0,0.0,0.0,0.0,0.0,0.0,0.0,0.0,0.0,0.0,0.0,0.0,0.0,-5.1777,-5.3945,-5.5918,-5.7656,-5.7285,-5.7558,-5.9453,-6.0117,-6.0195,-5.9685,-5.9507,-5.9599,-6.0083,-5.7962,-5.7495,-5.9415,-5.7234,-5.6261,-5.6973,-5.553,-5.4605,-5.4367,-5.2662,-5.1624,-5.1277,0.0,0.0,-4.902,-4.8532,-4.7865,-4.7076,-4.6416,-4.5681,-4.4874,-4.4066,-4.3718,-4.3683,-4.325,-4.2735,-4.209,-4.123,-4.0577,-4.007,0.0,0.0,0.0,0.0,0.0,0.0,0.0,0.0,0.0,0.0,-1.5316,-1.211,-0.8338,-0.658,-0.5985,-0.669,-0.8737,0.0,0.0,-1.1463,-1.1656,-1.2225,-1.1524,-1.1648,-1.281,-1.2902,-1.3168,-1.3643,-1.5091,-1.5772,-1.5771,-1.7258,-1.6553,-1.4024,-1.3719,-1.2505,-1.062,-1.0372,-1.0802,-1.1657,-1.1413,-1.1974,-1.3355,-1.7379,-2.0256,-2.2506,-2.5129,-2.7545,-2.9863,-3.211,-3.3785,-3.5322,-3.7465,-3.8391,-3.8524,0.0,0.0,0.0,0.0,0.0,0.0,0.0,0.0,0.0,0.0,0.0,0.0,0.0,0.0,-4.5664,-4.7812,0.0,-5.2012,-5.3711,-5.5469,-5.6758,-5.7187,-5.6875,-5.7246,-5.8984,-5.918,-5.916,-5.9199,-5.9116,-5.9019,-5.8948,-5.7613,-5.7113,-5.7818,-5.6557,-5.5789,-5.5742,-5.4934,-5.4087,-5.3222,-5.2132,-5.1308,-5.0683,-4.9427,-4.8882,-4.8878,-4.8285,-4.7684,-4.7076,-4.625,-4.5443,-4.4654,-4.3828,-4.3497,-4.3444,-4.2902,-4.2342,-4.1725,-4.1133,-4.0577,-4.007,0.0,0.0,0.0,0.0,0.0,0.0,0.0,0.0,0.0,0.0,0.0,-1.3557,-0.9624,-0.7864,-0.7212,0.0,0.0,0.0,0.0,-0.8081,-0.7493,-0.7493,-0.6541,-0.6255,-0.6793,-0.706,-0.6973,-0.6478,-0.8344,-0.8814,-0.8026,-1.0972,-1.0096,-0.611,-0.6939,-0.5825,-0.3449,-0.3924,-0.4894,-0.6167,-0.666,-0.6972,-0.7746,-1.2486,-1.6656,-2.0307,-2.2839,-2.5511,-2.8282,-3.1049,-3.3156,-3.5096,-3.8174,-3.9409,-3.9515,-3.8707,-3.8927,0.0,0.0,0.0,0.0,0.0,0.0,0.0,0.0,-4.2751,-4.4051,-4.6504,-4.728,-4.8394,-5.1281,-5.3117,-5.4466,-5.5369,-5.6697,-5.7362,-5.6699,-5.6601,-5.7129,-5.8535,-5.8223,-5.8105,-5.8633,-5.8848,-5.8611,-5.7801,-5.7553,-5.7112,-5.629,-5.6029,-5.5473,-5.4554,-5.4339,-5.3491,-5.1933,-5.1741,-5.1197,-5.0206,-4.943,-4.9037,-4.8992,-4.8245,-4.7546,-4.6819,-4.5847,-4.5076,-4.4415,-4.3754,-4.3497,-4.3444,-4.2902,-4.2342,-4.1725,-4.1133,-4.0577,-4.007,0.0,0.0,0.0,0.0,0.0,0.0,0.0,0.0,0.0,0.0,0.0,0.0,0.0,0.0,0.0,0.0,0.0,0.0,-0.6982,-0.5,-0.3902,-0.3902,-0.2305,-0.1604,-0.1905,-0.0682,-0.0039,-0.0036,-0.0865,-0.0723,0.0351,0.0353,0.1031,0.2281,0.2878,0.3339,0.3614,0.286,0.2174,0.1637,0.1642,0.0202,-0.2182,-0.4431,-0.9838,-1.6763,-2.0182,-2.3228,-2.6082,-2.8888,-3.1225,-3.3494,-3.6567,-3.8146,-3.8689,-3.7863,-3.7679,-3.7349,-3.5514,-3.7303,-3.9943,-4.0876,-4.2565,-4.4586,0.0,-4.754,-4.8265,-4.9928,-5.1093,-5.2122,-5.3165,-5.4139,-5.5119,-5.6118,-5.6441,-5.6575,-5.6601,-5.6601,-5.668,-5.6875,-5.748,-5.7637,-5.6953,-5.7598,-5.8008,-5.789,-5.7047,-5.6815,-5.746,-5.6479,-5.552,-5.4707,-5.3803,-5.2876,-5.1914,-5.1183,-5.0779,-5.0624,-5.0176,-4.9777,-4.9416,-4.895,-4.7766,-4.5957,-4.4415,-4.3718,-4.3626,-4.3534,-4.3497,-4.3444,-4.2902,-4.2342,-4.1725,-4.1133,-4.0577,-4.007,0.0,0.0,0.0,0.0,0.0,0.0,0.0,0.0,0.0,0.0,0.0,0.0,0.0,0.0,0.0,0.0,0.0,0.0,-0.6043,-0.2663,-0.0381,0.0432,0.2371,0.3548,0.3823,0.5069,0.6046,0.6739,0.6278,0.6677,0.792,0.9515,0.9982,0.957,1.1572,1.1901,1.087,1.0147,0.9712,0.9596,0.9359,0.8517,0.7046,0.4204,-0.1279,-0.8517,-1.6539,-2.0988,0.0,0.0,-3.0626,-3.2798,-3.6161,-3.7441,-3.7519,-3.6607,-3.7095,-3.7977,-3.8332,-3.9214,-4.04,-4.187,-4.3713,-4.5568,-4.7117,-4.761,-4.8479,-5.104,-5.2069,-5.2883,-5.413,-5.5452,-5.6349,-5.6279,-5.6686,-5.6874,-5.6536,-5.6484,-5.6512,-5.6582,-5.6914,-5.6992,-5.664,-5.6933,-5.7148,-5.7148,-5.6754,-5.6641,-5.6938,-5.6472,-5.5719,-5.4719,-5.379,-5.2857,-5.1914,-5.1106,-5.0702,-5.0683,-5.0005,-4.9748,-4.9808,-4.8888,-4.7537,-4.5847,-4.469,-4.392,-4.3497,-4.3497,-4.3497,-4.3444,-4.2902,-4.2342,-4.1725,-4.1133,-4.0577,-4.007,0.0,0.0,0.0,0.0,0.0,0.0,0.0,0.0,0.0,0.0,0.0,0.0,0.0,0.0,0.0,0.0,0.0,0.0,0.0,-0.0963,0.2505,0.4311,0.6509,0.8034,0.8837,1.0015,1.1323,1.2685,1.2535,1.3276,1.488,1.6761,1.7256,1.6626,1.8675,1.874,1.7318,1.662,1.6332,1.6302,1.6002,1.5581,1.479,1.1971,0.6226,-0.1786,-1.255,-1.8423,0.0,0.0,-2.9825,-3.1898,-3.4921,-3.5946,-3.5894,-3.5413,-3.6381,-3.7965,-3.9622,-4.0335,-4.101,-4.2629,-4.4594,-4.6293,-4.6913,-4.7328,-4.8292,-5.0878,-5.1698,-5.2348,-5.3676,-5.5283,-5.6267,-5.5708,-5.6382,-5.6853,-5.6398,-5.614,-5.6138,-5.6497,-5.6325,-5.6306,-5.6562,-5.6601,-5.6601,-5.6601,-5.6601,-5.656,-5.6458,-5.6421,-5.5806,-5.4485,-5.3771,-5.2821,-5.1644,-5.101,-5.0702,-5.0683,-5.0048,-4.9754,-4.9687,-4.8088,-4.6725,-4.5516,-4.4727,-4.403,-4.3497,-4.3497,-4.3497,-4.3444,-4.305,-4.2541,-4.1979,-4.1358,-4.0703,-4.007,0.0,0.0,0.0,0.0,0.0,0.0,0.0,0.0,0.0,0.0,0.0,0.0,0.0,0.0,0.0,0.0,0.0,0.0,0.0,-0.0103,0.4414,0.7264,0.9634,1.1378,1.2527,1.3978,1.5527,1.7218,1.7498,1.8909,2.1229,2.1764,2.2616,2.3685,2.3564,2.3175,2.252,2.1799,2.1349,2.1182,2.1151,2.0462,1.9323,1.8346,1.1644,0.1474,-0.8205,0.0,0.0,0.0,-2.8352,-3.0376,-3.2257,-3.31,-3.3596,-3.4469,-3.5357,-3.6342,-3.7646,-3.9694,-4.176,-4.3058,-4.5198,-4.7004,-4.7165,-4.7844,-4.8698,-4.9517,-5.014,-5.0728,-5.1308,-5.2837,-5.4025,-5.4147,-5.5167,-5.6001,-5.6181,-5.5482,-5.5316,-5.6288,-5.5655,-5.5524,-5.6504,-5.6601,-5.6601,-5.6601,-5.6601,-5.6601,-5.6582,-5.6462,-5.5611,-5.3874,-5.3549,-5.2608,-5.0952,-5.0794,-5.0702,-5.0702,-5.0664,-5.0023,-4.8748,-4.6383,-4.5097,-4.469,-4.3883,-4.3516,-4.3497,-4.3497,-4.3497,-4.3497,-4.3479,-4.3142,-4.2616,-4.1997,-4.1076,-4.007,0.0,0.0,0.0,0.0,0.0,0.0,0.0,0.0,0.0,0.0,0.0,0.0,0.0,0.0,0.0,0.0,0.0,0.0,0.0,-0.0991,0.4267,0.9408,1.2054,1.3797,1.4601,1.5766,1.6859,1.7856,1.9296,2.0685,2.194,2.3725,2.4914,2.5487,2.5858,2.6027,2.6024,2.5628,2.566,2.5949,2.5597,2.5262,2.469,2.2078,1.391,0.2897,0.0,0.0,0.0,0.0,-2.8493,-3.0088,-3.2135,-3.2516,-3.2274,-3.2402,-3.3195,-3.4569,-3.7147,-3.9687,-4.207,-4.3887,-4.5309,-4.6425,-4.7048,-4.6988,-4.7118,-4.8359,-4.8316,-4.8214,-4.8802,-5.052,-5.1958,-5.2326,-5.4047,-5.5513,-5.5932,-5.6248,-5.6375,-5.6281,-5.6549,-5.667,-5.6497,-5.6559,-5.6601,-5.6601,-5.6601,-5.6601,-5.6601,-5.656,-5.596,-5.4694,-5.3935,-5.2945,-5.1702,-5.1026,-5.0702,-5.0683,-5.0106,-4.9056,-4.7553,-4.6223,-4.5258,-4.4672,-4.3846,-4.3497,-4.3497,-4.3497,-4.3497,-4.3497,-4.3497,-4.2813,-4.1769,-4.1279,-4.0228,-3.9123,0.0,0.0,0.0,0.0,0.0,0.0,0.0,0.0,0.0,0.0,0.0,0.0,0.0,0.0,0.0,0.0,0.0,0.0,0.0,0.0,0.3037,0.859,1.2868,1.5636,1.6731,1.7811,1.8627,1.9144,2.1084,2.2292,2.2739,2.4917,2.6135,2.6585,2.7005,2.758,2.8193,2.8101,2.8294,2.867,2.8636,2.8482,2.7988,2.5449,1.7294,0.0,0.0,0.0,0.0,0.0,-2.8741,-2.9966,-3.1815,-3.2441,-3.246,-3.2302,-3.3325,-3.5156,-3.8113,-4.0477,-4.2565,-4.4358,-4.5145,-4.5624,-4.6212,-4.5885,-4.5787,-4.6869,-4.6357,-4.5825,-4.6292,-4.7748,-4.9041,-4.966,-5.1744,-5.3757,-5.4997,-5.5518,-5.6084,-5.6919,-5.7281,-5.7399,-5.7297,-5.7086,-5.685,-5.6621,-5.6894,-5.6933,-5.6621,-5.6601,-5.6013,-5.4743,-5.3986,-5.3008,-5.1761,-5.0733,-5.0067,-4.976,-4.8913,-4.7907,-4.6708,-4.5912,-4.5162,-4.4435,-4.39,-4.3631,-4.3497,-4.3497,-4.3497,-4.3461,-4.3167,-4.2536,-4.1615,-4.0802,-3.9858,-3.8894,0.0,0.0,0.0,0.0,0.0,0.0,0.0,0.0,0.0,0.0,0.0,0.0,0.0,0.0,0.0,0.0,0.0,0.0,0.0,0.0,0.0,0.5376,1.2172,1.6823,1.8921,2.0172,2.0876,2.1085,2.2965,2.3894,2.392,2.5506,2.6641,2.7315,2.7338,2.8039,2.9195,2.9315,2.9403,2.9523,3.0372,3.0236,2.9361,2.812,0.0,0.0,0.0,0.0,0.0,-2.5664,-2.8998,-3.0037,-3.1312,-3.2685,-3.3853,-3.3957,-3.5469,-3.7624,-4.0147,-4.1784,-4.3098,-4.4423,-4.47,-4.4647,-4.4704,-4.4683,-4.4724,-4.5052,-4.4266,-4.3561,-4.367,-4.4594,-4.5606,-4.6408,-4.8662,-5.1127,-5.3677,-5.3705,-5.4708,-5.8099,-5.7804,-5.7727,-5.878,-5.8136,-5.7387,-5.6699,0.0,-5.7461,-5.664,-5.6562,-5.5742,-5.4043,-5.3657,-5.2689,-5.1055,-4.9908,-4.8894,-4.8029,-4.7259,-4.6666,-4.6225,-4.544,-4.4713,-4.4028,-4.4016,-4.3818,-4.3458,-4.3458,-4.3406,-4.3296,-4.2543,-4.2213,-4.1999,-4.0601,-3.9759,-3.9153,0.0,0.0,0.0,0.0,0.0,0.0,0.0,0.0,0.0,0.0,0.0,0.0,0.0,0.0,0.0,0.0,0.0,0.0,0.0,0.0,0.0,0.0,0.0,0.0,0.0,0.0,0.0,0.0,0.0,2.5096,2.5183,2.7321,2.8538,2.8919,2.9174,2.9634,3.022,3.025,3.074,3.142,0.0,3.1415,3.1596,0.0,0.0,0.0,0.0,0.0,-2.2358,-2.6214,-2.9283,-3.1539,-3.1759,-3.2418,-3.3185,-3.3694,-3.4552,-3.5999,-3.9101,-4.0473,-4.155,-4.3742,-4.4,-4.3747,-4.3751,-4.3744,-4.3473,-4.258,-4.178,-4.0933,-3.9991,-4.2307,-4.4711,-4.5833,-4.9609,-5.3186,-5.545,-5.6482,-5.7341,-5.8233,-5.8761,-5.8939,-5.8639,-5.8578,-5.8226,-5.7406,-5.7085,-5.6836,-5.6601,-5.5976,-5.5137,-5.4023,-5.2585,-5.1264,-5.013,-4.8999,-4.8029,-4.7201,-4.7009,-4.6378,-4.5401,-4.5192,-4.4853,-4.4447,-4.4117,-4.3602,-4.2971,-4.2695,-4.2249,-4.1699,-4.1497,-4.1038,-4.0372,-3.9264,-3.8033,-3.6758,0.0,0.0,0.0,0.0,0.0,0.0,0.0,0.0,0.0,0.0,0.0,0.0,0.0,0.0,0.0,0.0,0.0,0.0,0.0,0.0,0.0,0.0,0.0,0.0,0.0,0.0,0.0,0.0,0.0,0.0,0.0,2.7694,2.8759,2.9735,2.9994,3.0461,3.1064,0.0,0.0,0.0,0.0,0.0,0.0,0.0,0.0,0.0,0.0,0.0,-2.4081,-2.59,-2.8977,-3.2038,-3.2115,-3.2913,-3.3935,-3.4693,-3.53,-3.6347,-3.9043,-4.036,-4.1302,-4.2665,-4.2917,-4.263,-4.1899,-4.168,-4.128,-4.0023,-3.9199,-3.8543,-3.8013,-4.0347,-4.2829,-4.42,-4.833,-5.2335,-5.5198,-5.6313,-5.733,-5.8662,-5.8969,-5.8935,-5.854,-5.8328,-5.8083,-5.7674,-5.7003,-5.6426,-5.6055,-5.5195,-5.4336,-5.3457,-5.1971,-5.0348,-4.858,-4.7947,-4.7174,-4.6336,-4.6336,-4.5975,-4.5322,-4.5322,-4.514,-4.4806,0.0,-4.3492,-4.275,-4.223,-4.1641,-4.1038,-4.0322,-3.9772,-3.9195,-3.77,-3.6453,-3.5383,0.0,0.0,0.0,0.0,0.0,0.0,0.0,0.0,0.0,0.0,0.0,0.0,0.0,0.0,0.0,0.0,0.0,0.0,0.0,0.0,0.0,0.0,0.0,0.0,0.0,0.0,0.0,0.0,0.0,0.0,0.0,0.0,0.0,0.0,0.0,0.0,0.0,0.0,0.0,0.0,0.0,0.0,0.0,0.0,0.0,0.0,0.0,-1.6401,-2.3903,-2.5119,-2.8363,-3.2027,-3.2448,-3.3679,-3.5216,-3.6088,-3.6542,-3.7222,-3.9365,-4.0568,-4.1284,-4.1473,-4.1724,-4.1485,-3.9804,-3.9415,-3.9035,-3.7732,-3.6999,-3.6671,-3.7041,-3.8758,-4.0723,-4.2619,-4.6214,-5.0228,-5.425,-5.5122,-5.6377,-5.9091,-5.8854,-5.8466,-5.8467,-5.7688,-5.7293,-5.746,-5.649,-5.5702,-5.5312,-5.4258,-5.3144,-5.2051,-5.1151,-4.9457,-4.6888,-4.6842,-4.6414,-4.5586,-4.5586,-4.5586,-4.5586,-4.5586,-4.5438,-4.5101,-4.4138,0.0,-4.2632,-4.1752,-4.1077,-4.0487,-3.9093,-3.8487,-3.8151,-3.62,-3.5144,-3.4571,0.0,0.0,0.0,0.0,0.0,0.0,0.0,0.0,0.0,0.0,0.0,0.0,0.0,0.0,0.0,0.0,0.0,0.0,0.0,0.0,0.0,0.0,0.0,0.0,0.0,0.0,0.0,0.0,0.0,0.0,0.0,0.0,0.0,0.0,0.0,0.0,0.0,0.0,0.0,0.0,0.0,0.0,0.0,0.0,0.0,0.0,-1.5512,-1.9923,-2.2904,-2.4124,-2.7963,-3.2228,-3.2756,-3.3715,-3.4929,-3.6255,-3.5876,-3.571,-3.8772,-3.9213,-3.9199,-4.0733,-4.1019,-4.0515,-3.8902,-3.8987,-3.8801,-3.6723,-3.6633,-3.6777,-3.6257,-3.7734,-4.0186,-4.3565,-4.6497,-5.0138,-5.5268,-5.6665,-5.7595,-5.8776,-5.9133,-5.9053,-5.8404,-5.7019,-5.6218,-5.6358,-5.3728,-5.3051,-5.5195,-5.3105,-5.082,-4.8555,-4.8203,-4.7437,-4.6105,-4.6046,-4.5873,-4.5586,-4.5586,-4.5586,-4.5586,-4.5586,-4.5568,-4.5437,-4.4011,0.0,-4.2102,-4.0759,-3.9375,-3.8083,-3.7808,-3.7294,-3.6564,-3.5372,-3.4498,-3.3793,0.0,0.0,0.0,0.0,0.0,0.0,0.0,0.0,0.0,0.0,0.0,0.0,0.0,0.0,0.0,0.0,0.0,0.0,0.0,0.0,0.0,0.0,0.0,0.0,0.0,-0.6888,-0.648,-0.6597,0.0,0.0095,0.1288,0.6132,0.8602,0.9058,1.1427,0.0,0.0,0.0,0.0,0.0,0.0,0.0,0.0,0.0,0.0,0.0,0.0,-2.2452,-2.2979,-2.312,-2.5935,-2.9577,-3.13,-3.2778,-3.3952,-3.4732,-3.508,-3.5613,-3.7741,-3.854,-3.9064,-4.0121,-4.0543,-4.0043,-3.7527,-3.7488,-3.7305,-3.4844,-3.5015,-3.5702,-3.6101,-3.762,-3.9896,-4.3198,-4.606,-4.9577,-5.4373,-5.5946,-5.7004,-5.8054,-5.778,-5.7203,-5.6395,-5.5284,-5.4633,-5.4679,-5.2528,-5.1812,-5.3203,-5.125,-4.9336,-4.7656,-4.7535,-4.6991,-4.5899,-4.5881,-4.5757,-4.5586,-4.5586,-4.5586,-4.5586,-4.5586,-4.5336,-4.4874,-4.3713,0.0,-4.1359,-3.9769,-3.8479,-3.7404,-3.6541,-3.5973,-3.5465,-3.411,-3.3385,-3.2911,0.0,0.0,0.0,0.0,0.0,0.0,0.0,0.0,-2.5341,-2.4869,-2.3337,-2.2269,-2.2184,-2.1553,0.0,0.0,0.0,0.0,0.0,0.0,0.0,0.0,0.0,0.0,0.0,0.0,0.0,-1.6914,-1.1709,0.0,0.0,0.0,0.0,0.0,-0.1188,-0.0933,-0.0307,0.0,0.0,0.0,0.0,-1.0273,0.0,0.0,0.0,0.0,0.0,-2.4588,-2.3748,-2.2918,-2.4121,-2.6371,-2.8691,-3.0865,-3.2665,-3.2898,-3.4098,-3.569,-3.6881,-3.8294,-3.9507,-4.0125,-4.05,-3.9878,-3.6682,-3.6508,-3.6292,-3.3743,-3.3938,-3.502,-3.6519,-3.7671,-3.9425,-4.2579,-4.509,-4.8216,-5.2845,-5.4468,-5.57,-5.7034,-5.6318,-5.5299,-5.4318,-5.353,-5.2949,-5.2608,-5.1217,-5.0445,-5.0586,-4.9336,-4.8223,-4.7344,-4.7324,-4.6881,-4.5959,-4.5916,-4.5817,-4.5651,-4.562,-4.5586,-4.5586,-4.5413,-4.4951,-4.4239,-4.3169,0.0,0.0,-3.9006,-3.7865,-3.7074,-3.5605,-3.488,-3.4586,-3.3167,-3.2477,-3.2082,0.0,0.0,0.0,0.0,0.0,0.0,0.0,0.0,-2.5317,-2.455,-2.278,-2.1416,-2.0931,-2.01,0.0,0.0,0.0,0.0,0.0,0.0,0.0,0.0,0.0,0.0,0.0,0.0,0.0,-1.9572,-1.8835,0.0,0.0,0.0,0.0,0.0,0.0,-1.2511,-0.984,-1.2794,0.0,0.0,0.0,0.0,0.0,0.0,0.0,0.0,0.0,-2.6594,-2.5278,-2.4359,-2.3924,-2.3929,-2.4675,-2.7728,-3.1096,-3.1486,-3.2898,-3.4865,-3.6768,-3.8239,-3.964,-4.1434,-4.1284,-4.0012,-3.739,-3.7455,-3.74,-3.5012,-3.5043,-3.6009,-3.7795,-3.7491,-3.8311,-4.2404,-4.3337,-4.5533,-5.1348,-5.2966,-5.4094,-5.5686,-5.5766,-5.5068,-5.3472,-5.2549,-5.1469,-5.0042,-4.8588,-4.781,-4.7949,-4.7793,-4.7324,-4.6445,-4.6426,-4.6303,-4.608,-4.5967,-4.5871,-4.5769,-4.5648,-4.5586,-4.5566,-4.4778,-4.4374,-4.4184,-4.2297,0.0,0.0,-3.8765,-3.7339,-3.6321,-3.5385,-3.4559,-3.3844,-3.3339,-3.2424,-3.1405,0.0,0.0,0.0,0.0,0.0,0.0,0.0,0.0,-2.493,-2.3239,-2.1652,-2.0177,-1.8922,-1.7774,0.0,0.0,0.0,0.0,0.0,0.0,0.0,0.0,0.0,0.0,0.0,0.0,-2.05,-2.1104,-2.167,0.0,0.0,0.0,0.0,0.0,0.0,-2.1634,-2.0399,-2.123,0.0,0.0,0.0,0.0,0.0,0.0,0.0,0.0,0.0,0.0,-2.7775,-2.6139,-2.5716,-2.5748,-2.4965,-2.6925,-2.9518,-2.9247,-3.1442,-3.4203,-3.5578,-3.824,-4.0799,-4.1412,-4.0719,-3.9379,-3.732,-3.6734,-3.6273,-3.4961,-3.539,-3.649,-3.8016,-3.7711,-3.8191,-4.1167,-4.2079,-4.3936,-4.8428,-5.0001,-5.1412,-5.3245,-5.3255,-5.2916,-5.2451,-5.1202,-4.9737,-4.815,-4.7563,-4.7111,-4.6719,-4.6775,-4.666,-4.6308,-4.6308,-4.6246,-4.6108,-4.5974,-4.5871,-4.5796,-4.5144,-4.4816,-4.4778,-4.3951,-4.3297,-4.272,-4.1387,0.0,0.0,-3.7431,-3.623,-3.5404,-3.4082,-3.3366,-3.2938,-3.1804,-3.108,-3.0525,0.0,0.0,0.0,0.0,0.0,0.0,-2.5376,-2.5143,-2.4243,-2.2199,-2.0439,-1.8858,-1.754,-1.6323,-1.6548,-1.8994,0.0,0.0,0.0,0.0,0.0,0.0,0.0,0.0,0.0,0.0,-2.1509,-2.267,-2.4015,-2.5412,0.0,0.0,-2.8124,-2.8695,0.0,0.0,0.0,0.0,0.0,0.0,0.0,0.0,0.0,0.0,0.0,0.0,0.0,0.0,0.0,0.0,0.0,-2.7603,-2.609,-2.6949,-2.8309,-2.7817,-3.0451,-3.3768,-3.4915,-3.8174,-4.1341,-4.1835,-4.0654,-3.9078,-3.7811,-3.6665,-3.5676,-3.5129,-3.6002,-3.7294,-3.8632,-3.8614,-3.907,-4.0989,-4.1765,-4.3198,-4.6322,-4.7652,-4.8995,-5.0886,-5.0852,-5.065,-5.0638,-4.9202,-4.7906,-4.7066,-4.689,-4.661,-4.6123,-4.5971,-4.6035,-4.6289,-4.6308,-4.6248,-4.615,-4.5754,-4.5531,-4.5464,-4.4442,-4.3951,-4.3912,-4.2816,-4.2008,-4.1354,-4.0239,0.0,0.0,-3.6132,-3.5044,-3.4147,-3.2797,-3.2247,-3.2096,-3.0876,-3.0178,-2.9682,0.0,0.0,0.0,0.0,0.0,0.0,0.0,0.0,-2.3188,-2.1696,-1.9296,-1.7585,-1.717,-1.6125,-1.6666,-1.9617,0.0,0.0,0.0,0.0,0.0,0.0,0.0,0.0,0.0,0.0,0.0,-2.4458,-2.662,-2.8487,-3.0065,-3.0604,-3.1205,-3.1777,0.0,0.0,0.0,0.0,0.0,0.0,0.0,0.0,0.0,0.0,0.0,0.0,0.0,0.0,0.0,0.0,0.0,0.0,0.0,-2.7473,-2.7793,-2.7588,-3.0176,-3.3558,-3.5214,-3.8009,-4.0937,-4.3128,-4.1527,-3.9374,-3.9286,-3.7783,-3.6274,-3.5869,-3.7124,-3.8652,-3.9968,-4.0453,-4.1136,-4.2472,-4.2693,-4.3464,-4.5608,-4.6335,-4.7223,-4.8833,-4.8964,-4.859,-4.7735,-4.6436,-4.6034,-4.6931,-4.6327,0.0,-4.6084,-4.5405,-4.541,-4.6269,-4.6308,-4.6308,-4.6308,-4.524,-4.4701,-4.4701,-4.3612,-4.3104,-4.3047,-4.1316,-4.0508,-4.0412,0.0,0.0,0.0,-3.5055,-3.3889,-3.2559,-3.1733,-3.1403,-3.1378,-3.1021,-3.0137,-2.9048,0.0,0.0,0.0,0.0,0.0,0.0,0.0,0.0,-2.1882,-1.9309,-1.7889,-1.6728,-1.5564,-1.5877,-1.7282,-2.0004,0.0,0.0,0.0,0.0,0.0,0.0,0.0,0.0,0.0,0.0,0.0,0.0,-2.7494,-2.9184,-3.0972,-3.0501,-3.0895,-3.1892,-3.0135,-2.9302,0.0,0.0,0.0,0.0,0.0,0.0,-3.3193,0.0,0.0,0.0,0.0,0.0,0.0,0.0,0.0,0.0,0.0,0.0,0.0,-3.0166,-3.0905,-3.2459,-3.4545,-3.723,-3.9798,-4.1537,-3.9928,-3.8074,-3.8792,-3.7025,-3.5437,-3.6199,-3.7689,-3.8958,-3.9369,-4.0417,-4.1312,-4.1791,-4.2314,-4.3083,-4.4106,-4.4849,-4.579,-4.7141,-4.818,-4.8602,-4.7989,-4.7069,-4.6371,-4.6073,-4.5357,-4.4955,-4.4997,-4.4387,-4.4464,-4.5371,-4.4824,-4.4512,-4.4512,-4.3541,-4.3007,-4.2911,-4.1315,-4.0549,-4.045,-3.9315,-3.8469,0.0,0.0,0.0,0.0,-3.3317,-3.2502,-3.1696,-3.0889,-3.0246,-2.9648,-2.871,-2.7637,-2.6596,0.0,0.0,0.0,0.0,0.0,0.0,0.0,0.0,-2.0348,-1.8104,-1.6961,-1.6198,-1.5745,0.0,0.0,0.0,0.0,0.0,0.0,0.0,0.0,0.0,0.0,0.0,0.0,0.0,0.0,0.0,0.0,0.0,-3.1383,-3.0795,-3.1033,-3.1904,-3.0472,-2.9734,0.0,0.0,0.0,0.0,0.0,0.0,-3.32,0.0,0.0,0.0,0.0,0.0,0.0,0.0,0.0,0.0,0.0,0.0,0.0,0.0,-3.279,-3.3153,-3.4326,-3.6513,-3.8826,-4.0374,-3.9161,-3.789,-3.8869,-3.7202,-3.5735,-3.6863,-3.8554,-3.9866,-3.9862,-4.1142,-4.2214,-4.225,-4.2668,-4.3233,-4.3866,-4.4378,-4.5081,-4.612,-4.683,-4.7213,-4.7165,-4.6701,-4.6047,-4.5182,-4.4733,-4.4356,-4.4027,-4.3123,-4.2884,-4.3471,-4.3319,-4.3066,-4.2754,-4.1797,-4.1256,-4.114,-3.9626,-3.8711,-3.8296,-3.745,-3.6584,0.0,0.0,0.0,0.0,-3.1504,-3.0635,-2.9531,-2.9035,-2.8539,-2.7999,-2.7073,-2.6215,-2.5455,0.0,0.0,0.0,0.0,0.0,0.0,0.0,0.0,0.0,0.0,0.0,-1.5973,-1.7295,0.0,0.0,0.0,0.0,0.0,0.0,0.0,0.0,0.0,0.0,0.0,0.0,0.0,0.0,-2.8688,-2.9883,-3.0788,-3.1398,0.0,-3.1535,-3.1942,-3.1083,-3.0322,0.0,0.0,0.0,0.0,0.0,0.0,0.0,0.0,0.0,0.0,0.0,0.0,0.0,0.0,0.0,0.0,0.0,0.0,0.0,0.0,0.0,0.0,0.0,-3.6063,-3.802,-3.9554,-3.9087,-3.847,-3.9364,-3.8066,0.0,-3.779,-3.9619,-4.1111,-4.1111,-4.2378,-4.3424,-4.3479,-4.3442,-4.3699,-4.4507,-4.4672,-4.4964,-4.5688,-4.5092,-4.4905,-4.5495,-4.551,-4.5145,-4.4355,-4.4254,-4.3847,-4.3046,-4.161,-4.0777,-4.0715,-4.1519,-4.1641,-4.1016,-3.9964,-3.9394,-3.9325,-3.8268,-3.7286,-3.6406,-3.5661,-3.4834,0.0,0.0,0.0,0.0,-2.9649,-2.8409,-2.6612,-2.6612,-2.6576,-2.646,-2.6077,-2.5654,-2.5296,0.0,0.0,0.0,0.0,0.0,0.0,0.0,0.0,0.0,0.0,0.0,0.0,0.0,0.0,0.0,0.0,0.0,0.0,0.0,0.0,0.0,0.0,0.0,0.0,0.0,0.0,0.0,-2.9677,-2.9415,-2.9981,-3.1307,-3.0543,0.0,0.0,-3.1356,0.0,0.0,0.0,0.0,0.0,0.0,0.0,0.0,0.0,0.0,0.0,-3.3706,-3.4384,0.0,0.0,0.0,0.0,0.0,0.0,0.0,0.0,-3.5968,-3.5832,-3.6445,0.0,-3.7383,-3.8932,-3.8487,-3.7951,0.0,-3.821,-3.7521,-3.8332,-3.9908,-4.1111,-4.1111,-4.1919,-4.2782,-4.3387,-4.2983,-4.2855,-4.3663,-4.4305,-4.4881,-4.5368,-4.5212,-4.5086,-4.522,-4.461,-4.425,-4.4299,-4.2518,-4.1335,-4.1142,-3.9743,-3.863,-3.7968,-3.7661,-3.8047,-3.9199,-3.7655,-3.6843,-3.6742,-3.5126,-3.4184,-3.3854,-3.3615,-3.3064,0.0,0.0,0.0,-2.8747,-2.8088,-2.7325,-2.6612,-2.6612,-2.6227,-2.5638,-2.5284,-2.4574,-2.3689,0.0,0.0,0.0,0.0,0.0,0.0,0.0,0.0,0.0,0.0,0.0,0.0,0.0,0.0,0.0,0.0,0.0,0.0,0.0,0.0,0.0,0.0,0.0,0.0,0.0,0.0,0.0,0.0,0.0,-3.0265,0.0,0.0,0.0,0.0,0.0,0.0,0.0,0.0,0.0,0.0,-3.043,0.0,0.0,0.0,0.0,0.0,-3.4157,-3.4836,0.0,-3.5611,-3.5577,-3.5558,0.0,0.0,0.0,0.0,-3.7522,-3.7903,-3.8267,-3.7782,-3.7468,-3.8774,-3.8638,-3.841,-3.928,-3.8711,-3.8096,-3.8291,-3.9316,-4.0172,-4.0172,-4.1119,-4.2172,-4.2839,-4.2892,-4.3002,-4.3424,-4.3864,-4.4294,-4.4656,-4.3998,-4.3755,-4.4223,-4.364,-4.3003,-4.243,-4.1209,-3.9988,-3.8815,-3.7672,-3.6681,-3.5884,-3.5142,-3.5427,-3.6797,-3.5488,-3.4761,-3.471,-3.3706,-3.2753,-3.1845,-3.1815,-3.1113,0.0,0.0,0.0,-2.7452,-2.6873,-2.6255,-2.5632,-2.5533,-2.5236,-2.4832,-2.4652,-2.4093,-2.3392,0.0,0.0,0.0,0.0,0.0,0.0,0.0,0.0,0.0,0.0,0.0,0.0,0.0,0.0,0.0,0.0,0.0,0.0,0.0,0.0,0.0,0.0,0.0,0.0,0.0,0.0,0.0,0.0,0.0,0.0,0.0,0.0,-3.1942,0.0,0.0,0.0,0.0,0.0,-3.0626,-3.1675,-3.0175,0.0,0.0,0.0,0.0,0.0,0.0,0.0,0.0,-3.557,-3.5611,-3.5611,-3.5675,0.0,0.0,0.0,0.0,0.0,-3.9732,-3.885,-3.8178,-3.8921,-3.8995,-3.9031,-3.9534,-3.9049,-3.835,-3.7877,-3.842,-3.9031,-3.9157,-4.0274,-4.1414,-4.2102,-4.2882,-4.3446,-4.3663,-4.3571,-4.3505,-4.3528,-4.2456,-4.196,-4.2617,-4.2344,-4.151,-4.0024,-3.9934,-3.8911,-3.6642,-3.5813,-3.5059,-3.4314,-3.3516,-3.3424,-3.4081,-3.3515,-3.3181,-3.3135,-3.2856,-3.189,-3.0335,-3.0186,-2.9303,-2.7902,0.0,0.0,-2.6263,-2.5934,-2.5305,-2.4478,-2.4266,-2.419,-2.419,-2.4151,-2.3937,-2.3631,0.0,0.0,0.0,0.0,0.0,0.0,0.0,0.0,0.0,0.0,0.0,0.0,0.0,0.0,0.0,0.0,0.0,0.0,0.0,0.0,0.0,0.0,0.0,0.0,0.0,0.0,0.0,0.0,0.0,0.0,-2.9923,-3.045,-3.1149,-3.1968,0.0,-3.2704,-3.1973,-3.168,-3.1285,-3.0875,-3.0545,0.0,0.0,0.0,0.0,0.0,0.0,0.0,0.0,-3.5504,-3.5611,-3.5611,-3.5675,0.0,0.0,0.0,0.0,0.0,-3.9811,-3.987,-3.9753,-3.9156,-3.8704,-3.8419,-3.8534,-3.7984,-3.7414,-3.7323,-3.7962,-3.8709,-3.9309,-3.9629,-4.0255,-4.167,-4.2429,-4.3213,-4.4344,-4.392,-4.3018,-4.1705,-4.1926,-4.1582,-3.997,-3.9914,-3.9719,-3.9128,-3.7977,-3.6815,-3.5738,-3.4925,-3.4139,-3.3352,-3.2596,-3.1909,-3.1328,-3.2029,-3.2383,-3.2342,-3.0823,-2.9923,-2.9616,-2.8766,-2.8227,-2.7939,0.0,-2.6622,-2.6238,-2.5348,-2.4798,-2.4478,-2.4266,-2.419,-2.417,-2.3876,-2.3735,-2.361,0.0,0.0,0.0,0.0,0.0,0.0,0.0,0.0,0.0,0.0,0.0,0.0,0.0,0.0,0.0,0.0,0.0,0.0,0.0,0.0,0.0,0.0,0.0,0.0,0.0,0.0,0.0,0.0,0.0,-2.9756,-2.9422,-3.0337,-3.1448,-3.2664,0.0,-3.3059,-3.2732,-3.2675,-3.2146,-3.1384,0.0,0.0,0.0,0.0,0.0,0.0,0.0,0.0,0.0,0.0,-3.551,-3.5696,-3.6274,0.0,0.0,0.0,0.0,0.0,-3.8565,-3.8751,-3.8849,-3.8117,-3.8491,-3.9023,-3.8901,-3.8608,-3.8188,-3.7486,-3.7656,-3.8006,-3.8356,-3.8783,-3.9656,-4.1503,-4.2021,-4.2386,-4.2849,-4.2596,-4.2066,-4.1207,-4.1038,-4.0473,-3.9061,-3.8734,-3.8254,-3.7354,-3.6379,-3.5335,-3.4147,-3.333,-3.252,-3.1727,-3.1403,-3.0864,-3.0069,-3.0543,-3.0566,-3.0078,-2.9255,-2.8582,-2.8079,-2.757,-2.7064,-2.6579,0.0,-2.5849,-2.5726,-2.5133,-2.4809,-2.4639,-2.4426,-2.4303,-2.4115,-2.3541,-2.2831,-2.2196,0.0,0.0,0.0,0.0,0.0,0.0,0.0,0.0,0.0,0.0,0.0,0.0,0.0,0.0,0.0,0.0,0.0,0.0,0.0,0.0,0.0,0.0,0.0,0.0,0.0,0.0,-3.0974,-3.0566,-2.9828,-2.9165,-2.862,-3.0114,-3.1426,-3.2584,0.0,-3.3106,-3.32,-3.3384,-3.2973,-3.2264,0.0,0.0,0.0,0.0,0.0,0.0,0.0,0.0,0.0,0.0,0.0,0.0,0.0,0.0,0.0,-3.7702,-3.7988,-3.7976,-3.7425,-3.7469,-3.7428,-3.6474,-3.7518,-3.8794,-3.8993,-3.862,-3.8148,-3.7665,-3.7404,-3.7391,-3.7558,-3.8267,-3.9406,-4.1305,-4.1578,-4.1623,-4.1677,-4.1538,-4.118,-4.0606,-3.9992,-3.9148,-3.7955,-3.734,-3.6534,-3.5302,-3.4775,-3.3929,-3.2595,-3.1808,-3.1025,-3.0202,-3.0047,-2.9624,-2.8883,-2.8937,-2.8749,-2.8301,-2.8086,-2.7615,-2.6919,-2.663,-2.6126,-2.5421,-2.5346,-2.5313,-2.5274,-2.5053,-2.4891,-2.4775,-2.4528,-2.421,-2.3841,-2.3235,-2.2187,-2.1164,0.0,0.0,0.0,0.0,0.0,0.0,0.0,0.0,0.0,0.0,0.0,0.0,0.0,0.0,0.0,0.0,0.0,0.0,0.0,0.0,0.0,0.0,0.0,0.0,0.0,-3.0415,-2.9344,-2.8145,-2.7368,-2.7133,-2.7451,-2.9129,-3.017,-3.0746,-3.2069,-3.285,-3.3226,-3.3729,-3.3615,-3.3124,-3.3258,0.0,0.0,0.0,0.0,0.0,0.0,0.0,0.0,0.0,0.0,0.0,0.0,0.0,-3.6639,-3.6697,-3.721,-3.7678,-3.7385,-3.7105,-3.6449,-3.4586,-3.5078,-3.6288,-3.7568,-3.6345,-3.5461,-3.7288,-3.718,-3.7004,-3.7739,-3.8461,-3.9416,-4.0828,-4.0995,-4.134,-4.2447,-4.1917,-4.0763,-3.9067,-3.8817,-3.7863,-3.5485,-3.4784,-3.4106,-3.3254,-3.2939,-3.239,-3.1455,-3.0823,-3.0102,-2.9239,-2.8539,-2.7808,-2.7001,-2.7069,-2.7492,-2.8281,-2.748,-2.7051,-2.6953,-2.6099,-2.5616,-2.5479,-2.5421,-2.5363,-2.5264,-2.4936,-2.4818,-2.476,-2.4375,-2.3768,-2.3088,-2.3033,-2.2465,-2.1661,0.0,0.0,0.0,0.0,0.0,0.0,0.0,0.0,0.0,0.0,0.0,0.0,0.0,0.0,0.0,0.0,0.0,0.0,0.0,0.0,0.0,0.0,0.0,-3.4257,-3.2238,-3.0734,-2.932,-2.7954,-2.6926,-2.6929,-2.7955,-2.9471,0.0,-3.2336,-3.3047,-3.3437,-3.3609,-3.441,-3.4138,-3.3286,-3.4355,-3.415,0.0,0.0,0.0,0.0,0.0,0.0,0.0,0.0,-3.4603,-3.4976,0.0,0.0,-3.5114,-3.5673,-3.5755,-3.5558,-3.5174,-3.552,-3.5453,-3.3262,-3.3551,-3.4619,-3.5618,-3.5887,-3.6075,-3.6389,-3.6943,-3.7481,-3.7829,-3.887,-3.9696,-3.9768,-3.9717,-3.9812,-4.0179,-3.9767,-3.8993,-3.7675,-3.7326,-3.6431,-3.4449,-3.3618,-3.2945,-3.23,-3.1808,-3.1244,-3.0532,-2.9909,-2.9217,-2.8371,-2.8124,-2.7598,-2.6747,-2.6852,-2.682,-2.6612,-2.6327,-2.6191,-2.6172,-2.5789,-2.5291,-2.4773,-2.5215,-2.4764,-2.3822,-2.4739,-2.4366,-2.3201,-2.2858,-2.2189,-2.1438,-2.1438,-2.0857,-2.0082,0.0,0.0,0.0,0.0,0.0,0.0,0.0,0.0,0.0,0.0,0.0,0.0,0.0,0.0,0.0,0.0,0.0,0.0,0.0,0.0,0.0,0.0,0.0,-3.4511,-3.2675,-3.1081,-2.9436,-2.7733,-2.6483,-2.6539,-2.7911,0.0,-3.0874,-3.2637,-3.2996,-3.3353,-3.3726,-3.4393,-3.4369,-3.3969,-3.521,-3.5003,0.0,0.0,0.0,0.0,0.0,0.0,0.0,0.0,-3.3645,0.0,0.0,0.0,0.0,0.0,-3.4611,-3.4599,-3.414,-3.4463,-3.4517,-3.2784,-3.2615,-3.3095,-3.4094,-3.5074,-3.5839,-3.6242,-3.6912,-3.7546,-3.7803,-3.8705,-3.9225,-3.8734,-3.8853,-3.8772,-3.8088,-3.7947,-3.7376,-3.5822,-3.5556,-3.4853,-3.3201,-3.232,-3.1704,-3.131,-3.0766,-3.015,-2.9532,-2.8912,-2.8269,-2.7505,-2.7276,-2.6865,-2.6289,-2.6398,-2.6178,-2.5601,-2.5662,-2.5703,-2.5684,-2.5361,-2.4882,-2.4311,-2.4516,-2.3922,-2.2889,-2.3976,-2.3545,-2.2178,-2.1946,-2.1303,-2.0503,-2.0503,-1.9908,-1.9158,0.0,0.0,0.0,0.0,0.0,0.0,0.0,0.0,0.0,0.0,0.0,0.0,0.0,0.0,0.0,0.0,0.0,0.0,0.0,0.0,0.0,0.0,0.0,-3.4032,-3.2346,-3.1189,-2.9486,-2.719,-2.5772,-2.5764,-2.7036,-2.8315,-2.9644,-3.0942,-3.1565,-3.2411,-3.3392,-3.3553,-3.4255,-3.5321,-3.5589,-3.5703,-3.5535,0.0,0.0,0.0,0.0,0.0,0.0,0.0,-3.1819,-3.2452,0.0,0.0,0.0,0.0,-3.3901,-3.5178,-3.4779,-3.4188,-3.3595,-3.3161,-3.2233,-3.1805,-3.3201,-3.3499,-3.4271,-3.7001,-3.7118,-3.6913,-3.7636,-3.7836,-3.7905,-3.7905,-3.8497,-3.835,-3.6619,-3.6768,-3.6096,-3.3484,-3.3514,-3.3146,-3.1531,-3.065,-3.0191,-3.0191,-2.9691,-2.9101,-2.8416,-2.7827,-2.7217,-2.661,-2.5755,-2.533,-2.5406,-2.5477,-2.5539,-2.5601,-2.5662,-2.5684,-2.5664,-2.4796,-2.4361,-2.4213,-2.3306,-2.2847,-2.2765,-2.2562,-2.2287,-2.199,-2.1971,-2.1361,-2.0484,-2.0484,-1.9987,-1.9243,0.0,0.0,0.0,0.0,0.0,0.0,0.0,0.0,0.0,0.0,0.0,0.0,0.0,0.0,0.0,0.0,0.0,0.0,0.0,0.0,0.0,0.0,0.0,0.0,0.0,0.0,-2.9597,-2.5943,-2.5893,-2.662,0.0,-2.9503,-3.0724,-3.1741,-3.2932,-3.3144,-3.2638,-3.3847,-3.4506,-3.48,-3.5444,-3.5761,-3.5669,0.0,0.0,0.0,0.0,0.0,0.0,0.0,0.0,0.0,0.0,0.0,0.0,-3.0504,-3.1792,-3.2993,-3.2731,-3.2638,-3.2545,-3.2011,-3.2017,-3.2402,-3.3306,-3.3499,-3.3894,-3.5288,-3.5033,-3.4952,-3.612,-3.6771,-3.7135,-3.7148,-3.684,-3.6243,-3.5197,-3.4098,-3.2985,-3.1991,-3.1268,-3.0763,-3.0571,-2.9843,-2.9365,-2.9365,-2.882,-2.8204,-2.7589,-2.6973,-2.6369,-2.5707,-2.5418,-2.5303,-2.533,-2.5447,-2.5503,-2.552,-2.5012,-2.4785,-2.4785,-2.4523,-2.3698,-2.2496,-2.2782,-2.219,-2.1034,-2.0814,-2.1037,-2.1436,-2.061,-2.0131,-1.9855,-1.9703,-1.9491,-1.9274,0.0,0.0,0.0,0.0,0.0,0.0,0.0,0.0,0.0,0.0,0.0,0.0,0.0,0.0,0.0,0.0,0.0,0.0,0.0,0.0,0.0,0.0,0.0,0.0,0.0,-3.2619,-3.0918,0.0,0.0,0.0,-2.9232,-3.0118,-3.106,-3.2087,-3.289,-3.2985,-3.2574,-3.3469,-3.4045,-3.4416,-3.5301,-3.5758,-3.5763,0.0,0.0,0.0,0.0,0.0,0.0,0.0,0.0,0.0,0.0,0.0,0.0,-2.8577,-3.03,-3.1889,-3.2376,-3.2428,-3.2394,-3.2796,-3.2672,-3.2691,-3.335,-3.3694,-3.3984,-3.418,-3.3702,-3.3505,-3.4362,-3.5052,-3.5528,-3.5525,-3.5318,-3.4709,-3.3372,-3.2385,-3.1376,-3.0269,-2.9815,-2.9572,-2.9478,-2.9179,-2.8888,-2.8558,-2.8199,-2.7567,0.0,-2.6325,-2.5869,-2.5201,-2.5264,-2.5303,-2.5303,-2.5434,-2.5493,-2.5493,-2.4756,-2.4238,-2.3906,-2.3547,-2.2759,-2.1718,-2.1816,-2.1266,-2.0285,-2.0161,-2.0375,-2.0707,-1.9981,-1.9649,-1.9587,-1.9365,-1.9305,-1.9289,0.0,0.0,0.0,0.0,0.0,0.0,0.0,0.0,0.0,0.0,0.0,0.0,0.0,0.0,0.0,0.0,0.0,0.0,0.0,0.0,0.0,0.0,0.0,0.0,0.0,0.0,0.0,0.0,0.0,0.0,-3.0457,-3.0386,-3.0939,-3.197,-3.1856,-3.2166,-3.2806,-3.2651,-3.3192,-3.4225,-3.512,-3.5653,-3.5806,-3.4874,0.0,0.0,0.0,0.0,0.0,0.0,0.0,0.0,-2.1827,-2.2951,-2.4843,-2.699,-2.9325,-3.1504,-3.3014,-3.2947,-3.2861,-3.4582,-3.3834,-3.2811,-3.335,-3.3858,-3.4023,-3.335,-3.2779,-3.2346,-3.2493,-3.3012,-3.3436,-3.3416,-3.3835,-3.3457,-3.1376,-3.1285,-3.0681,-2.8624,-2.9018,-2.917,-2.8448,-2.8773,-2.8686,-2.786,-2.7732,-2.7103,-2.5782,-2.5818,-2.5617,-2.5018,-2.5203,-2.5303,-2.5303,-2.5434,-2.545,-2.5377,-2.4638,-2.3867,-2.3047,-2.2198,-2.172,-2.1515,-2.0676,-2.03,-2.0312,-2.0312,-2.0197,-2.0012,-1.9869,-1.97,-1.9484,-1.9284,-1.9173,-1.9072,0.0,0.0,0.0,0.0,0.0,0.0,0.0,0.0,0.0,0.0,0.0,0.0,0.0,0.0,0.0,0.0,0.0,0.0,0.0,0.0,0.0,0.0,0.0,0.0,0.0,0.0,0.0,0.0,0.0,-3.1072,-3.1466,-3.0998,-3.0872,-3.1091,-3.1573,-3.1661,-3.1487,-3.2207,-3.3243,-3.4432,-3.4538,-3.5114,-3.5815,-3.4969,-3.4058,0.0,0.0,0.0,0.0,0.0,0.0,0.0,-2.0849,-2.2129,-2.4232,-2.6489,-2.8598,-3.0484,-3.1755,-3.2072,-3.2368,-3.3888,-3.4162,-3.3949,-3.3562,-3.2811,-3.1973,-3.1285,-3.0704,-3.0388,-3.0959,-3.1561,-3.1945,-3.1863,-3.1893,-3.1529,-3.048,-2.9369,-2.8613,-2.8401,-2.8323,-2.8308,-2.8386,-2.8773,-2.8686,-2.786,-2.7218,0.0,-2.5744,-2.5289,-2.5026,-2.4998,-2.5203,-2.5303,-2.5303,-2.5434,-2.5158,0.0,-2.3797,-2.3008,-2.2168,-2.1925,-2.1354,-2.0588,-2.0398,-2.0301,-2.0312,-2.0312,-2.0277,-2.0225,-2.0031,-1.9492,-1.8791,-1.8653,-1.8088,-1.7422,0.0,0.0,0.0,0.0,0.0,0.0,0.0,0.0,0.0,0.0,0.0,0.0,0.0,0.0,0.0,0.0,0.0,0.0,0.0,0.0,0.0,0.0,0.0,0.0,0.0,0.0,0.0,0.0,0.0,-3.2933,-3.2376,-3.2385,-3.2173,-3.1813,-3.204,-3.2222,-3.2362,-3.2656,-3.3441,-3.4536,-3.4839,-3.5331,-3.5832,-3.5332,-3.4496,-3.3478,-3.258,0.0,0.0,0.0,0.0,0.0,0.0,0.0,-2.4292,-2.6933,-2.8417,-2.9633,-3.1669,-3.2112,-3.2272,-3.3436,-3.4381,-3.4649,-3.2885,-3.1708,-3.0758,-2.9783,-2.934,-2.9155,-2.919,-2.9401,-2.9671,-2.9886,-2.9815,-2.9592,-2.9073,-2.8296,-2.7742,-2.7604,-2.7278,-2.7274,-2.7826,-2.7709,-2.7419,-2.6977,0.0,-2.5719,-2.5023,-2.4867,-2.4828,-2.4904,-2.516,-2.5322,-2.5346,-2.5453,-2.5074,-2.4241,-2.351,-2.248,-2.1289,-2.1202,-2.087,-2.0342,-2.0305,-2.0051,-1.9677,-1.9677,-1.9427,-1.9027,-1.8792,-1.8638,-1.8474,-1.7907,-1.7591,-1.7422,0.0,0.0,0.0,0.0,0.0,0.0,0.0,0.0,0.0,0.0,0.0,0.0,0.0,0.0,0.0,0.0,0.0,0.0,0.0,0.0,0.0,0.0,0.0,0.0,0.0,0.0,0.0,0.0,-3.5173,-3.482,-3.3697,-3.3841,-3.3574,-3.3029,-3.268,-3.2951,-3.3623,-3.3276,-3.365,-3.4564,-3.5192,-3.5613,-3.5849,-3.5661,-3.4898,-3.3925,-3.3895,-3.1814,-2.8787,-2.6695,0.0,0.0,0.0,0.0,-2.5002,-2.767,-2.8529,-2.9198,-3.185,-3.2482,-3.2643,-3.3446,-3.4489,-3.4651,-3.2095,-3.0958,-3.0165,-2.9134,-2.8643,-2.8248,-2.773,-2.7575,-2.7639,-2.8045,-2.7997,-2.7805,-2.7618,-2.7433,-2.7078,-2.6573,-2.621,-2.6311,-2.7026,-2.6507,-2.608,-2.6009,0.0,-2.5054,-2.4245,-2.4561,-2.476,-2.4804,-2.5084,-2.5293,-2.5406,-2.5321,-2.4873,-2.4076,-2.3122,-2.1934,-2.0605,-2.054,-2.048,-2.0418,-2.0206,-1.9689,-1.8994,-1.8838,-1.835,-1.7682,-1.7433,-1.766,-1.7982,-1.7059,-1.7045,-1.7353,0.0,0.0,0.0,0.0,0.0,0.0,0.0,0.0,0.0,0.0,0.0,0.0,0.0,0.0,0.0,0.0,0.0,0.0,0.0,0.0,0.0,0.0,-3.1948,0.0,0.0,0.0,0.0,0.0,-3.5621,-3.6367,-3.6423,-3.4424,-3.352,-3.3574,-3.2955,-3.2802,-3.3026,-3.3133,-3.3726,-3.4583,-3.4503,-3.4978,-3.5717,-3.5627,-3.5453,-3.5212,-3.5059,-3.3165,-3.0563,-2.9214,-2.7522,0.0,0.0,0.0,-2.6966,-2.7953,-2.8849,-2.9823,-3.1202,-3.2634,-3.3902,-3.4533,-3.4246,-3.3485,-3.22,-3.1131,-3.0386,-3.0196,-2.8858,-2.7679,-2.764,-2.7575,-2.7482,-2.7381,-2.6887,-2.6613,-2.6826,-2.5914,-2.5328,-2.5696,-2.545,-2.5542,-2.6294,-2.6205,-2.608,-2.6009,-2.5637,-2.5054,-2.4245,-2.4428,-2.4623,-2.479,-2.4956,-2.5166,-2.5398,-2.4727,-2.3992,-2.3235,-2.1677,-2.082,-2.0605,-2.0586,-2.0542,-2.0443,-1.9685,-1.9245,-1.9018,-1.821,-1.7811,-1.7689,-1.7603,-1.7101,-1.6394,-1.613,-1.5584,-1.4964,0.0,0.0,0.0,0.0,0.0,0.0,0.0,0.0,0.0,0.0,0.0,0.0,0.0,0.0,0.0,0.0,0.0,0.0,0.0,0.0,0.0,-3.2258,-3.1598,-3.1543,-3.2291,0.0,0.0,-3.409,-3.5181,-3.5931,-3.6378,-3.5678,-3.5689,-3.6221,-3.499,-3.4714,-3.5142,-3.433,-3.478,-3.601,-3.5468,-3.572,-3.6365,-3.5854,-3.5582,-3.5494,-3.5444,-3.4538,-3.3242,-3.2482,-3.1489,-3.056,-3.0141,0.0,0.0,0.0,-3.0338,-3.0221,-3.1378,-3.2897,-3.4132,-3.3967,-3.3862,-3.3472,-3.2291,-3.1501,-3.0891,-3.0288,-2.9195,-2.8276,-2.813,-2.7489,-2.6881,-2.6776,-2.589,-2.5495,-2.6225,-2.5423,-2.5011,-2.5544,-2.4743,-2.4435,-2.5189,-2.4601,-2.4385,0.0,-2.4599,-2.4281,-2.3935,-2.4284,-2.4591,-2.479,-2.4924,-2.5126,-2.5406,-2.4591,-2.3598,-2.2416,-2.1191,-2.0605,-2.0605,-2.0605,-2.0564,-2.0447,-1.9578,-1.8873,-1.8304,-1.7394,-1.6734,-1.6285,-1.6177,-1.6132,-1.6026,-1.544,-1.5188,-1.5093,0.0,0.0,0.0,0.0,0.0,0.0,0.0,0.0,0.0,0.0,0.0,0.0,0.0,0.0,0.0,0.0,0.0,0.0,0.0,0.0,0.0,-3.1756,-3.1411,-3.1351,-3.1623,0.0,0.0,-3.3602,-3.4327,-3.5088,-3.5846,-3.6365,-3.7218,-3.8248,-3.7001,-3.6693,-3.7001,-3.603,-3.6372,-3.7485,-3.6641,-3.657,-3.6897,-3.6013,-3.5591,-3.552,-3.555,-3.5418,-3.5168,-3.4863,-3.4547,-3.4239,-3.4036,-3.2945,0.0,0.0,0.0,-3.0443,-3.1524,-3.2732,-3.3595,-3.3159,-3.3431,-3.3487,-3.2342,-3.2004,-3.169,-3.0796,-3.0029,-2.938,-2.8898,-2.7384,-2.6187,-2.6158,-2.5068,-2.4576,-2.5652,-2.5141,-2.4757,-2.5078,-2.411,-2.3613,-2.4154,-2.3292,-2.3024,0.0,-2.378,-2.3692,-2.3692,-2.4173,-2.4545,-2.479,-2.4891,-2.5094,-2.5406,-2.4413,-2.313,-2.1562,-2.0918,-2.0605,-2.0605,-2.0605,-2.0447,-2.0144,-1.9261,-1.8348,-1.7422,-1.6554,-1.5809,-1.5183,-1.5049,-1.5337,-1.5706,-1.4971,-1.4984,-1.5282,0.0,0.0,0.0,0.0,0.0,0.0,0.0,0.0,0.0,0.0,0.0,0.0,-3.2368,-3.2476,-3.2374,-3.2166,0.0,0.0,0.0,0.0,0.0,-3.1773,-3.1411,0.0,-3.123,-3.2074,-3.2414,-3.221,-3.3129,-3.4279,-3.5621,-3.5774,-3.6735,-3.8305,-3.828,-3.7895,-3.7324,-3.8086,-3.8437,-3.8457,-3.7504,-3.7084,-3.689,-3.596,-3.5562,-3.5507,-3.5488,-3.5488,-3.5479,-3.5474,-3.527,-3.4899,-3.4075,-3.3182,-3.2279,0.0,0.0,0.0,-3.1356,-3.1814,-3.2121,-3.2524,-3.2932,-3.3072,-3.2422,-3.2563,-3.2732,-3.2413,-3.1731,-3.0886,-2.9929,-2.7381,-2.5462,-2.5462,-2.4435,-2.4032,-2.5105,-2.4591,-2.4032,-2.3818,-2.3572,-2.341,-2.3444,-2.3,-2.3024,0.0,-2.378,-2.3692,-2.3692,-2.4036,-2.4393,-2.479,-2.4804,-2.4998,-2.5398,-2.391,-2.2311,-2.0664,-2.0625,-2.0605,-2.0605,-2.0605,-2.0156,-1.9316,-1.837,-1.7472,-1.6583,-1.5711,-1.5294,-1.5183,-1.5049,-1.4984,-1.4943,-1.4756,-1.4651,-1.4531,0.0,0.0,0.0,0.0,0.0,0.0,0.0,0.0,0.0,0.0,0.0,0.0,0.0,-3.323,-3.318,-3.2756,-3.1752,0.0,0.0,0.0,0.0,-3.179,-3.1411,-3.119,-3.119,-3.2056,-3.2527,-3.2599,-3.298,-3.3652,-3.4511,-3.4601,-3.5085,-3.5918,-3.7004,-3.7695,-3.7995,-3.7799,-3.8373,-3.9355,-3.8455,-3.8323,-3.8512,-3.7055,-3.6405,-3.6276,-3.6276,-3.6276,-3.6372,-3.693,-3.6675,-3.6078,-3.5767,-3.424,-3.2251,-3.0633,-3.006,-3.0056,-3.0568,-3.0794,-3.1073,-3.1945,-3.2122,-3.2173,-3.2419,-3.2467,-3.234,-3.1946,-3.1203,-3.0331,-2.9232,-2.7823,-2.6497,-2.5555,-2.4702,-2.4225,-2.4617,-2.4053,-2.3787,-2.4341,-2.3918,-2.3543,-2.3397,-2.3238,-2.3067,0.0,0.0,-2.3141,-2.3369,-2.3692,-2.4098,-2.4591,-2.4731,-2.4491,-2.3804,-2.2746,-2.1639,-2.0539,-2.0585,-2.0605,-2.0605,-2.0562,-1.9759,-1.8373,-1.8057,-1.7413,-1.6528,-1.5656,-1.526,-1.5209,-1.5146,-1.5038,-1.4895,-1.4859,-1.4606,-1.4222,0.0,0.0,0.0,0.0,0.0,0.0,0.0,0.0,0.0,0.0,0.0,0.0,0.0,0.0,-3.4564,-3.3746,-3.3048,-3.2828,-3.3306,-3.226,-3.1741,-3.1946,-3.1487,-3.119,-3.119,0.0,0.0,0.0,0.0,-3.3116,-3.3731,-3.3504,-3.366,-3.4165,-3.5018,-3.6343,-3.7912,-3.7695,-3.8478,-3.9762,-3.8925,-3.9,-3.9473,-3.8318,-3.7569,-3.718,-3.7469,-3.7392,-3.7204,-3.7667,-3.7333,-3.6685,-3.6592,-3.4671,-3.2093,-3.0237,-2.9689,-2.9709,-3.0004,-3.0153,-3.0468,-3.1268,-3.1531,-3.1704,-3.2127,-3.2264,-3.2193,-3.1804,-3.1085,-3.02,-2.9268,-2.8494,-2.74,-2.5552,-2.4792,-2.4348,-2.4158,-2.3856,-2.3842,-2.4269,-2.4032,-2.3587,-2.2988,-2.3059,-2.2849,0.0,0.0,0.0,-2.3021,-2.3477,-2.3835,-2.4148,-2.4374,-2.382,-2.2488,-2.1923,-2.127,-2.0508,-2.0541,-2.0566,-2.0564,-2.0223,-1.9277,-1.7881,-1.7585,-1.6963,-1.6117,-1.5532,-1.526,-1.5189,-1.5189,-1.5085,-1.4904,-1.4904,-1.4598,-1.408,0.0,0.0,0.0,0.0,0.0,0.0,0.0,0.0,0.0,-3.1817,0.0,0.0,0.0,0.0,0.0,-3.5165,-3.5779,-3.5508,-3.3739,-3.3651,-3.3263,-3.2354,0.0,0.0,0.0,0.0,0.0,0.0,0.0,0.0,0.0,0.0,-3.2581,-3.3299,-3.2524,-3.3925,-3.6936,-3.7888,-3.8853,-3.9641,-3.8923,-3.9058,-3.9668,-3.9626,-3.8955,-3.818,-3.8988,-3.8757,-3.7997,-3.7693,-3.7206,-3.6675,-3.6283,-3.4338,-3.1863,-3.0167,-2.9533,-2.9456,0.0,0.0,0.0,-3.053,-3.1184,-3.1714,-3.1521,-3.1981,-3.2378,-3.2178,-3.1478,-3.0696,-3.0116,-2.9352,-2.8003,-2.5504,-2.4737,-2.4266,-2.3724,-2.4074,-2.4116,-2.3427,-2.3777,-2.3558,-2.2189,-2.2411,-2.2325,0.0,-2.2252,-2.2669,-2.2695,-2.3346,-2.3637,-2.3488,-2.3651,-2.3064,-2.1611,-2.1559,-2.1192,-2.0506,-2.0469,-2.0467,-2.043,-1.9555,-1.8681,-1.7819,-1.6953,-1.6094,-1.5298,-1.5298,-1.526,-1.5189,-1.5189,-1.5066,-1.4895,-1.4895,-1.4598,-1.4036,0.0,0.0,0.0,0.0,0.0,0.0,0.0,0.0,-3.3894,0.0,0.0,0.0,-3.6123,-3.6352,-3.6362,-3.5983,-3.5485,-3.4989,-3.4482,-3.3859,-3.314,-3.233,-3.2611,-3.2544,0.0,0.0,0.0,0.0,0.0,0.0,0.0,0.0,0.0,0.0,-3.1429,-3.2257,-3.3923,-3.5533,-3.7572,-3.9699,-3.9587,-4.0285,-4.1288,-4.0069,-3.9682,-3.9758,-3.9411,-3.9142,-3.9027,-3.9503,-3.877,-3.7141,-3.4238,-3.2694,-3.1549,-2.9734,-2.916,-2.9181,-2.9438,0.0,0.0,0.0,0.0,0.0,-3.0864,-3.1023,-3.117,-3.1067,-3.08,-3.0521,-3.02,-2.9532,-2.8617,-2.7374,-2.6483,-2.5505,-2.4333,-2.4307,-2.4312,-2.4101,-2.4231,-2.3934,-2.2872,-2.2884,0.0,0.0,-2.1774,-2.213,-2.2669,-2.3346,-2.3597,-2.3363,-2.2886,-2.2246,-2.1387,-2.0906,-2.0589,-2.0409,-1.9831,-1.9568,-1.9536,-1.8654,-1.7764,-1.6864,-1.6638,-1.6022,-1.5229,-1.5279,-1.5196,-1.5068,-1.5068,-1.4931,-1.4756,-1.4756,-1.4426,-1.3787,0.0,0.0,0.0,0.0,0.0,0.0,0.0,0.0,-3.5824,0.0,0.0,0.0,-3.8681,-3.8475,-3.8065,-3.7476,-3.6924,-3.6256,-3.5475,-3.4668,-3.3894,-3.3262,-3.3034,-3.2882,-3.2747,0.0,0.0,0.0,0.0,0.0,0.0,0.0,0.0,0.0,0.0,-3.1072,-3.1876,-3.348,-3.5862,-3.8619,-3.9088,-4.0403,-4.2038,-4.1424,-4.1338,-4.1508,-4.1046,-4.0642,-4.0338,-4.0353,-3.912,-3.7048,-3.3734,-3.2292,-3.1443,-2.9687,-2.9089,-2.9089,-2.9435,-2.9639,-2.9836,-3.0221,0.0,0.0,-3.0128,-3.0114,-3.0095,-3.0126,-3.0062,-2.9943,-2.9747,-2.9025,-2.8367,-2.8049,-2.7468,-2.6593,-2.5196,-2.4641,-2.4389,-2.4389,-2.3994,-2.3385,-2.2574,-2.2404,-2.197,-2.1119,-2.1383,-2.1903,-2.2669,-2.3189,-2.3195,-2.2582,-2.2312,-2.1733,-2.0765,-2.0454,-2.0158,-1.9862,-1.9753,-1.9328,-1.8635,-1.8139,-1.7396,-1.6488,-1.6121,-1.5676,-1.5195,-1.524,-1.5157,-1.4995,-1.4995,-1.4881,-1.4707,-1.4707,-1.4368,-1.3683,0.0,0.0,0.0,0.0,0.0,0.0,0.0,0.0,0.0,0.0,-3.9314,-3.9937,-4.1508,-4.1354,-4.0565,-3.9265,-3.9157,-3.836,-3.6547,-3.5832,-3.5177,-3.4532,-3.3305,-3.2933,-3.3508,0.0,0.0,0.0,0.0,0.0,0.0,0.0,0.0,0.0,0.0,0.0,-3.0688,-3.187,-3.414,-3.7033,-3.8005,-3.9875,-4.2174,-4.2838,-4.3039,-4.2931,-4.2854,-4.2299,-4.1443,-4.0292,-3.8624,-3.6632,-3.4235,-3.2735,-3.157,-2.9967,-2.9329,-2.9204,-2.957,-2.9678,-2.981,-3.0323,-2.978,0.0,-2.9429,-2.9277,-2.9132,-2.9333,-2.9273,-2.9123,-2.8943,-2.8184,-2.7685,-2.7919,-2.7916,-2.7464,-2.6168,-2.5191,-2.457,-2.4496,-2.3427,-2.2428,-2.1754,-2.1416,-2.0987,-2.0361,-2.1102,-2.1903,-2.2669,-2.3021,-2.2722,-2.1644,-2.198,-2.1532,-2.0116,-2.0246,-1.9935,-1.9251,-1.9823,-1.9337,-1.7888,-1.7696,-1.717,-1.6319,-1.5537,-1.5189,-1.5189,-1.5189,-1.5121,-1.4992,-1.4992,-1.4865,-1.4677,-1.4648,-1.4332,-1.3683,-2.9426,0.0,0.0,0.0,0.0,0.0,0.0,0.0,-3.9607,-4.0577,-4.0689,-4.1061,-4.2069,-4.153,-4.0784,-4.0041,-3.9634,-3.8805,-3.7369,-3.6798,-3.5909,-3.4539,-3.4793,-3.4759,-3.4303,-3.4134,0.0,0.0,0.0,0.0,0.0,0.0,0.0,0.0,0.0,0.0,-3.0663,-3.177,-3.3926,-3.6694,-3.7852,-3.9843,-4.2049,-4.144,-4.1564,-4.197,-4.1258,-4.0758,-4.0253,-3.9058,-3.7826,-3.6465,-3.4629,-3.3295,-3.2145,-3.0525,-3.0018,-2.9895,-2.9541,-2.957,-2.9763,-3.0037,-2.9648,0.0,-2.9316,-2.885,-2.8415,-2.8515,-2.8461,-2.8392,-2.8361,-2.7943,-2.7617,-2.7666,-2.7808,-2.771,-2.7171,-2.633,-2.5549,-2.4968,-2.3569,-2.2428,-2.1754,-2.1158,-2.0673,-2.0342,-2.1102,-2.1903,-2.2669,-2.3021,-2.2923,-2.2323,-2.2235,-2.1751,-2.0807,-2.047,-2.025,-2.0134,-1.8897,-1.8161,-1.7856,-1.6447,-1.5702,-1.5526,-1.5306,-1.5189,-1.5189,-1.5189,-1.508,-1.4919,-1.4919,-1.4766,-1.4522,-1.4368,-1.4131,-1.3669,-3.1032,0.0,0.0,0.0,0.0,0.0,0.0,0.0,-4.0928,-4.2139,-4.2304,-4.2331,-4.2504,-4.2159,-4.1522,-4.0648,-3.9979,-3.9242,-3.8288,-3.7347,-3.6451,-3.5673,-3.5267,-3.5064,-3.5064,-3.4692,-3.4542,0.0,0.0,0.0,0.0,0.0,0.0,0.0,0.0,-3.056,-3.0779,-3.2195,-3.3914,-3.5849,-3.7568,-3.9782,-4.1994,-4.154,-4.1807,-4.2319,-4.1276,-4.0463,-3.974,-3.8968,-3.7817,-3.6547,-3.5544,-3.4031,-3.2375,-3.1146,-3.0503,-2.9987,-2.9015,-2.9233,-2.9557,-2.896,-2.8691,0.0,0.0,-2.7723,-2.7468,-2.753,-2.753,-2.7497,-2.7497,-2.6951,-2.6644,-2.7071,-2.7117,-2.7168,-2.7433,-2.6695,-2.5963,-2.5503,-2.3565,-2.2055,-2.1553,-2.0722,-2.0216,-2.0311,-2.091,-2.1565,-2.213,-2.283,-2.2922,-2.2268,-2.2229,-2.1813,-2.1023,-2.0528,-2.0109,-1.9741,-1.8877,-1.8055,-1.7261,-1.6407,-1.5733,-1.5299,-1.526,-1.5229,-1.5189,-1.5189,-1.5073,-1.4904,-1.4904,-1.4746,-1.4476,-1.427,-1.4065,-1.3655,-3.2524,-3.3794,0.0,0.0,0.0,0.0,0.0,0.0,-4.1727,-4.3296,-4.341,-4.3178,-4.275,-4.2616,-4.2133,-4.1221,-4.0435,-3.976,-3.9257,-3.7956,-3.7077,-3.6789,-3.5605,-3.5148,-3.5605,-3.503,-3.484,0.0,0.0,0.0,0.0,0.0,0.0,0.0,0.0,-3.1391,-3.1137,-3.259,-3.4037,-3.5499,-3.7327,-3.9456,-4.1505,-4.1673,-4.2088,-4.2456,-4.1341,-4.0347,-3.9419,-3.8939,-3.7846,-3.6567,-3.6177,-3.4578,-3.2651,-3.1678,-3.0944,-3.0097,-2.8533,-2.8727,-2.911,-2.7894,-2.7592,-2.7428,0.0,0.0,0.0,-2.6534,-2.6549,-2.6549,-2.6549,-2.5886,-2.557,-2.6279,0.0,0.0,0.0,-2.664,0.0,-2.5841,-2.3607,-2.1924,-2.1541,-2.0594,-2.0081,-2.0296,-2.0842,-2.1295,-2.1598,-2.2609,-2.2905,-2.224,-2.2382,-2.2058,-2.1237,-2.0776,-2.0128,-1.9348,-1.9173,-1.8342,-1.6934,-1.6771,-1.6185,-1.5293,-1.5303,-1.526,-1.5189,-1.5177,-1.5059,-1.4904,-1.4904,-1.4746,-1.4464,-1.4245,-1.4038,-1.3655,-3.272,-3.4162,-3.5734,0.0,0.0,0.0,0.0,0.0,-4.1869,-4.3316,-4.3105,-4.2788,-4.2711,-4.2203,-4.1921,-4.1973,-4.1249,-4.0535,-4.0036,-3.9208,-3.8159,-3.684,-3.662,-3.6231,-3.5639,-3.5537,-3.5209,-3.4575,0.0,0.0,0.0,0.0,0.0,0.0,-3.0434,-3.0891,-3.1885,-3.2316,-3.4223,-3.6991,-3.7487,-3.8469,-3.9762,-4.0419,-4.0731,-4.071,-4.0034,-3.9513,-3.9014,-3.8014,-3.7106,-3.6213,-3.5404,-3.4468,-3.3366,-3.1843,-3.1329,-3.0796,-2.8682,-2.8184,-2.8165,-2.7714,-2.7026,-2.6519,-2.6666,0.0,-2.557,-2.5634,0.0,-2.5649,-2.5649,0.0,0.0,-2.5271,-2.5704,-2.6161,-2.6483,-2.6249,-2.5907,-2.5579,-2.4111,-2.2894,0.0,-2.1566,-2.0895,-2.0361,-2.13,-2.1811,-2.1615,-2.2609,-2.3153,-2.3065,-2.3248,-2.2938,-2.2077,-2.1588,-2.0985,-2.0231,-1.9469,-1.8654,-1.7832,-1.7044,-1.6185,-1.5293,-1.5303,-1.526,-1.5189,-1.5075,-1.4981,-1.4904,-1.4904,-1.4746,-1.4453,-1.4065,-1.3927,-1.3613,-3.3227,-3.4506,-3.5723,0.0,0.0,0.0,0.0,0.0,0.0,-4.3032,-4.3262,-4.3122,-4.2432,-4.2121,-4.1846,-4.1594,-4.1271,-4.0813,-4.0121,-3.9411,-3.8717,-3.8091,-3.7669,-3.7077,-3.6315,-3.6299,-3.5926,-3.5148,-3.3981,0.0,0.0,0.0,0.0,0.0,-3.0673,-3.1081,-3.1906,-3.2379,-3.3852,-3.5919,-3.7127,-3.8183,-3.9154,-4.0127,-4.0283,-3.9888,-3.9164,-3.859,-3.8024,0.0,-3.6248,0.0,-3.5716,-3.4541,-3.2981,-3.2284,-3.1439,-3.0289,-2.8418,-2.838,-2.8483,-2.6881,-2.6666,-2.6612,-2.5779,-2.5306,-2.5061,-2.5088,0.0,0.0,0.0,0.0,0.0,0.0,-2.503,-2.5246,0.0,0.0,-2.5426,-2.56,0.0,0.0,0.0,0.0,0.0,0.0,-2.11,-2.1376,-2.126,-2.2283,-2.2968,-2.3189,-2.3396,-2.3069,-2.2214,-2.1771,-2.1165,-2.0391,-1.9555,-1.8752,-1.7969,-1.7102,-1.6185,-1.5293,-1.5303,-1.526,-1.5183,-1.5068,-1.4965,-1.4895,-1.4813,-1.4595,-1.4241,-1.3525,-1.3186,-1.2822,-3.383,-3.4775,-3.5706,-3.6108,0.0,0.0,0.0,0.0,-4.2987,-4.2727,-4.2925,-4.2835,-4.2146,-4.194,-4.1766,-4.148,-4.1275,-4.0852,-4.0071,-3.9543,-3.9059,-3.8673,-3.8383,-3.7753,-3.6806,-3.6772,-3.64,-3.5622,-3.4134,0.0,0.0,0.0,0.0,0.0,-3.0707,-3.101,-3.1921,-3.2237,-3.361,-3.5687,-3.6965,-3.8023,-3.8937,-3.9996,-3.9929,-3.9184,-3.8512,-3.7776,-3.7037,-3.6211,-3.5532,0.0,-3.5477,-3.4229,-3.2577,-3.2339,-3.1292,-2.9806,-2.797,0.0,-2.8103,-2.5912,-2.592,-2.618,-2.5054,-2.4804,-2.4804,-2.4804,-2.4804,0.0,0.0,0.0,-2.4716,-2.4716,0.0,-2.4543,-2.4885,-2.4892,-2.5035,-2.5453,0.0,0.0,0.0,0.0,0.0,-2.1154,-2.1388,-2.1454,-2.1197,-2.2101,-2.2803,-2.3189,-2.3474,-2.3176,-2.2214,-2.1962,-2.1365,-2.0391,-1.9562,-1.8755,-1.7969,-1.7102,-1.6185,-1.5293,-1.5303,-1.526,-1.5183,-1.504,-1.4942,-1.4867,-1.4474,-1.4102,-1.3728,-1.304,-1.2534,-1.1906,-3.4434,-3.5054,-3.6057,-3.7456,-3.7836,0.0,0.0,-4.1296,-4.1437,-4.2537,-4.17,-4.1296,-4.1998,-4.1579,-4.148,-4.2138,-4.1478,-4.0671,-3.9927,-3.9854,-3.9249,-3.792,-3.8573,-3.8278,-3.6806,-3.6772,-3.64,-3.5622,-3.4134,0.0,0.0,0.0,0.0,0.0,-3.0008,-3.0418,-3.2083,-3.1765,-3.3916,-3.7485,-3.7288,-3.7887,-3.8994,0.0,-3.9428,-3.8388,-3.8041,0.0,0.0,-3.5349,-3.5009,0.0,0.0,0.0,0.0,0.0,0.0,0.0,0.0,0.0,0.0,-2.4908,0.0,0.0,0.0,0.0,-2.4804,-2.4804,-2.4804,-2.4804,-2.4804,-2.4639,-2.4512,-2.4512,-2.4339,0.0,0.0,-2.4805,-2.4859,-2.5008,-2.4649,0.0,0.0,-2.3844,-2.3329,-2.1864,-2.255,-2.2592,-2.1615,-2.2279,-2.2848,-2.3189,-2.3712,-2.3412,-2.2214,-2.2379,-2.1776,-2.0391,-1.9527,-1.8715,-1.7969,-1.7102,-1.6185,-1.5293,-1.5303,-1.526,-1.5177,-1.4995,-1.4904,-1.4802,-1.3743,-1.3134,-1.2837,-1.2806,-1.2144,-1.108,-3.4531,-3.5081,-3.5864,-3.6905,-3.7498,-3.8757,-4.1568,-4.1858,-4.2271,-4.3594,-4.3432,-4.3305,-4.3558,-4.2948,-4.2459,-4.207,-4.1332,-4.045,-3.9262,-3.9151,-3.9008,-3.8541,-3.8791,-3.8739,-3.8261,-3.8244,-3.7635,-3.6383,-3.5368,0.0,0.0,0.0,0.0,0.0,0.0,-2.991,-3.0764,-3.1903,-3.4041,-3.6739,-3.8211,-3.8835,-3.8917,0.0,-3.8471,-3.7186,-3.6547,-3.5932,0.0,-3.4486,-3.3862,-3.3366,-3.3091,-3.21,-3.0962,-3.0687,-3.0044,0.0,0.0,0.0,-2.7482,-2.6215,0.0,0.0,0.0,0.0,0.0,0.0,0.0,-2.441,-2.441,-2.4339,-2.4303,-2.4303,-2.4247,-2.4284,0.0,-2.479,-2.5033,-2.53,-2.5085,-2.509,0.0,0.0,0.0,-2.2891,-2.2694,-2.2443,-2.1943,-2.2152,-2.2583,-2.3165,-2.371,-2.3708,-2.3069,-2.2737,-2.2122,-2.1243,-2.0419,-1.93,-1.7988,-1.7659,-1.6697,-1.5293,-1.5245,-1.5218,-1.5177,-1.4976,-1.4554,-1.3979,-1.3484,-1.2534,-1.1402,-1.1308,-1.0901,-1.0224,-3.4846,-3.518,-3.5856,-3.6896,-3.7936,-3.9294,-4.1354,-4.1992,-4.2515,-4.3323,-4.3526,-4.3558,-4.3464,-4.2851,-4.2086,-4.1195,-4.0719,-3.9739,-3.806,-3.8259,-3.8289,-3.8076,-3.8154,-3.8023,-3.7834,-3.807,-3.7349,-3.5622,-3.5363,-3.4292,0.0,0.0,0.0,0.0,0.0,-2.9124,-2.9905,-3.1359,-3.3468,-3.5988,-3.7965,-3.8499,0.0,0.0,-3.7081,-3.6199,0.0,-3.4829,-3.4055,-3.355,-3.2834,-3.2173,-3.2173,-3.1274,-3.021,-3.021,-2.9641,-2.8842,-2.8169,-2.7779,0.0,-2.5756,-2.5185,0.0,-2.4174,0.0,-2.4054,0.0,0.0,0.0,-2.419,-2.419,-2.419,-2.419,-2.419,-2.4266,0.0,-2.4812,-2.5124,-2.5324,-2.5332,-2.5507,-2.6001,-2.534,-2.4575,-2.3823,-2.3159,-2.2688,0.0,0.0,-2.2485,-2.3165,-2.3538,-2.364,-2.3498,-2.2802,-2.2197,-2.1686,-2.0552,-1.93,-1.7988,-1.7614,-1.6667,-1.5293,-1.5241,-1.5189,-1.5164,-1.4642,-1.4298,-1.3942,-1.2873,-1.1908,-1.1089,-1.0652,-1.0048,-0.9274,-3.5504,-3.5554,-3.6085,-3.7531,-3.9065,-4.0303,-4.0832,-4.1648,-4.2129,-4.1937,-4.2119,-4.2146,-4.1933,-4.1326,-4.0562,-3.9749,-3.9637,-3.8698,-3.6633,-3.7174,-3.7265,-3.6646,-3.6701,-3.6414,-3.5774,-3.644,-3.5762,-3.3637,-3.4231,-3.3812,0.0,0.0,0.0,0.0,-2.7752,-2.8196,-2.9551,-3.0299,-3.2449,-3.5478,-3.6676,-3.6953,-3.6572,-3.577,-3.5416,-3.5293,-3.5008,-3.389,-3.2596,-3.2559,-3.2008,-3.1329,-3.1329,-3.0754,-3.0112,-3.0033,-2.9502,-2.8479,-2.6584,-2.6056,-2.5607,-2.3726,0.0,0.0,0.0,0.0,-2.3795,0.0,0.0,0.0,0.0,-2.419,-2.419,-2.419,-2.419,-2.4266,-2.4461,-2.4848,-2.5091,-2.5091,-2.5336,-2.5468,-2.5412,-2.5298,-2.5051,-2.4652,-2.3989,-2.3426,0.0,0.0,-2.2632,-2.3165,-2.3189,-2.3327,-2.3573,-2.266,-2.2045,-2.174,-2.0009,-1.8751,-1.7969,-1.7066,-1.6178,-1.5293,-1.5241,-1.5189,-1.5126,-1.4095,-1.4098,-1.4528,-1.1965,-1.1287,-1.166,-1.0759,-0.9561,-0.8296,-3.5359,-3.643,-3.7354,-3.7764,-3.9065,-4.0307,-4.1002,-4.1201,-4.1666,-4.2783,-4.2818,-4.2573,-4.1915,-4.1236,-4.0277,-3.8879,-3.8258,-3.7586,-3.6537,-3.6661,-3.6706,-3.6585,-3.6188,-3.6069,-3.6517,-3.6685,-3.6257,-3.5136,-3.5253,-3.4118,-3.1819,0.0,0.0,0.0,0.0,-2.8576,-2.9605,-3.1339,-3.3731,-3.6377,-3.669,-3.6427,-3.577,0.0,-3.4381,-3.3331,-3.3246,-3.2963,-3.2522,-3.1916,-3.1164,-3.0455,-3.0155,-2.9515,-2.8696,-2.7913,-2.753,-2.7128,-2.604,-2.5569,-2.5156,-2.4297,-2.3917,-2.3649,0.0,0.0,0.0,0.0,0.0,0.0,0.0,0.0,-2.419,-2.419,-2.419,-2.4266,-2.4461,-2.4723,-2.4917,-2.5019,-2.5252,-2.5449,-2.5468,-2.5437,-2.5311,-2.4982,-2.4989,-2.452,0.0,0.0,0.0,-2.3224,-2.3189,-2.3619,-2.4469,-2.2956,-2.2326,-2.2559,-2.0886,-1.9305,-1.7919,-1.7682,-1.6745,-1.5293,-1.5241,-1.5189,-1.5158,-1.4737,-1.3966,-1.2964,-1.2113,-1.1049,-0.9929,-0.9577,-0.9004,-0.8348,-3.5359,-3.6477,-3.7279,-3.7279,-3.8505,-3.9785,-4.0541,-4.0565,-4.0772,-4.1594,-4.1612,-4.1272,-4.0431,-3.9749,-3.8819,-3.7683,-3.721,-3.6731,-3.6103,-3.5774,-3.5672,-3.5675,-3.4789,-3.4593,-3.5363,-3.5384,-3.5184,-3.474,-3.4667,-3.3562,-3.1472,0.0,0.0,0.0,0.0,-2.8058,-2.8817,-3.1296,-3.3553,-3.5432,-3.5237,-3.511,0.0,-3.4026,-3.3019,-3.2017,-3.1492,-3.1289,-3.1217,-3.0761,-2.9984,-2.9104,-2.8559,-2.8067,-2.7495,-2.6552,-2.6269,-2.6065,-2.5156,-2.476,-2.4441,-2.3658,-2.3342,-2.3158,-2.3003,-2.3117,-2.3282,0.0,0.0,0.0,0.0,0.0,-2.419,-2.419,-2.419,-2.4247,-2.4339,-2.4545,-2.4697,-2.4762,-2.5077,-2.5277,-2.5327,-2.543,-2.5429,-2.5247,-2.5094,0.0,0.0,0.0,0.0,-2.3206,-2.3189,-2.371,-2.479,-2.3069,-2.2437,-2.2875,-2.1192,-1.9731,-1.8457,-1.8075,-1.7157,-1.5841,-1.5395,-1.5171,-1.5076,-1.4551,-1.3971,-1.3311,-1.2382,-1.1117,-0.9763,-0.9289,-0.8807,-0.8361,-3.5504,-3.6117,-3.6615,-3.6615,-3.7647,-3.8734,-3.9512,-3.9785,-3.9818,-3.9497,-3.9555,-3.9272,-3.8292,-3.7629,-3.7,-3.6282,-3.6222,-3.5938,-3.528,-3.4681,-3.4307,-3.4218,-3.3036,-3.2654,-3.3228,-3.3298,-3.3322,-3.3343,-3.3292,-3.2631,0.0,0.0,0.0,0.0,-2.7036,-2.7254,-2.8049,-3.0756,-3.2578,-3.3606,-3.3146,-3.3376,-3.3844,-3.2367,-3.1494,-3.0965,-2.9914,-2.9521,-2.9503,-2.9413,-2.8711,-2.7756,-2.6967,-2.6737,-2.656,-2.5579,-2.5314,-2.5103,-2.4058,-2.3786,-2.3549,-2.2547,-2.231,-2.236,-2.2599,-2.2669,-2.2797,-2.3117,-2.3477,-2.3714,0.0,0.0,-2.419,-2.419,-2.419,-2.419,-2.419,-2.4375,-2.4495,-2.4495,-2.4835,0.0,-2.5101,-2.5333,-2.5476,-2.542,0.0,0.0,0.0,0.0,0.0,-2.3189,-2.3189,0.0,-2.4723,0.0,-2.2437,-2.2875,-2.1192,-1.9984,-1.9161,-1.8292,-1.7416,-1.6547,-1.5594,-1.5127,-1.493,-1.4092,-1.4043,-1.435,-1.2605,-1.1347,-1.0433,-0.9602,-0.8942,-0.8396,-3.5359,-3.6117,-3.6615,-3.6615,-3.6831,-3.7218,-3.7887,-3.8933,-3.9474,-3.8859,-3.8689,-3.8181,-3.7008,-3.6716,-3.6148,-3.4936,-3.4831,-3.4547,-3.3888,-3.3739,-3.3425,-3.2886,-3.2123,-3.169,-3.1766,-3.1842,-3.2095,-3.2619,-3.2521,-3.2127,0.0,0.0,0.0,0.0,-2.7208,-2.7757,-2.9349,-3.0847,0.0,-3.2692,-3.2001,-3.1791,-3.1827,-3.095,-3.0125,-2.9461,-2.9265,-2.9176,-2.9087,-2.8418,-2.806,-2.7699,-2.6656,-2.6295,-2.5959,-2.4276,-2.3779,-2.3596,-2.2824,-2.2609,-2.2547,-2.2344,-2.231,-2.231,-2.2377,-2.2537,-2.2797,-2.3117,-2.3477,-2.3795,-2.4074,0.0,0.0,0.0,-2.419,-2.419,-2.419,-2.4375,-2.4495,-2.4495,-2.4708,-2.4911,-2.5081,-2.5333,-2.5507,-2.5482,0.0,0.0,0.0,0.0,0.0,0.0,-2.3189,0.0,0.0,0.0,-2.2437,-2.2875,-2.1192,-1.9984,-1.916,-1.8299,-1.7413,-1.6547,-1.5555,-1.5069,-1.498,-1.4634,-1.4127,-1.345,-1.2452,-1.1486,-1.0645,-1.0482,-0.9704,-0.8676,-3.5279,-3.5782,-3.6054,-3.6054,-3.6344,0.0,0.0,-3.7557,-3.7861,-3.7542,-3.7164,-3.6656,-3.6043,-3.5654,-3.5175,-3.4532,-3.4158,-3.3694,-3.3036,-3.2662,-3.2183,-3.1495,-3.0851,-3.0658,-3.1006,-3.0956,-3.1417,-3.2467,-3.1951,-3.178,-3.1817,0.0,0.0,-2.8503,-2.7532,-2.7811,0.0,0.0,0.0,-3.1282,-3.1105,-3.081,-3.0372,-2.9618,-2.8722,-2.7834,-2.7665,-2.7203,-2.6753,-2.6935,-2.6864,-2.6493,-2.5146,-2.4744,-2.4491,-2.3214,-2.2835,-2.275,-2.2412,-2.231,-2.231,-2.231,-2.231,-2.231,-2.231,-2.2415,-2.2563,-2.2873,-2.3212,-2.3606,-2.4094,-2.3917,0.0,0.0,0.0,0.0,-2.417,-2.4284,-2.4339,-2.4339,-2.4528,-2.4723,-2.4917,-2.5155,-2.5356,-2.5488,-2.6082,0.0,0.0,0.0,0.0,0.0,0.0,0.0,0.0,0.0,0.0,-2.2875,-2.1192,-2.0218,-1.9825,-1.8491,-1.7679,-1.7193,-1.5697,-1.5002,-1.4933,-1.4688,-1.4327,-1.3838,-1.296,-1.2095,-1.1252,-1.0706,-0.9845,-0.8917,-3.4706,-3.4854,-3.4854,-3.4854,-3.5333,-3.5754,-3.5971,-3.5867,-3.5948,-3.6447,-3.5789,-3.5295,-3.5295,-3.4681,-3.4203,-3.4068,-3.3455,-3.2796,-3.2123,-3.148,-3.0821,-3.0133,-2.9639,-2.9637,-3.0142,-3.0037,-3.0523,-3.1609,-3.1224,0.0,0.0,0.0,0.0,0.0,0.0,0.0,0.0,0.0,-2.9863,-3.0164,-3.0127,-2.9644,-2.8902,-2.8094,-2.716,-2.6215,-2.5918,-2.5274,-2.4605,-2.5365,-2.5501,-2.5135,-2.3816,-2.3393,-2.3257,-2.253,-2.231,-2.231,-2.231,-2.231,-2.231,-2.231,-2.231,-2.231,-2.231,-2.231,-2.2388,-2.2634,-2.2972,-2.3369,-2.3896,-2.3566,0.0,0.0,0.0,0.0,0.0,-2.4151,-2.4113,-2.419,-2.4375,-2.4575,-2.4775,0.0,0.0,0.0,0.0,0.0,0.0,0.0,0.0,0.0,0.0,-2.4394,-2.5158,0.0,-2.2505,0.0,-2.1221,-2.0438,-2.0477,-1.8896,-1.8081,-1.78,-1.6015,-1.5082,-1.4813,-1.4589,-1.4488,-1.4433,-1.3694,-1.2913,-1.21,-1.1248,-1.0379,-0.9617,-3.282,-3.289,-3.289,0.0,0.0,-3.3255,-3.4113,-3.3801,-3.4141,-3.6246,-3.537,-3.4562,-3.4562,-3.3978,-3.335,-3.2751,-3.2093,-3.142,-3.0731,-3.0118,-2.9475,-2.8801,-2.8727,-2.8692,-2.8713,-2.8683,-2.8715,-2.878,-2.9861,-3.0137,0.0,0.0,0.0,0.0,0.0,0.0,0.0,-2.8285,-2.8812,-2.9983,-2.8623,-2.764,-2.6877,-2.6148,-2.537,-2.4709,-2.4672,-2.4605,-2.4421,-2.3858,-2.4066,-2.4441,-2.3646,-2.3393,-2.3257,-2.253,-2.231,-2.231,-2.231,-2.231,-2.231,-2.231,-2.231,-2.231,-2.231,-2.231,-2.2388,-2.2634,-2.2972,-2.3212,-2.3277,-2.3236,-2.3323,0.0,0.0,0.0,0.0,-2.3937,-2.3876,-2.417,-2.4375,-2.4575,-2.4775,-2.5707,0.0,0.0,-2.5971,0.0,0.0,0.0,0.0,-2.5369,0.0,-2.5346,-2.5721,-2.3632,-2.2713,-2.2975,-2.1239,-2.0472,-2.0566,-1.954,-1.8642,-1.7838,-1.6612,-1.5498,-1.4533,-1.4499,-1.4488,-1.4488,-1.4414,-1.3882,-1.3159,-1.3065,-1.2328,-1.137,0.0,0.0,0.0,0.0,0.0,0.0,0.0,-3.2688,-3.3056,-3.448,-3.4218,-3.3739,-3.3335,-3.2706,-3.2048,-3.1375,-3.0731,-3.0073,-2.94,-2.8742,-2.8083,-2.7425,-2.7006,-2.6774,-2.676,-2.7088,-2.7297,0.0,0.0,0.0,0.0,0.0,0.0,0.0,0.0,-2.7519,-2.7951,-2.7861,-2.7984,-2.8215,-2.7466,-2.6708,-2.5964,-2.522,-2.4475,-2.3833,-2.3833,-2.3545,-2.3139,-2.2835,-2.3224,-2.3697,-2.297,-2.275,-2.2682,-2.2395,-2.231,-2.231,-2.231,-2.231,-2.231,-2.231,-2.231,-2.231,-2.231,-2.231,-2.2388,-2.2634,-2.2822,-2.2972,-2.3165,-2.2908,-2.2824,0.0,0.0,0.0,0.0,0.0,-2.378,-2.406,-2.4319,-2.4604,-2.4904,-2.5786,0.0,0.0,0.0,0.0,0.0,0.0,0.0,-2.6763,0.0,-2.5437,-2.6329,-2.3895,-2.2797,-2.3033,-2.1285,-2.0511,-2.0547,-1.9085,-1.7563,-1.608,-1.5621,-1.5067,-1.4488,-1.4488,-1.4488,-1.4488,-1.4375,-1.3906,-1.3277,-1.3075,-1.2419,-1.1653,-3.1159,0.0,-3.1168,0.0,-3.0683,-3.0883,-3.1335,-3.1282,-3.1516,-3.2446,-3.2452,-3.2317,-3.2243,-3.1629,-3.0956,-3.0298,-2.9475,-2.8786,-2.8323,-2.747,-2.6782,-2.6318,-2.5854,0.0,-2.5615,-2.6032,-2.6135,-2.5935,-2.7205,0.0,0.0,0.0,0.0,0.0,-2.7148,-2.6964,-2.7024,-2.7328,-2.7205,-2.6759,-2.6488,-2.5795,-2.4898,-2.4357,-2.3714,-2.3071,-2.3071,-2.275,-2.231,-2.231,-2.2649,-2.2987,-2.2462,-2.231,-2.231,-2.231,-2.231,-2.231,-2.231,-2.231,-2.231,-2.231,-2.231,-2.231,-2.231,-2.231,-2.2332,-2.2537,-2.2573,-2.2652,-2.2908,-2.2598,-2.2453,-2.2972,0.0,0.0,0.0,-2.3392,-2.366,-2.3949,-2.4348,-2.4714,-2.4967,-2.581,0.0,0.0,0.0,0.0,0.0,0.0,0.0,0.0,0.0,0.0,0.0,-2.3993,-2.2784,-2.2708,-2.1208,-2.0521,-2.0505,-1.8665,-1.6891,-1.5252,-1.4963,-1.4707,-1.4488,-1.4488,-1.4464,-1.4399,-1.4307,-1.3986,-1.353,-1.3297,-1.2796,-1.2318,-2.8122,-2.8122,-2.8122,-2.8122,-2.8109,-2.8448,-2.9381,-2.9106,-2.9178,-3.0222,-2.9938,-3.0118,-3.1347,-3.0926,-3.0268,-2.9639,-2.8368,-2.764,-2.7625,-2.6363,-2.563,0.0,0.0,-2.5615,-2.5615,-2.5615,-2.5285,-2.4642,0.0,0.0,-2.557,0.0,-2.7033,-2.6334,-2.6875,-2.682,-2.6326,-2.6597,-2.6453,-2.5999,-2.5698,-2.4746,-2.3427,-2.341,-2.297,-2.2327,-2.2327,-2.231,-2.231,-2.231,-2.231,-2.2327,-2.231,-2.231,-2.231,-2.231,-2.231,-2.231,-2.231,-2.231,-2.231,-2.231,-2.231,-2.231,-2.231,-2.231,-2.231,-2.231,-2.231,-2.231,-2.231,-2.231,-2.2388,-2.266,0.0,0.0,0.0,-2.3189,-2.3383,-2.393,-2.4471,-2.4846,-2.4991,-2.5844,0.0,0.0,0.0,0.0,0.0,0.0,0.0,-2.6726,-2.6489,0.0,-2.5406,-2.3875,-2.2654,-2.1808,-2.0915,-2.0506,-2.0447,-1.8494,-1.7056,-1.6036,-1.5113,-1.4624,-1.4488,-1.4488,-1.4387,-1.4214,-1.4411,-1.4375,-1.4201,-1.417,-1.4047,-1.3774,-2.7544,-2.7243,-2.6854,-2.6465,-2.6389,-2.6713,-2.7782,-2.7838,-2.824,-2.966,-2.9268,-2.8891,-2.8846,-2.8637,-2.8248,0.0,-2.6737,-2.6243,0.0,-2.4986,-2.4448,-2.4881,-2.3655,-2.3355,-2.4223,-2.3819,-2.3714,-2.3924,0.0,0.0,0.0,-2.5873,-2.5884,-2.5681,-2.5847,-2.5373,-2.4476,-2.4826,-2.4642,-2.3997,-2.3736,-2.3522,-2.3296,-2.2491,-2.2233,-2.2254,-2.1928,-2.1823,-2.1823,-2.1823,-2.1645,-2.1462,-2.1735,-2.2032,-2.231,-2.231,-2.231,-2.231,-2.231,-2.231,-2.231,-2.231,-2.1921,-2.1684,-2.2192,-2.231,-2.2175,-2.1651,-2.1955,-2.231,-2.231,-2.231,-2.2321,-2.2398,-2.2349,0.0,-2.2544,0.0,-2.3542,-2.3894,-2.4568,-2.5071,-2.5253,-2.5967,0.0,0.0,0.0,0.0,0.0,0.0,0.0,0.0,-2.6481,0.0,-2.5546,-2.3968,-2.2715,-2.1795,-2.0915,-2.0155,-1.9506,-1.8189,-1.7049,-1.6054,-1.5113,-1.4552,-1.4307,-1.4453,-1.4387,-1.4219,-1.427,-1.4257,-1.4175,-1.4038,-1.3654,-1.3109,-2.6352,-2.6076,-2.5724,-2.5372,-2.531,-2.5486,-2.5954,-2.6244,-2.672,-2.7563,-2.755,-2.7305,-2.6871,-2.6617,0.0,-2.6243,-2.5615,-2.5241,-2.5241,-2.3984,-2.3445,-2.3879,-2.2488,-2.2069,-2.2862,0.0,0.0,-2.2892,-2.3325,-2.3691,-2.3998,-2.3998,-2.3998,-2.4039,-2.4174,-2.3738,-2.293,-2.3563,-2.3291,-2.241,-2.2458,-2.2486,-2.2424,-2.1671,-2.1568,-2.1781,-2.1658,-2.1582,-2.1582,-2.1582,-2.143,-2.1244,-2.1337,-2.1584,-2.1886,-2.2209,-2.218,-2.2032,-2.2032,-2.2032,-2.2032,-2.2032,-2.1827,-2.1735,-2.2209,-2.209,-2.1837,-2.1651,-2.1989,-2.231,-2.231,-2.231,-2.2237,-2.2077,-2.218,-2.2293,-2.2215,0.0,-2.3649,0.0,0.0,0.0,0.0,-2.5649,-2.5844,0.0,0.0,0.0,0.0,0.0,0.0,-2.7167,-2.6152,0.0,-2.4631,-2.3652,-2.253,-2.1272,-2.0711,-1.9966,-1.9074,-1.8316,-1.7295,-1.6054,-1.537,-1.4738,-1.4201,-1.435,-1.427,-1.4078,-1.4175,-1.4149,-1.4051,-1.3818,-1.3355,-1.2715,-2.4644,-2.4619,-2.4594,0.0,-2.4594,0.0,-2.3966,-2.4548,-2.4861,-2.4459,-2.4968,-2.5418,-2.548,-2.4852,-2.4627,-2.5285,0.0,0.0,0.0,-2.3266,-2.2562,-2.2649,-2.1934,-2.1605,-2.1695,-2.165,-2.165,-2.1695,-2.1695,-2.1695,-2.1695,-2.1695,-2.1695,-2.1734,-2.2164,-2.2072,-2.1699,-2.2629,-2.2311,-2.1279,-2.1766,-2.16,-2.0991,-2.0959,-2.0959,-2.1023,-2.1399,-2.1521,-2.1521,-2.1521,-2.1491,-2.1399,-2.1055,-2.0959,-2.1134,-2.1945,-2.1899,-2.1552,-2.1552,-2.1552,-2.1552,-2.1582,-2.1957,-2.2276,-2.2175,-2.1684,-2.1448,-2.209,-2.2276,-2.231,-2.231,-2.231,-2.2152,-2.1688,-2.2003,-2.226,-2.2152,0.0,-2.3747,0.0,0.0,0.0,0.0,-2.5052,-2.4896,0.0,0.0,0.0,0.0,0.0,-2.7347,-2.5664,-2.5605,-2.4795,-2.3105,-2.3099,-2.2193,-2.0383,-2.0336,-1.9895,-1.9148,-1.8716,-1.766,-1.6149,-1.5751,-1.5049,-1.4175,-1.4175,-1.4051,-1.3881,-1.4038,-1.398,-1.3782,-1.3504,-1.3074,-1.2441,0.0,0.0,-2.2284,-2.2284,-2.2284,-2.2452,-2.2838,-2.3067,-2.3566,-2.4511,-2.3879,-2.3567,-2.4029,-2.3071,-2.2458,-2.2607,-2.2936,-2.3131,-2.3131,-2.1904,-2.1395,-2.1904,-2.0782,-2.0647,-2.168,-2.1201,-2.1201,-2.1695,-2.1695,-2.1695,-2.1695,-2.1695,-2.1695,-2.1695,-2.1838,-2.1512,-2.0946,-2.1182,-2.1013,-2.0547,-2.0683,-2.084,-2.0959,-2.0583,-2.0682,-2.0959,-2.0715,-2.0601,-2.0601,-2.0601,-2.0382,-2.0174,-2.0382,-2.0483,-2.0583,-2.115,-2.1229,-2.115,-2.115,-2.115,-2.1213,-2.1521,-2.1957,-2.1978,-2.0795,-2.1329,-2.1921,-2.1532,-2.1904,-2.231,-2.231,-2.231,-2.2152,-2.1688,-2.2003,-2.2309,-2.2323,-2.3129,0.0,0.0,-2.5071,-2.5367,-2.5477,-2.5062,-2.5199,0.0,0.0,0.0,0.0,-2.6919,-2.6736,-2.5702,-2.5682,-2.5137,-2.3991,-2.3402,-2.2159,-2.0316,-2.0314,-2.0111,-1.9741,-1.8336,-1.7403,-1.6851,-1.5246,-1.4324,-1.3969,-1.3969,-1.3838,-1.3639,-1.3258,-1.3019,-1.2808,-1.2584,-1.1891,-1.1046,-2.1933,-2.1694,-2.1493,-2.1493,-2.1493,-2.1559,-2.1714,-2.176,-2.2035,-2.2842,-2.23,-2.2119,-2.2685,-2.2113,-2.1695,-2.1695,-2.2024,-2.2218,-2.2218,-2.1276,-2.0872,-2.1231,-2.0243,-2.0034,-2.0767,-2.0423,-2.0423,-2.0782,-2.0782,-2.0782,-2.0782,-2.0782,-2.0782,-2.0782,-2.0782,-2.0572,-2.0243,-2.0243,-2.015,-2.0035,-2.0035,-2.0174,-2.0379,-2.0139,-2.0174,-2.0413,-2.0314,-2.0314,-2.0314,-2.0314,-2.0158,-1.9965,-2.0,-2.0035,-2.007,-2.0345,-2.0532,-2.0682,-2.0682,-2.0682,-2.0781,-2.1213,-2.1545,-2.1596,-2.0883,-2.1278,-2.1786,-2.1718,-2.2023,-2.231,-2.231,-2.2106,-2.1899,-2.1658,-2.1953,-2.2307,-2.2586,-2.3451,0.0,-2.4859,-2.5176,-2.5376,-2.5453,-2.5051,-2.5095,-2.5803,-2.5643,0.0,-2.6006,-2.6174,-2.6091,-2.5703,-2.5311,-2.4656,-2.3709,-2.2457,-2.1272,-2.0154,-2.0148,-1.9878,-1.9333,-1.8329,-1.736,-1.6434,-1.5134,-1.4214,-1.3615,-1.3487,-1.3376,-1.3243,-1.2963,-1.2681,-1.244,-1.2373,-1.1628,-1.0627,-2.1004,-2.1054,-2.1091,-2.1004,-2.0991,-2.084,-2.0363,-2.0373,-2.0457,-2.0635,-2.0627,-2.0843,-2.1466,-2.1455,-2.1395,-2.1395,-2.1395,-2.144,-2.1545,-2.0932,-2.0557,-2.0557,-1.9989,-1.969,-1.969,-1.969,-1.969,-1.969,-1.969,-1.969,-1.969,-1.969,-1.969,-1.969,-1.969,-1.969,-1.969,-1.969,-1.969,-1.969,-1.969,-1.969,-1.969,-1.969,-1.969,-1.9747,-2.0089,-2.0227,-2.0227,-2.0227,-2.0227,-2.0158,-1.9818,-1.969,-1.969,-1.969,-1.9929,-2.0227,-2.0227,-2.0314,-2.0516,-2.0991,-2.116,-2.1248,-2.1479,-2.1278,-2.1194,-2.1837,-2.2057,-2.2141,-2.2141,-2.189,-2.1688,-2.1628,-2.1915,-2.2365,-2.2864,0.0,-2.452,-2.5081,-2.5245,-2.5321,-2.5379,-2.5027,-2.4799,-2.4827,-2.4676,-2.4622,0.0,-2.4949,-2.5141,-2.5292,-2.4718,-2.3876,-2.2801,-2.1249,-2.0312,-1.9993,-1.9993,-1.9495,-1.8572,-1.8291,-1.725,-1.5619,-1.5017,-1.4169,-1.321,-1.2898,-1.2755,-1.2685,-1.2571,-1.2325,-1.2049,-1.2109,-1.1442,-1.0369,-1.8807,-1.9095,-1.9258,-1.8794,-1.8719,-1.8681,-1.8606,-1.8601,-1.8947,-1.9935,-1.9571,-1.9624,-2.0742,-2.0348,-1.9989,-1.9989,-1.9989,-2.0243,-2.0827,-2.0228,-1.9854,-1.9854,-1.975,-1.969,-1.969,-1.969,-1.969,-1.969,-1.969,-1.969,-1.969,-1.969,-1.969,-1.969,-1.969,-1.969,-1.969,-1.969,-1.969,-1.969,-1.969,-1.969,-1.969,-1.969,-1.969,-1.9726,-1.9782,-1.9782,-1.9782,-1.9782,-1.9782,-1.9782,-1.9711,-1.969,-1.969,-1.969,-1.9747,-1.9782,-1.9782,-2.0345,-2.0991,-2.1399,-2.1333,-2.1211,-2.1258,-2.0702,-2.0204,-2.0322,-2.0906,-2.1363,-2.1363,-2.1815,-2.2061,-2.1658,-2.2186,-2.2726,-2.3092,0.0,-2.4563,-2.5269,-2.5311,-2.5321,-2.5379,-2.5027,-2.4566,-2.403,-2.3709,-2.3396,-2.309,-2.31,-2.3257,-2.3501,-2.4024,-2.3539,-2.1921,-2.1513,-2.0877,-1.9993,-1.9993,-1.9454,-1.8391,-1.7529,-1.6531,-1.5393,-1.4112,-1.3295,-1.2835,-1.2387,-1.2066,-1.1748,-1.1112,-1.0678,-1.0386,-1.0446,-0.9818,-0.8972,-1.8317,-1.8643,-1.8857,-1.8304,-1.8204,-1.8204,-1.8204,-1.7953,-1.806,-1.89,-1.8448,-1.8358,-1.9223,-1.9269,-1.9281,-1.9281,-1.953,-1.9824,-2.0139,-1.9854,-1.969,-1.969,-1.969,-1.969,-1.969,-1.969,-1.969,-1.969,-1.969,-1.969,-1.969,-1.969,-1.969,-1.969,-1.969,-1.969,-1.969,-1.969,-1.969,-1.969,-1.969,-1.969,-1.969,-1.969,-1.969,-1.969,-1.969,-1.969,-1.969,-1.969,-1.969,-1.969,-1.969,-1.969,-1.969,-1.969,-1.9839,-2.0035,-2.0035,-2.0649,-2.1306,-2.1275,-2.1247,-2.1097,-2.0659,-2.0287,-1.9934,-1.9762,-2.0514,-2.1204,-2.1204,-2.1603,-2.1928,-2.1957,-2.2334,0.0,0.0,-2.4113,-2.4761,-2.5274,-2.4946,-2.4667,-2.4709,-2.4017,-2.3448,-2.3171,-2.2981,-2.2791,-2.2652,-2.2759,-2.2671,-2.2351,-2.2241,-2.1597,-2.0313,-2.0199,-1.9605,-1.8545,-1.902,-1.8377,-1.6765,-1.63,-1.5418,-1.4211,-1.343,-1.2757,-1.2179,-1.1812,-1.1358,-1.087,-1.0545,-1.0089,-0.9642,-0.987,-0.928,-0.8413,-1.7928,-1.8254,-1.8468,-1.7903,-1.7815,-1.7815,-1.7815,-1.7451,-1.7384,-1.7925,-1.7602,-1.7504,-1.8027,-1.8458,-1.8765,-1.8893,-1.9281,-1.9566,-1.969,-1.969,-1.969,-1.969,-1.969,-1.969,-1.969,-1.969,-1.969,-1.969,-1.969,-1.969,-1.969,-1.969,-1.969,-1.969,-1.969,-1.969,-1.969,-1.969,-1.969,-1.969,-1.9566,-1.953,-1.953,-1.953,-1.953,-1.953,-1.9639,-1.969,-1.969,-1.969,-1.969,-1.969,-1.969,-1.969,-1.969,-1.969,-1.9893,-2.0082,-2.0082,-2.0639,-2.1122,-2.0667,-2.0533,-2.0381,-1.9764,-1.9568,-1.9428,-1.9168,-1.9941,-2.0729,-2.0873,-2.1234,-2.1699,-2.222,0.0,0.0,0.0,-2.4209,-2.4625,-2.4975,-2.4293,-2.3793,-2.3746,-2.2953,-2.2376,-2.2205,-2.2133,-2.2068,-2.1953,-2.2153,-2.202,-2.1468,-2.0779,-2.0063,-1.9364,-1.9263,-1.8648,-1.7479,-1.8148,-1.7386,-1.5328,-1.5243,-1.4452,-1.316,-1.2775,-1.2187,-1.1468,-1.1093,-1.0575,-0.9945,-0.9856,-0.9393,-0.8797,-0.9148,-0.8585,-0.7646,-1.676,-1.7112,-1.7325,-1.6735,-1.6647,-1.6647,-1.6647,-1.6609,-1.6786,-1.7295,-1.7338,-1.7504,-1.8027,-1.8145,-1.838,-1.8855,-1.893,-1.9169,-1.969,-1.969,-1.969,-1.969,-1.969,-1.969,-1.969,-1.969,-1.969,-1.969,-1.969,-1.969,-1.969,-1.969,-1.969,-1.969,-1.969,-1.969,-1.969,-1.969,-1.969,-1.9639,-1.9169,-1.8968,-1.8968,-1.8968,-1.8968,-1.9006,-1.953,-1.969,-1.969,-1.969,-1.969,-1.969,-1.969,-1.969,-1.969,-1.969,-1.9588,-1.9463,-1.9463,-1.9799,-1.9961,-1.9299,-1.8871,-1.8574,-1.8522,-1.8226,-1.7957,-1.7918,-1.8532,-1.9283,-1.9951,-2.0711,-2.1454,-2.2164,0.0,0.0,-2.3746,-2.3689,-2.374,-2.413,-2.3417,-2.2853,-2.2726,-2.2481,-2.194,-2.0998,-2.0938,-2.0656,-2.0047,-2.0257,-2.0495,-2.0683,-2.0492,-2.0303,-2.0113,-2.0003,-1.9298,-1.8037,-1.8111,-1.7073,-1.5107,-1.4742,-1.3938,-1.28,-1.2095,-1.1446,-1.0823,-1.0182,-0.9522,-0.8869,-0.8513,-0.7865,-0.7221,-0.7598,-0.7016,-0.606,-1.6635,-1.6986,-1.72,-1.6622,-1.6522,-1.6522,-1.6522,-1.6522,-1.6552,-1.6795,-1.6795,-1.6879,-1.7076,-1.7394,-1.7706,-1.7907,-1.8224,-1.8496,-1.8688,-1.8688,-1.8855,-1.9207,-1.9207,-1.9207,-1.9207,-1.9207,-1.9369,-1.969,-1.969,-1.969,-1.969,-1.9369,-1.9207,-1.9207,-1.8855,-1.8893,-1.9169,-1.8855,-1.8893,-1.9169,-1.8612,-1.8419,-1.8458,-1.8765,-1.8893,-1.8968,-1.953,-1.969,-1.969,-1.969,-1.969,-1.969,-1.969,-1.969,-1.96,-1.9196,-1.9067,-1.8931,-1.8298,-1.8724,-1.9332,-1.907,-1.8545,-1.8028,-1.7839,-1.7631,-1.7432,-1.7216,-1.8109,-1.8978,-1.9266,-1.9942,-2.0568,-2.0812,0.0,-2.1872,-2.215,-2.2526,-2.2861,-2.3148,-2.2469,-2.1968,-2.1923,-2.1407,-2.0851,-2.0342,-1.9922,-1.9535,-1.92,-1.9426,-1.988,-2.0519,-2.0441,-2.0074,-1.9408,-1.905,-1.8329,-1.722,-1.6976,-1.6161,-1.4811,-1.3698,-1.2891,-1.2342,-1.1719,-1.0959,-1.0132,-0.964,-0.8736,-0.7635,-0.7232,-0.6585,-0.5899,-0.6051,-0.5814,-0.546,-1.6597,-1.6835,-1.6986,-1.6584,-1.6522,-1.6522,-1.6522,-1.6522,-1.6459,-1.6283,-1.6258,-1.6195,-1.6019,-1.6353,-1.6611,-1.6771,-1.7289,-1.7591,-1.7592,-1.7758,-1.817,-1.8878,-1.8893,-1.8893,-1.8893,-1.8727,-1.8817,-1.9207,-1.9207,-1.9207,-1.9207,-1.8817,-1.865,-1.8612,-1.8263,-1.8302,-1.8612,-1.8263,-1.8302,-1.8612,-1.8066,-1.7867,-1.7907,-1.8263,-1.8496,-1.8727,-1.9244,-1.9566,-1.966,-1.945,-1.951,-1.9615,-1.9196,-1.9076,-1.8942,-1.8283,-1.8144,-1.8042,-1.7197,-1.748,-1.8054,-1.8251,-1.7844,-1.7357,-1.7247,-1.7265,-1.7231,-1.7002,-1.7813,-1.8623,-1.886,-1.9316,-1.9714,-1.9951,-2.0437,-2.0873,-2.1165,-2.1525,-2.1853,-2.2102,-2.1531,-2.1075,-2.0986,-2.0506,-2.0134,-1.9953,-1.9551,-1.9304,-1.9268,-1.9204,-1.9577,-2.0433,-2.0565,-2.0089,-1.8935,-1.8587,-1.7764,-1.6441,-1.6063,-1.5231,-1.4007,-1.2847,-1.2103,-1.1722,-1.1263,-1.0573,-0.9656,-0.9,-0.7972,-0.6745,-0.6241,-0.5591,-0.4954,-0.4853,-0.482,-0.4728,-1.6522,-1.6522,-1.6522,-1.6522,-1.6522,-1.6522,-1.6509,-1.6522,-1.6321,-1.5756,-1.5693,-1.548,-1.4966,-1.4916,-1.512,-1.5657,-1.6188,-1.6496,-1.648,-1.7009,-1.7759,-1.8849,-1.8878,-1.8893,-1.8878,-1.8366,-1.8092,-1.8092,-1.8092,-1.8092,-1.8106,-1.8106,-1.8106,-1.8106,-1.8106,-1.8106,-1.8106,-1.8106,-1.8106,-1.8066,-1.7504,-1.7312,-1.7312,-1.7299,-1.7612,-1.8171,-1.8674,-1.9229,-1.957,-1.8912,-1.9136,-1.9435,-1.81,-1.7697,-1.7548,-1.6906,-1.6712,-1.6638,-1.6376,-1.6067,-1.5955,-1.6633,-1.6554,-1.6367,-1.6712,-1.7052,-1.7296,-1.7296,-1.7549,-1.8031,-1.8758,-1.8894,-1.913,-1.9866,-2.0247,-2.0657,-2.1108,-2.0827,-2.0714,-2.1047,-2.0614,-2.0162,-1.9824,-1.9914,-1.9953,-1.9802,-1.9914,-2.0073,-2.0282,-1.9538,-1.9512,-2.0387,-2.0864,-2.0433,-1.9018,-1.8937,-1.7897,-1.5901,-1.5549,-1.4408,-1.2606,-1.232,-1.1757,-1.0961,-1.0715,-1.0175,-0.9376,-0.8199,-0.7182,-0.6285,-0.5515,-0.4856,-0.4345,-0.4084,-0.3958,-0.3695,-1.6522,-1.6522,-1.6522,-1.6522,-1.6522,-1.6384,-1.6007,-1.6271,-1.6183,-1.5241,-1.5454,-1.548,-1.4966,-1.4916,-1.4942,-1.512,-1.5274,-1.5376,-1.5385,-1.5891,-1.6325,-1.6651,-1.7378,-1.7583,-1.7202,-1.7046,-1.7163,-1.7547,-1.7547,-1.773,-1.8106,-1.7706,-1.7544,-1.7504,-1.7146,-1.7188,-1.7504,-1.7146,-1.7188,-1.7504,-1.6951,-1.6523,-1.6207,-1.6598,-1.679,-1.6908,-1.7427,-1.7944,-1.8283,-1.8089,-1.8149,-1.8238,-1.7817,-1.7369,-1.6965,-1.6771,-1.6737,-1.6714,-1.6375,-1.6394,-1.6554,-1.6738,-1.6367,-1.608,-1.6659,-1.6892,-1.7027,-1.7248,-1.7368,-1.7522,-1.7745,-1.7795,-1.7837,-1.8053,-1.8114,-1.8345,-1.8994,-1.8941,-1.9064,-1.9685,-1.996,-2.005,-1.9953,-2.0097,-2.0188,-2.0153,-1.9613,-1.9345,-1.9455,-1.9771,-2.0338,-2.1214,-2.1607,-2.1186,-1.9922,-1.9109,-1.7737,-1.5808,-1.4534,-1.334,-1.2207,-1.1443,-1.0616,-0.9788,-0.9719,-0.8965,-0.7789,-0.7573,-0.6058,-0.3918,-0.4241,-0.3372,-0.1966,-0.2068,-0.1733,-0.1132,-1.6194,-1.6337,-1.6446,-1.6233,-1.6183,-1.6007,-1.5454,-1.5467,-1.5233,-1.4383,-1.4555,-1.4555,-1.4013,-1.4113,-1.4224,-1.4224,-1.4224,-1.4412,-1.4878,-1.4991,-1.5175,-1.5359,-1.5997,-1.6323,-1.6188,-1.5957,-1.6034,-1.6364,-1.6364,-1.6514,-1.6823,-1.6715,-1.6656,-1.6656,-1.635,-1.6338,-1.6643,-1.6109,-1.6061,-1.632,-1.598,-1.5668,-1.5407,-1.5737,-1.5962,-1.6118,-1.6613,-1.7089,-1.7441,-1.7352,-1.7161,-1.7028,-1.7439,-1.7,-1.6353,-1.6353,-1.6373,-1.6421,-1.6474,-1.6554,-1.6659,-1.6926,-1.6501,-1.6108,-1.6501,-1.6815,-1.6977,-1.6926,-1.7126,-1.7272,-1.7126,-1.7101,-1.7101,-1.7101,-1.6814,-1.6923,-1.7881,-1.7772,-1.7998,-1.9002,-1.957,-1.9884,-1.9933,-2.0143,-2.0312,-2.0312,-1.9492,-1.9302,-2.0005,-2.0137,-2.0523,-2.1306,-2.1978,-2.1248,-1.8929,-1.8407,-1.712,-1.5073,-1.3646,-1.2262,-1.1002,-1.0621,-0.9868,-0.8839,-0.8693,-0.8167,-0.7304,-0.6206,-0.4403,-0.2353,-0.213,-0.1433,-0.0534,-0.0334,0.0067,0.0568,-1.5588,-1.5905,-1.6166,-1.5706,-1.5618,-1.5429,-1.4838,-1.4362,-1.3867,-1.3243,-1.3219,-1.3042,-1.2496,-1.2838,-1.3094,-1.3129,-1.3163,-1.3659,-1.4702,-1.4286,-1.4236,-1.4739,-1.4765,-1.498,-1.5388,-1.5018,-1.484,-1.484,-1.484,-1.4865,-1.4916,-1.5379,-1.5618,-1.5618,-1.5618,-1.5618,-1.5593,-1.513,-1.4916,-1.4916,-1.4916,-1.4878,-1.484,-1.484,-1.5119,-1.5571,-1.5989,-1.6493,-1.6895,-1.6692,-1.6263,-1.5961,-1.6886,-1.6527,-1.5799,-1.5799,-1.5827,-1.5983,-1.6581,-1.6554,-1.6501,-1.7085,-1.6825,-1.6367,-1.6355,-1.6799,-1.7052,-1.6474,-1.6825,-1.7126,-1.6815,-1.6763,-1.6747,-1.6684,-1.6136,-1.6117,-1.7356,-1.7116,-1.731,-1.8717,-1.9341,-1.968,-1.9767,-2.0088,-2.0312,-2.0312,-1.9554,-1.9785,-2.1391,-2.0594,-2.0364,-2.096,-2.1996,-2.0782,-1.707,-1.7223,-1.6153,-1.3823,-1.2799,-1.1222,-0.9345,-0.9904,-0.936,-0.8018,-0.7771,-0.7545,-0.7149,-0.4216,-0.2355,-0.1229,0.0507,0.0834,0.04,0.1136,0.1471,0.1607,-1.4363,-1.4526,-1.4703,-1.5026,-1.5053,-1.4748,-1.3798,-1.3886,-1.3607,-1.2304,-1.2495,-1.2552,-1.2014,-1.2029,-1.2246,-1.2615,-1.2978,-1.3298,-1.3536,-1.3448,-1.3471,-1.3549,-1.3549,-1.343,-1.3191,-1.3913,-1.4261,-1.4261,-1.4261,-1.4488,-1.4916,-1.5029,-1.5053,-1.5053,-1.5053,-1.5053,-1.5079,-1.4966,-1.4916,-1.4916,-1.4916,-1.4651,-1.4261,-1.4261,-1.4259,-1.4339,-1.4757,-1.5177,-1.5585,-1.5906,-1.5918,-1.5857,-1.605,-1.5976,-1.5799,-1.5799,-1.5983,-1.6219,-1.6367,-1.6554,-1.6738,-1.6866,-1.7002,-1.7027,-1.6763,-1.6607,-1.6554,-1.6659,-1.6607,-1.6501,-1.6421,-1.6409,-1.6222,-1.5718,-1.5225,-1.5236,-1.6101,-1.603,-1.6409,-1.7803,-1.8768,-1.9369,-1.9481,-1.9983,-2.0312,-2.0312,-1.9988,-2.0232,-2.1214,-2.1013,-2.1098,-2.1672,-2.143,-2.0495,-1.8848,-1.6913,-1.4868,-1.2734,-1.1757,-1.0446,-0.8869,-0.9421,-0.8561,-0.6665,-0.7604,-0.6442,-0.383,-0.2093,-0.0424,0.1203,0.2713,0.3093,0.2711,0.2491,0.2669,0.3047,-1.3372,-1.3738,-1.4026,-1.3838,-1.3802,-1.3545,-1.2724,-1.2625,-1.2323,-1.1533,-1.1648,-1.1752,-1.1463,-1.1664,-1.1993,-1.2473,-1.272,-1.2943,-1.3198,-1.3198,-1.3094,-1.2873,-1.2873,-1.265,-1.2174,-1.2733,-1.3022,-1.3022,-1.324,-1.346,-1.3779,-1.4275,-1.4513,-1.4513,-1.4513,-1.4513,-1.45,-1.4199,-1.4086,-1.4086,-1.4086,-1.391,-1.3659,-1.3659,-1.3645,-1.3648,-1.4278,-1.4907,-1.5507,-1.5883,-1.5926,-1.5827,-1.5983,-1.5926,-1.5799,-1.5799,-1.5926,-1.6136,-1.6448,-1.6318,-1.6196,-1.6684,-1.6337,-1.5943,-1.6198,-1.6534,-1.6626,-1.6155,-1.6175,-1.6246,-1.608,-1.6052,-1.5839,-1.5167,-1.4883,-1.485,-1.5051,-1.544,-1.608,-1.7088,-1.8288,-1.9188,-1.963,-2.006,-2.0269,-2.0161,-2.0069,-2.0335,-2.1115,-2.1393,-2.1544,-2.1561,-2.1671,-2.0798,-1.8876,-1.7173,-1.5398,-1.357,-1.2034,-1.062,-0.9418,-0.9089,-0.8191,-0.6772,-0.5797,-0.393,-0.1383,0.0218,0.187,0.3477,0.4059,0.4172,0.3926,0.3253,0.3163,0.3438,-1.2165,-1.2755,-1.3147,-1.2465,-1.2332,-1.2181,-1.1745,-1.1282,-1.0981,-1.0905,-1.0867,-1.0867,-1.0867,-1.1356,-1.1802,-1.213,-1.2271,-1.2496,-1.2808,-1.2842,-1.2693,-1.2389,-1.2307,-1.2047,-1.1578,-1.1619,-1.17,-1.1811,-1.2174,-1.2437,-1.2508,-1.3398,-1.3824,-1.3808,-1.3808,-1.3758,-1.3632,-1.3144,-1.2922,-1.2922,-1.2922,-1.2973,-1.3048,-1.2947,-1.2973,-1.3183,-1.3969,-1.4852,-1.5726,-1.608,-1.6039,-1.5856,-1.6136,-1.6011,-1.5799,-1.5799,-1.5799,-1.597,-1.6607,-1.6076,-1.5546,-1.6495,-1.5551,-1.4546,-1.5209,-1.6136,-1.6547,-1.5371,-1.5568,-1.5869,-1.559,-1.54,-1.5061,-1.4409,-1.4382,-1.4367,-1.4142,-1.4884,-1.5757,-1.6634,-1.7962,-1.9091,-1.9834,-2.0115,-2.0188,-2.0022,-1.9993,-2.0318,-2.1123,-2.1529,-2.1582,-2.1189,-2.1718,-2.0772,-1.8206,-1.7356,-1.6331,-1.5156,-1.2979,-1.1378,-1.0275,-0.9384,-0.835,-0.7146,-0.3697,-0.1127,0.0729,0.2628,0.4217,0.5371,0.5053,0.4896,0.4732,0.3839,0.3486,0.349,-1.0022,-1.0216,-1.0494,-1.1158,-1.1295,-1.1242,-1.1116,-1.1057,-1.0867,-1.0467,-1.039,-1.039,-1.039,-1.0829,-1.101,-1.0712,-1.142,-1.1739,-1.14,-1.1366,-1.1537,-1.1861,-1.1501,-1.1066,-1.0609,-1.093,-1.1356,-1.1811,-1.1847,-1.2102,-1.2508,-1.2651,-1.2692,-1.263,-1.263,-1.2366,-1.1914,-1.1839,-1.1814,-1.1814,-1.1814,-1.209,-1.2467,-1.1989,-1.2102,-1.2582,-1.3027,-1.4062,-1.5255,-1.5726,-1.5827,-1.5799,-1.5856,-1.5827,-1.5799,-1.5799,-1.5799,-1.597,-1.6607,-1.6076,-1.5471,-1.6203,-1.5554,-1.4587,-1.409,-1.4584,-1.5088,-1.4905,-1.4691,-1.4555,-1.4499,-1.3797,-1.3021,-1.2401,-1.2674,-1.3092,-1.3403,-1.3755,-1.4692,-1.6545,-1.7968,-1.8982,-1.9449,-1.9815,-2.0031,-1.9993,-1.9901,-2.0307,-2.1379,-2.0958,-2.0804,-2.1028,-2.0085,-1.8983,-1.7712,-1.6462,-1.5985,-1.6283,-1.4395,-1.2508,-1.0648,-1.1041,-0.9558,-0.6457,-0.2893,0.0289,0.3102,0.5077,0.6074,0.6331,0.6268,0.6025,0.5626,0.475,0.421,0.3923,-0.9322,-0.9522,-0.974,-0.9883,-0.9914,-0.9919,-0.9879,-0.9874,-0.9802,-0.9606,-0.957,-0.957,-0.957,-0.9682,-0.9925,-1.0358,-1.0505,-1.0716,-1.108,-1.0877,-1.0721,-1.0625,-1.0429,-1.0084,-0.9626,-0.9773,-1.0122,-1.0578,-1.0873,-1.0968,-1.0945,-1.1228,-1.1378,-1.1359,-1.1519,-1.1479,-1.129,-1.1485,-1.1588,-1.1588,-1.1588,-1.1738,-1.1927,-1.1676,-1.1847,-1.2269,-1.2906,-1.3727,-1.4616,-1.5089,-1.5061,-1.489,-1.516,-1.4977,-1.4677,-1.4677,-1.4932,-1.5264,-1.5358,-1.4922,-1.4571,-1.5042,-1.4142,-1.3087,-1.2947,-1.3172,-1.3443,-1.3595,-1.3551,-1.3472,-1.3472,-1.3094,-1.2592,-1.1994,-1.284,-1.3386,-1.2838,-1.4288,-1.5964,-1.7409,-1.8173,-1.8767,-1.9232,-1.9519,-1.9637,-1.9557,-1.9645,-1.982,-2.008,-2.082,-2.1113,-2.09,-2.0462,-1.983,-1.9046,-1.7397,-1.6672,-1.6909,-1.5475,-1.3813,-1.1965,-1.0931,-1.0048,-0.9051,-0.352,0.0968,0.4549,0.5567,0.6277,0.663,0.6279,0.5676,0.491,0.4701,0.4616,0.4706]},{"header":{"parameterUnit":"m.s-1","parameterCategory":1,"la1":30.6,"la2":28.766,"lo1":-90.7593,"lo2":-88.6598,"dy":0.0162,"dx":0.0183,"nx":116,"ny":114,"refTime":"2023-07-17T12:00:00:Z","depth":0,"parameterNumber":3,"parameterNumberName":"V-component_of_WINDS"},"data":[0.0,0.0,0.0,0.0,0.0,0.0,0.0,0.0,0.0,0.0,0.0,0.0,0.0,0.0,0.0,0.0,0.0,0.0,0.0,0.0,0.0,0.0,0.0,0.0,0.0,0.0,0.0,0.0,0.0,0.0,0.0,0.0,0.0,0.0,0.0,0.0,0.0,0.0,0.0,0.0,0.0,0.0,0.0,0.0,0.0,0.0,0.0,0.0,0.0,0.0,0.0,0.0,0.0,0.0,0.0,0.0,0.0,0.0,0.0,0.0,0.0,0.0,0.0,0.0,0.0,0.0,0.0,0.0,0.0,0.0,0.0,0.0,0.0,0.0,0.0,0.0,0.0,0.0,0.0,0.0,0.0,0.0,0.0,0.0,0.0,0.0,0.0,0.0,0.0,0.0,0.0,0.0,0.0,0.0,0.0,0.0,0.0,0.0,0.0,0.0,0.0,0.0,0.0,0.0,0.0,0.0,0.0,0.0,0.0,0.0,0.0,0.0,0.0,0.0,0.0,0.0,0.0,0.0,0.0,0.0,0.0,0.0,0.0,0.0,0.0,0.0,0.0,0.0,0.0,0.0,0.0,0.0,0.0,0.0,0.0,0.0,0.0,0.0,0.0,0.0,0.0,0.0,0.0,0.0,0.0,0.0,0.0,0.0,0.0,0.0,0.0,0.0,0.0,0.0,0.0,0.0,0.0,0.0,0.0,0.0,0.0,0.0,0.0,0.0,0.0,0.0,0.0,0.0,0.0,0.0,0.0,0.0,0.0,0.0,0.0,0.0,0.0,0.0,0.0,0.0,0.0,0.0,0.0,0.0,0.0,0.0,0.0,0.0,0.0,0.0,0.0,0.0,0.0,0.0,0.0,0.0,0.0,0.0,0.0,0.0,0.0,0.0,0.0,0.0,0.0,0.0,0.0,0.0,0.0,0.0,0.0,0.0,0.0,0.0,0.0,0.0,0.0,0.0,0.0,0.0,0.0,0.0,0.0,0.0,0.0,0.0,0.0,0.0,0.0,0.0,0.0,0.0,0.0,0.0,0.0,0.0,0.0,0.0,0.0,0.0,0.0,0.0,0.0,0.0,0.0,0.0,0.0,0.0,0.0,0.0,0.0,0.0,0.0,0.0,0.0,0.0,0.0,0.0,0.0,0.0,0.0,0.0,0.0,0.0,0.0,0.0,0.0,0.0,0.0,0.0,0.0,0.0,0.0,0.0,0.0,0.0,0.0,0.0,0.0,0.0,0.0,0.0,0.0,0.0,0.0,0.0,0.0,0.0,0.0,0.0,0.0,0.0,0.0,0.0,0.0,0.0,0.0,0.0,0.0,0.0,0.0,0.0,0.0,0.0,0.0,0.0,0.0,0.0,0.0,0.0,0.0,0.0,0.0,0.0,0.0,0.0,0.0,0.0,0.0,0.0,0.0,0.0,0.0,0.0,0.0,0.0,0.0,0.0,0.0,0.0,0.0,0.0,0.0,0.0,0.0,0.0,0.0,0.0,0.0,0.0,0.0,0.0,0.0,0.0,0.0,0.0,0.0,0.0,0.0,0.0,0.0,0.0,0.0,0.0,0.0,0.0,0.0,0.0,0.0,0.0,0.0,0.0,0.0,0.0,0.0,0.0,0.0,0.0,0.0,0.0,0.0,0.0,0.0,0.0,0.0,0.0,0.0,0.0,0.0,0.0,0.0,0.0,0.0,0.0,0.0,0.0,0.0,0.0,0.0,0.0,0.0,0.0,0.0,0.0,0.0,0.0,0.0,0.0,0.0,0.0,0.0,0.0,0.0,0.0,0.0,0.0,0.0,0.0,0.0,0.0,0.0,0.0,0.0,0.0,0.0,0.0,0.0,0.0,0.0,0.0,0.0,0.0,0.0,0.0,0.0,0.0,0.0,0.0,0.0,0.0,0.0,0.0,0.0,0.0,0.0,0.0,0.0,0.0,0.0,0.0,0.0,0.0,0.0,0.0,0.0,0.0,0.0,0.0,0.0,0.0,0.0,0.0,0.0,0.0,0.0,0.0,0.0,0.0,0.0,0.0,0.0,0.0,0.0,0.0,0.0,0.0,0.0,0.0,0.0,0.0,0.0,0.0,0.0,0.0,0.0,0.0,0.0,0.0,0.0,0.0,0.0,0.0,0.0,0.0,0.0,0.0,0.0,0.0,0.0,0.0,0.0,0.0,0.0,0.0,0.0,0.0,0.0,0.0,0.0,0.0,0.0,0.0,0.0,0.0,0.0,0.0,0.0,0.0,0.0,0.0,0.0,0.0,0.0,0.0,0.0,0.0,0.0,0.0,0.0,0.0,0.0,0.0,0.0,0.0,0.0,0.0,0.0,0.0,0.0,0.0,0.0,0.0,0.0,0.0,0.0,0.0,0.0,0.0,0.0,0.0,0.0,0.0,0.0,0.0,0.0,0.0,0.0,0.0,0.0,0.0,0.0,0.0,0.0,0.0,0.0,0.0,0.0,0.0,0.0,0.0,0.0,0.0,0.0,0.0,0.0,0.0,0.0,0.0,0.0,0.0,0.0,0.0,0.0,0.0,0.0,0.0,0.0,0.0,0.0,0.0,0.0,0.0,0.0,0.0,0.0,0.0,0.0,0.0,0.0,0.0,0.0,0.0,0.0,0.0,0.0,0.0,0.0,0.0,0.0,0.0,0.0,0.0,0.0,0.0,0.0,0.0,0.0,0.0,0.0,0.0,0.0,0.0,0.0,0.0,0.0,0.0,0.0,0.0,0.0,0.0,0.0,0.0,0.0,0.0,0.0,0.0,0.0,0.0,0.0,0.0,0.0,0.0,0.0,0.0,0.0,0.0,0.0,0.0,0.0,0.0,0.0,0.0,0.0,0.0,0.0,0.0,0.0,0.0,0.0,0.0,0.0,0.0,0.0,0.0,0.0,0.0,0.0,0.0,0.0,0.0,0.0,0.0,0.0,0.0,0.0,0.0,0.0,0.0,0.0,0.0,0.0,0.0,0.0,0.0,0.0,0.0,0.0,0.0,0.0,0.0,0.0,0.0,0.0,0.0,0.0,0.0,0.0,0.0,0.0,0.0,0.0,0.0,0.0,0.0,0.0,0.0,0.0,0.0,0.0,0.0,0.0,0.0,0.0,0.0,0.0,0.0,0.0,0.0,0.0,0.0,0.0,0.0,0.0,0.0,0.0,0.0,0.0,0.0,0.0,0.0,0.0,0.0,0.0,0.0,0.0,0.0,0.0,0.0,0.0,0.0,0.0,0.0,0.0,0.0,0.0,0.0,0.0,0.0,0.0,0.0,0.0,0.0,0.0,0.0,0.0,0.0,0.0,0.0,0.0,0.0,0.0,0.0,0.0,0.0,0.0,0.0,0.0,0.0,0.0,0.0,0.0,0.0,0.0,0.0,0.0,0.0,0.0,0.0,0.0,0.0,0.0,0.0,0.0,0.0,0.0,0.0,0.0,0.0,0.0,0.0,0.0,0.0,0.0,0.0,0.0,0.0,0.0,0.0,0.0,0.0,0.0,0.0,0.0,0.0,0.0,0.0,0.0,0.0,0.0,0.0,0.0,0.0,0.0,0.0,0.0,0.0,0.0,0.0,0.0,0.0,0.0,0.0,0.0,0.0,0.0,0.0,0.0,0.0,0.0,0.0,0.0,0.0,0.0,0.0,0.0,0.0,0.0,0.0,0.0,0.0,0.0,0.0,0.0,0.0,0.0,0.0,0.0,0.0,0.0,0.0,0.0,0.0,0.0,0.0,0.0,0.0,0.0,0.0,0.0,0.0,0.0,0.0,0.0,0.0,0.0,0.0,0.0,0.0,0.0,0.0,0.0,0.0,0.0,0.0,0.0,0.0,0.0,0.0,0.0,0.0,0.0,0.0,0.0,0.0,0.0,0.0,0.0,0.0,0.0,0.0,0.0,0.0,0.0,0.0,0.0,0.0,0.0,0.0,0.0,0.0,0.0,0.0,0.0,0.0,0.0,0.0,0.0,0.0,0.0,0.0,0.0,0.0,0.0,0.0,0.0,0.0,0.0,0.0,0.0,0.0,0.0,0.0,0.0,0.0,0.0,0.0,0.0,0.0,0.0,0.0,0.0,0.0,0.0,0.0,0.0,0.0,0.0,0.0,0.0,0.0,0.0,0.0,0.0,0.0,0.0,0.0,0.0,0.0,0.0,0.0,0.0,0.0,0.0,0.0,0.0,0.0,0.0,0.0,0.0,0.0,0.0,0.0,0.0,0.0,0.0,0.0,0.0,0.0,0.0,0.0,0.0,0.0,0.0,0.0,0.0,0.0,0.0,0.0,0.0,0.0,0.0,0.0,0.0,0.0,0.0,0.0,0.0,0.0,0.0,0.0,0.0,0.0,0.0,0.0,0.0,0.0,0.0,0.0,0.0,0.0,0.0,0.0,0.0,0.0,0.0,0.0,0.0,0.0,0.0,0.0,0.0,0.0,0.0,0.0,0.0,0.0,0.0,0.0,0.0,0.0,0.0,0.0,0.0,0.0,0.0,0.0,0.0,0.0,0.0,0.0,0.0,0.0,0.0,0.0,0.0,0.0,0.0,0.0,0.0,0.0,0.0,0.0,0.0,0.0,0.0,0.0,0.0,0.0,0.0,0.0,0.0,0.0,0.0,0.0,0.0,0.0,0.0,0.0,0.0,0.0,0.0,0.0,0.0,0.0,0.0,0.0,0.0,0.0,0.0,0.0,0.0,0.0,0.0,0.0,0.0,0.0,0.0,0.0,0.0,0.0,0.0,0.0,0.0,0.0,0.0,0.0,0.0,0.0,0.0,0.0,0.0,0.0,0.0,0.0,0.0,0.0,0.0,0.0,0.0,0.0,0.0,0.0,0.0,0.0,0.0,0.0,0.0,0.0,0.0,0.0,0.0,0.0,0.0,0.0,0.0,0.0,0.0,0.0,0.0,0.0,0.0,0.0,0.0,0.0,0.0,0.0,0.0,0.0,0.0,0.0,0.0,0.0,0.0,0.0,0.0,0.0,0.0,0.0,0.0,0.0,0.0,0.0,0.0,0.0,0.0,0.0,0.0,0.0,0.0,0.0,0.0,0.0,0.0,0.0,0.0,0.0,0.0,0.0,0.0,0.0,0.0,0.0,0.0,0.0,0.0,0.0,0.0,0.0,0.0,0.0,0.0,0.0,0.0,0.0,0.0,0.0,0.0,0.0,0.0,0.0,0.0,0.0,0.0,0.0,0.0,0.0,0.0,0.0,0.0,0.0,0.0,0.0,0.0,0.0,0.0,0.0,0.0,0.0,0.0,0.0,0.0,0.0,0.0,0.0,0.0,0.0,0.0,0.0,0.0,0.0,0.0,0.0,0.0,0.0,0.0,0.0,0.0,0.0,0.0,0.0,0.0,0.0,0.0,0.0,0.0,0.0,0.0,0.0,0.0,0.0,0.0,0.0,0.0,0.0,0.0,0.0,0.0,0.0,0.0,0.0,0.0,0.0,0.0,0.0,0.0,0.0,0.0,0.0,0.0,0.0,0.0,0.0,0.0,0.0,0.0,0.0,0.0,0.0,0.0,0.0,0.0,0.0,0.0,0.0,0.0,0.0,0.0,0.0,0.0,0.0,0.0,0.0,0.0,0.0,0.0,0.0,0.0,0.0,0.0,0.0,0.0,0.0,0.0,0.0,0.0,0.0,0.0,0.0,0.0,0.0,0.0,0.0,0.0,0.0,0.0,0.0,0.0,0.0,0.0,0.0,0.0,0.0,0.0,0.0,0.0,0.0,0.0,0.0,0.0,0.0,0.0,0.0,0.0,0.0,0.0,0.0,0.0,0.0,0.0,0.0,0.0,0.0,0.0,0.0,0.0,0.0,0.0,0.0,0.0,0.0,0.0,0.0,0.0,0.0,0.0,0.0,0.0,0.0,0.0,0.0,0.0,0.0,0.0,0.0,0.0,0.0,0.0,0.0,0.0,0.0,0.0,0.0,0.0,0.0,0.0,0.0,0.0,0.0,0.0,0.0,0.0,0.0,0.0,0.0,0.0,0.0,0.0,0.0,0.0,0.0,0.0,0.0,0.0,0.0,0.0,0.0,0.0,0.0,0.0,0.0,0.0,0.0,0.0,0.0,0.0,0.0,0.0,0.0,0.0,0.0,-1.5251,0.0,0.0,0.0,0.0,0.0,0.0,0.0,0.0,0.0,0.0,0.0,0.0,0.0,0.0,0.0,0.0,0.0,0.0,0.0,0.0,0.0,0.0,0.0,0.0,0.0,0.0,0.0,0.0,0.0,0.0,0.0,0.0,0.0,0.0,0.0,0.0,0.0,0.0,0.0,0.0,0.0,0.0,0.0,0.0,0.0,0.0,0.0,0.0,0.0,0.0,0.0,0.0,0.0,0.0,0.0,0.0,0.0,0.0,0.0,0.0,0.0,0.0,0.0,0.0,0.0,0.0,0.0,0.0,0.0,0.0,0.0,0.0,0.0,0.0,0.0,0.0,0.0,0.0,0.0,0.0,0.0,0.0,0.0,0.0,0.0,0.0,0.0,0.0,0.0,0.0,0.0,0.0,0.0,0.0,0.0,0.0,0.0,0.0,0.0,0.0,0.0,0.0,0.0,0.0,0.0,0.0,0.0,0.0,0.0,0.0,0.0,0.0,0.0,0.0,0.0,0.0,-1.5658,0.0,0.0,0.0,0.0,0.0,0.0,0.0,0.0,0.0,0.0,0.0,0.0,0.0,0.0,0.0,0.0,0.0,0.0,0.0,0.0,0.0,0.0,0.0,0.0,0.0,0.0,0.0,0.0,0.0,0.0,0.0,0.0,0.0,0.0,0.0,0.0,0.0,0.0,0.0,0.0,0.0,0.0,0.0,0.0,0.0,0.0,0.0,0.0,0.0,0.0,0.0,0.0,0.0,0.0,0.0,0.0,0.0,0.0,0.0,0.0,0.0,0.0,0.0,0.0,0.0,0.0,0.0,0.0,0.0,0.0,0.0,0.0,0.0,0.0,0.0,0.0,0.0,0.0,0.0,0.0,0.0,0.0,0.0,0.0,0.0,0.0,0.0,0.0,0.0,0.0,0.0,0.0,0.0,0.0,0.0,0.0,0.0,0.0,0.0,0.0,0.0,0.0,0.0,0.0,0.0,0.0,0.0,0.0,-1.7341,-1.7635,-1.7809,-1.7569,-1.7615,-1.7862,-1.7328,-1.6974,-1.676,-1.6413,0.0,0.0,0.0,0.0,0.0,0.0,0.0,0.0,0.0,0.0,0.0,0.0,0.0,0.0,0.0,0.0,0.0,0.0,0.0,0.0,0.0,0.0,0.0,0.0,0.0,0.0,0.0,0.0,0.0,0.0,0.0,0.0,0.0,0.0,0.0,0.0,0.0,0.0,-0.3472,-0.7581,-0.9587,-0.9726,-1.0954,0.0,0.0,0.0,0.0,0.0,0.0,0.0,0.0,0.0,0.0,0.0,0.0,0.0,0.0,0.0,0.0,0.0,0.0,0.0,0.0,0.0,0.0,0.0,0.0,0.0,0.0,0.0,0.0,0.0,0.0,0.0,0.0,0.0,0.0,0.0,0.0,0.0,0.0,0.0,0.0,0.0,0.0,0.0,0.0689,-0.1783,0.0,0.0,0.0,0.0,0.0,0.0,0.0,0.0,0.0,0.0,0.0,0.0,0.0,-1.5693,-1.5434,-1.6774,-1.7689,-1.7849,-1.8684,-1.8965,-1.8744,-1.8704,-1.8851,-1.9112,-1.8778,0.0,-1.7048,-1.65,0.0,0.0,0.0,0.0,0.0,0.0,0.0,0.0,0.0,0.0,0.0,0.0,0.0,0.0,0.0,0.0,0.0,0.0,0.0,0.0,0.0,0.0,0.0,0.0,0.0,0.0,0.0,0.0,0.0,0.0,0.0,0.0,0.0,0.0,0.0,0.0,-0.1295,-0.3131,-0.3585,-0.8135,-1.0317,-1.0396,-1.289,-1.4649,-1.5878,-1.5292,0.0,0.0,0.0,0.0,0.0,0.0,0.0,0.0,0.0,0.0,0.0,0.0,0.0,0.0,0.0,0.0,0.0,0.0,0.0,0.0,0.0,0.0,0.0,0.0,0.0,0.0,0.0,0.0,0.0,0.0,0.0,0.0,0.0,0.0,0.0,0.0,0.0,0.0,0.0,0.1238,0.0705,-0.161,-0.297,-0.4184,0.0,0.0,0.0,0.0,0.0,0.0,0.0,0.0,0.0,-1.3262,-1.5706,-1.7042,-1.72,-1.8046,-1.8531,-1.8531,-1.9098,-1.9299,-1.9172,-1.9172,-1.9245,-1.9352,-1.9052,-1.8624,-1.8103,-1.7515,-1.6994,-1.6612,0.0,0.0,0.0,0.0,-1.9414,-1.9939,0.0,0.0,0.0,0.0,0.0,0.0,0.0,0.0,0.0,0.0,0.0,0.0,0.0,0.0,0.0,0.5873,0.0,0.0,0.0,0.0,0.0,0.0,0.0,0.0,0.0,0.0,0.0,0.0,-0.1951,-0.3749,-0.4038,-0.8439,-1.0494,-1.0603,-1.3939,-1.587,-1.6608,-1.6196,-1.6776,0.0,0.0,0.0,0.0,0.0,0.0,0.0,0.0,0.0,0.0,0.0,0.0,0.0,0.0,0.0,0.0,0.0,0.0,0.0,0.0,0.0,0.0,0.0,0.0,0.0,0.0,0.0,0.0,0.0,0.0,0.0,0.0,0.0,0.0,0.0,0.0,0.0,0.0,0.0701,0.0523,-0.1237,-0.2566,-0.386,0.0,0.0,0.0,0.0,0.0,0.0,-0.9696,-1.1384,-1.3113,-1.4822,-1.6482,-1.7727,-1.8711,-1.8931,-1.8998,-1.8925,-1.9152,-1.9219,-1.9145,-1.9219,-1.9212,-1.9132,-1.8985,-1.8878,-1.8764,-1.8176,-1.7662,-1.7304,-1.7774,-1.7983,-1.8202,-1.9477,-2.0637,-2.1776,0.0,0.0,0.0,0.0,0.0,0.0,0.0,0.0,0.0,0.0,0.0,0.0,0.0,0.0,0.9383,0.7768,0.5624,0.3159,0.0,0.0,0.0,0.0,0.0,0.0,0.0,0.0,0.0,0.1608,-0.1903,-0.4032,-0.4954,-0.8514,-1.0098,-1.005,-1.3252,-1.5831,-1.7871,-1.722,-1.799,-1.9507,0.0,0.0,0.0,0.0,0.0,0.0,0.0,0.0,0.0,0.0,0.0,0.0,0.0,0.0,0.0,0.0,0.0,0.0,0.0,0.0,0.0,0.0,0.0,0.0,0.0,0.0,0.0,0.0,0.0,0.0,0.0,0.0,0.0,0.0,0.0,0.0,0.0,0.0,0.0,-0.011,-0.1153,0.0,0.0,0.0,0.0,-0.8749,-0.8896,-1.0235,-1.3488,-1.227,-1.374,-1.8499,-1.7332,-1.7473,-1.9319,-1.9339,-1.9205,-1.8925,-1.8938,-1.8804,-1.8544,-1.8818,-1.8798,-1.8551,-1.8811,-1.8771,-1.8464,-1.7856,-1.7589,-1.7502,-1.7009,-1.8309,-2.0399,-2.0512,-2.1906,-2.3641,0.0,0.0,0.0,0.0,0.0,0.0,0.0,0.0,0.0,0.0,0.0,0.0,0.0,1.1856,1.1233,0.9929,0.7693,0.5039,0.1798,0.0,0.0,0.0,0.0,0.0,0.0,0.0,0.2942,0.0711,-0.1992,-0.4002,-0.5512,-0.8339,-1.0129,-1.1246,-1.3822,-1.597,-1.7642,-1.7225,-1.7937,-1.9304,-1.784,-1.7431,0.0,0.0,0.0,0.0,0.0,0.0,0.0,0.0,0.0,0.0,0.0,0.0,0.0,0.0,0.0,0.0,0.0,0.0,0.0,0.0,0.0,0.0,0.0,0.0,0.0,0.0,0.0,0.0,0.0,0.0,0.0,0.0,0.0,0.0,0.0,0.0,0.0,0.0,-0.1082,0.0,-0.4188,-0.5696,-0.7361,-0.9104,-0.949,-1.0126,-1.1189,-1.1774,-1.2884,-1.4595,-1.6004,-1.7113,-1.7806,-1.8887,-1.9319,-1.9205,-1.9018,-1.8871,-1.8764,-1.8684,-1.8591,-1.8484,-1.8397,-1.841,-1.8444,-1.7836,-1.7702,-1.7943,-1.9346,-2.0329,-2.1078,-2.2488,-2.3388,-2.3789,0.0,0.0,0.0,0.0,0.0,0.0,0.0,0.0,0.0,0.0,0.0,1.2919,1.4489,1.4277,1.3597,1.2578,1.031,0.7573,0.4474,0.0,0.0,0.0,0.0,0.0,0.0,0.4806,0.3165,0.0601,-0.1804,-0.3871,-0.562,-0.7857,-0.9641,-1.1207,-1.3468,-1.5283,-1.6672,-1.693,-1.8174,-1.9792,-1.8895,-1.8771,-1.9014,0.0,0.0,0.0,0.0,0.0,0.0,0.0,0.0,0.0,0.0,0.0,0.0,0.0,0.0,0.0,0.0,0.0,0.0,0.0,0.0,0.0,0.0,0.0,0.0,0.0,0.0,0.0,0.0,0.0,0.0,0.0,0.0,0.0,0.0,0.0,0.0,0.0,-0.0743,-0.2251,-0.448,-0.5668,-0.723,-0.9637,-1.0032,-1.0402,-1.0787,-1.1328,-1.2139,-1.3031,-1.4629,-1.5897,-1.6968,-1.8046,-1.8835,-1.9219,-1.8918,-1.8724,-1.8617,-1.843,-1.8283,-1.8176,-1.8083,-1.8103,-1.8143,-1.7642,-1.7562,-1.7934,-1.9545,-2.0519,-2.1155,-2.2636,-2.3388,-2.3769,0.0,0.0,0.0,0.0,0.0,0.0,0.0,0.0,0.0,0.0,1.2775,1.4562,1.6777,1.6928,1.6555,1.5748,1.3446,1.0854,0.8205,0.6473,0.0,0.0,0.0,0.0,0.8143,0.5637,0.3329,0.1315,-0.1318,-0.3507,-0.5154,-0.7118,-0.8697,-0.9987,-1.2064,-1.3725,-1.5032,-1.656,-1.868,-2.0822,-2.0172,-2.0123,-2.0359,0.0,0.0,0.0,0.0,0.0,0.0,0.0,0.0,0.0,0.0,0.0,0.0,0.0,0.0,0.0,0.0,0.0,0.0,0.0,0.0,0.0,0.0,0.0,0.0,0.0,0.0,0.0,0.0,0.0,0.0,0.0,0.0,0.0,0.0,0.0,0.0,0.0,0.0,-0.1294,-0.4695,-0.5052,-0.6586,-1.0087,-1.0487,-1.1128,-1.2793,-1.1239,-1.1568,-1.4558,-1.3027,-1.376,-1.6844,-1.6956,-1.7542,-1.8805,-1.8617,-1.8323,-1.805,-1.8036,-1.7869,-1.7602,-1.7896,-1.7849,-1.7549,-1.7255,-1.7134,-1.7237,-1.7237,-1.8824,-2.0942,-2.0685,-2.1942,-2.3711,0.0,0.0,0.0,0.0,0.0,0.0,0.0,0.0,0.0,0.0,1.3939,1.6628,1.8976,1.8733,1.8266,1.7963,1.5508,1.3109,1.0927,0.0,0.0,0.0,0.0,0.0,0.9728,0.7595,0.5067,0.2076,-0.0447,-0.3134,-0.5957,-0.7471,-0.9316,-1.1404,-1.2896,-1.4439,-1.5954,-1.7607,-1.9282,-2.0843,-2.0899,-2.1326,-2.1954,0.0,0.0,0.0,0.0,0.0,0.0,0.0,0.0,0.0,0.0,0.0,0.0,0.0,0.0,0.0,0.0,0.0,0.0,0.0,0.0,0.0,0.0,0.0,0.0,0.0,0.0,0.0,0.0,0.0,0.0,0.0,0.0,0.0,0.0,0.0,0.0,0.0,0.0,-0.0795,-0.2974,-0.4415,-0.6007,-0.8391,-0.9616,-1.0638,-1.1128,-1.0503,-1.0461,-1.1271,-1.1829,-1.2569,-1.3522,-1.5604,-1.6766,-1.7159,-1.7838,-1.8123,-1.8036,-1.7816,-1.7662,-1.7575,-1.7448,-1.7348,-1.7248,-1.6947,-1.6827,-1.6928,-1.7903,-1.9269,-2.0774,-2.1371,-2.2299,-2.3301,0.0,0.0,0.0,0.0,0.0,0.0,0.0,0.0,0.0,0.0,1.4788,1.8055,2.0699,2.0505,1.9981,1.9445,1.7726,1.5813,1.3776,0.0,0.0,0.0,0.0,1.2753,1.1994,0.9408,0.6913,0.4624,0.1013,-0.2061,-0.4555,-0.6936,-0.9508,-1.2192,-1.3224,-1.4784,-1.6713,-1.7915,-1.9147,-2.0398,-2.1704,-2.2525,-2.2964,-2.2977,-2.2717,-2.2178,-2.1416,-2.0527,-1.9385,-1.7572,0.0,0.0,0.0,0.0,0.0,0.0,0.0,0.0,0.0,0.0,0.0,0.0,0.0,0.0,0.0,0.0,0.0,0.0,0.0,0.0,0.0,0.0,0.0,0.0,0.0,0.0,0.0,0.0,0.0,0.0,0.0,-0.0666,-0.2388,-0.3445,-0.5152,-0.7614,-0.8725,-0.9601,-1.0402,-1.0178,-1.0049,-1.0049,-1.0745,-1.1463,-1.2094,-1.3737,-1.5248,-1.641,-1.6906,-1.738,-1.8036,-1.7722,-1.7515,0.0,-1.7221,-1.7081,-1.6941,-1.6647,-1.6526,0.0,0.0,0.0,0.0,0.0,-2.2344,-2.3135,0.0,0.0,0.0,0.0,0.0,0.0,0.0,0.0,0.0,0.0,0.0,1.8964,2.1908,2.206,2.152,2.047,1.9871,1.8734,0.0,0.0,0.0,1.6944,1.6029,1.5204,1.456,1.1364,0.9106,0.796,0.3099,-0.022,-0.2118,-0.5749,-0.9292,-1.2565,-1.3535,-1.5235,-1.7424,-1.8043,-1.8903,-2.0086,-2.2464,-2.3443,-2.3477,-2.3729,-2.3365,-2.2773,-2.2892,-2.2563,-2.1765,-1.994,0.0,0.0,0.0,0.0,0.0,0.0,0.0,0.0,0.0,0.0,0.0,0.0,0.0,0.0,0.0,0.0,0.0,0.0,0.0,0.0,0.0,0.0,0.0,0.0,0.0,0.0,0.0,0.0,0.0,0.0,0.0,-0.0661,-0.227,-0.2539,-0.3987,-0.6958,-0.7574,-0.8436,-0.9921,0.0,0.0,0.0,0.0,-1.0445,-1.1703,-1.1891,-1.3159,-1.5686,-1.5771,-1.6544,-1.7652,-1.7596,-1.7422,-1.725,-1.7114,-1.6934,-1.6633,-1.6346,-1.6219,-1.6226,-1.6413,-1.7166,-1.8548,-2.0516,-2.2031,-2.3135,0.0,0.0,0.0,0.0,0.0,0.0,0.0,0.0,0.0,0.9154,1.4886,1.9545,2.208,2.2607,2.2422,2.1565,2.1277,2.0857,0.0,0.0,1.9435,1.9427,1.8855,1.7782,1.6171,1.4542,1.2309,0.9558,0.6504,0.2926,-0.1097,-0.4932,-0.8835,-1.2771,-1.5191,-1.716,-1.8723,-1.9745,-2.0738,-2.1693,-2.2638,-2.3395,-2.4061,-2.4687,-2.5487,-2.583,-2.3522,-2.3478,-2.4013,-2.044,-1.8767,-1.7899,-1.5953,0.0,0.0,0.0,0.0,0.0,0.0,0.0,0.0,0.0,0.0,0.0,0.0,0.0,0.0,0.0,0.0,0.0,0.0,0.0,0.0,0.0,0.0,0.0,0.0,0.0,0.0,0.0,0.0,-0.0131,-0.0521,-0.1688,-0.2863,-0.3675,-0.6092,-0.7697,-0.8218,-0.9321,-0.992,-1.0046,-0.9791,-0.9751,-1.0076,-1.0954,-1.1681,-1.2311,0.0,0.0,-1.5928,-1.7067,-1.7422,-1.7134,-1.6894,-1.6627,-1.6333,-1.6039,-1.5912,-1.6007,-1.7037,-1.814,-1.9404,-2.0782,-2.2031,-2.3135,0.0,0.0,0.0,0.0,0.0,0.0,0.0,0.0,0.0,0.0,1.355,1.8123,2.2155,2.2393,2.1953,2.1216,2.1094,0.0,0.0,2.2019,2.1807,2.1718,2.0789,1.9774,1.8639,1.6663,1.4819,1.3117,1.0179,0.7355,0.4522,-0.2234,-0.6941,-1.0003,-1.5713,-1.8893,-2.0079,-2.1148,-2.2025,-2.2754,-2.34,-2.4016,-2.4597,-2.5169,-2.5465,-2.5438,-2.4587,-2.4369,-2.4075,-2.1761,-1.9802,-1.8095,-1.7074,-1.5511,-1.4021,0.0,0.0,0.0,0.0,0.0,0.0,0.0,0.0,0.0,0.0,0.0,0.0,0.0,0.0,0.0,0.0,0.0,0.0,0.0,0.0,0.0,0.0,0.0,0.0,0.0,0.0,0.0,0.0,-0.0774,-0.1674,-0.2574,-0.4029,-0.5751,-0.7484,-0.82,-0.8961,-0.9829,-0.9686,-0.9537,-0.9384,-1.0016,-1.0555,-1.1236,-1.2553,-1.3901,-1.5411,-1.6039,-1.6652,-1.7134,-1.6834,-1.654,-1.6253,-1.5952,-1.5832,-1.592,-1.7225,-1.8411,-1.9679,-2.0845,-2.2031,-2.3135,0.0,0.0,0.0,0.0,0.0,0.0,0.0,0.0,0.0,0.0,0.0,1.5595,2.0877,2.0893,2.0507,0.0,0.0,0.0,0.0,2.3637,2.3584,2.3584,2.2262,2.1287,2.0752,1.8273,1.673,1.6236,1.3418,1.1281,0.9608,0.1177,-0.4156,-0.7059,-1.5404,-1.9663,-2.0612,-2.1699,-2.2541,-2.3218,-2.3813,-2.4313,-2.4754,-2.518,-2.4928,-2.4417,-2.5034,-2.4529,-2.3418,-2.2559,-2.0318,-1.7979,-1.8004,-1.6324,-1.4382,-1.4088,-1.4168,0.0,0.0,0.0,0.0,0.0,0.0,0.0,0.0,-0.4871,-0.337,-0.2335,-0.0722,0.0634,0.0895,0.0927,0.0832,0.0483,0.0495,0.0375,0.0,0.0,0.0,0.0,0.0,0.0,0.0,0.0,-0.0511,-0.1892,-0.2261,-0.3618,-0.6289,-0.7004,-0.792,-0.9129,-0.9459,-0.9432,-0.9157,-0.9123,-0.9604,-1.0672,-1.0845,-1.234,-1.4978,-1.5211,-1.5909,-1.7041,-1.6687,-1.6406,-1.6166,-1.5925,-1.5832,-1.592,-1.7225,-1.8411,-1.9679,-2.0845,-2.2031,-2.3135,0.0,0.0,0.0,0.0,0.0,0.0,0.0,0.0,0.0,0.0,0.0,0.0,0.0,0.0,0.0,0.0,0.0,0.0,2.4351,2.4575,2.4634,2.4634,2.3402,2.2247,2.1243,1.9519,1.7891,1.6387,1.5229,1.2733,0.8938,0.4753,-0.047,-0.6672,-1.4144,-1.8013,-1.9035,-2.0347,-2.159,-2.2695,-2.2773,-2.3144,-2.3748,-2.4505,-2.5135,-2.5326,-2.3319,-2.2926,-2.3075,-2.1279,-1.9134,-1.7251,-1.7246,-1.5801,-1.4082,-1.3781,-1.3714,-1.3594,-1.2926,-1.1851,-1.0609,-0.9531,-0.8563,-0.7862,0.0,-0.5942,-0.3587,-0.2289,0.0223,0.2618,0.4067,0.438,0.3854,0.245,0.2218,0.1729,0.0247,0.0,0.0,0.0,0.0,0.0,0.0,0.0,-0.0127,-0.0253,-0.1618,-0.2605,-0.3011,-0.5812,-0.7433,-0.7324,-0.8762,-0.9323,-0.9154,-0.9025,-0.8954,-0.9154,-1.0437,-1.195,-1.3588,-1.4849,-1.5866,-1.6727,-1.6166,-1.5912,-1.5879,-1.5845,-1.5832,-1.592,-1.7225,-1.8411,-1.9679,-2.0845,-2.2031,-2.3135,0.0,0.0,0.0,0.0,0.0,0.0,0.0,0.0,0.0,0.0,0.0,0.0,0.0,0.0,0.0,0.0,0.0,0.0,2.4238,2.4818,2.4958,2.4742,2.3042,2.1783,2.1141,1.9084,1.781,1.7329,1.6461,1.5264,1.365,0.7105,0.2167,-0.1623,-1.0557,-1.5165,-1.6345,-1.7934,-1.9164,-2.0005,-1.9621,-2.0064,-2.1059,-2.1626,-2.2522,-2.34,-2.2869,-2.1925,0.0,0.0,-1.7064,-1.4689,-1.4978,-1.3627,-1.201,-1.216,-1.2053,-1.1792,-1.1082,-0.9596,-0.8036,-0.7289,-0.6923,-0.681,-0.7147,-0.553,-0.3603,-0.234,0.0341,0.3003,0.4498,0.4851,0.4682,0.4059,0.384,0.3354,0.1727,0.1479,0.111,0.0123,0.0,0.0,0.0,0.0,0.0,0.0,-0.0619,-0.1483,-0.2486,-0.3825,-0.5365,-0.7083,-0.7679,-0.8372,-0.9154,-0.9011,-0.894,-0.8937,-0.9494,-1.0574,-1.2073,-1.3443,-1.4988,-1.6687,-1.6266,-1.5985,-1.5832,-1.5832,-1.5832,-1.592,-1.7225,-1.8411,-1.9679,-2.0845,-2.2031,-2.3135,0.0,0.0,0.0,0.0,0.0,0.0,0.0,0.0,0.0,0.0,0.0,0.0,0.0,0.0,0.0,0.0,0.0,0.0,0.0,2.4512,2.4874,2.4447,2.2515,2.1205,2.0692,1.8542,1.7519,1.7702,1.6941,1.6467,1.6167,0.9873,0.5482,0.2522,-0.6294,-1.1094,-1.2582,-1.464,-1.6261,-1.7406,-1.6937,-1.6929,-1.7394,-1.8611,-2.0052,-2.1488,-2.1847,-2.0732,0.0,0.0,-1.4547,-1.161,-1.2024,-1.0477,-0.87,-0.9406,-0.9409,-0.9027,-0.8332,-0.7112,-0.5855,-0.5234,-0.5574,-0.5992,-0.576,-0.487,-0.3483,-0.1443,0.1467,0.4235,0.6116,0.6666,0.666,0.6224,0.5802,0.4974,0.3449,0.3188,0.2451,0.0863,0.0614,0.0491,0.0,0.0,0.0,0.0,0.0,-0.0494,-0.1725,-0.2217,-0.3535,-0.5727,-0.6483,-0.7423,-0.8527,-0.8765,-0.894,-0.8937,-0.8825,-0.9559,-1.1129,-1.266,-1.4508,-1.6567,-1.6279,-1.6025,-1.5832,-1.5832,-1.5832,-1.592,-1.685,-1.7948,-1.9131,-2.0395,-2.1756,-2.3135,0.0,0.0,0.0,0.0,0.0,0.0,0.0,0.0,0.0,0.0,0.0,0.0,0.0,0.0,0.0,0.0,0.0,0.0,0.0,2.3613,2.4409,2.3758,2.2156,2.0847,1.9855,1.8299,1.7321,1.692,1.646,1.5381,1.3786,1.36,1.0188,0.4017,-0.1803,-0.5457,-0.7481,-1.0281,-1.3083,-1.5603,-1.558,-1.4261,-1.2669,-1.6019,-1.8634,-2.0435,-1.9687,0.0,0.0,0.0,-1.1527,-0.8353,-0.8192,-0.6284,-0.4274,-0.5228,-0.5363,-0.5108,-0.4789,-0.4435,-0.4021,-0.3767,-0.495,-0.598,-0.4541,-0.4186,-0.2978,0.1189,0.4607,0.7695,1.0555,1.1351,1.1114,0.9426,0.8122,0.6752,0.5039,0.4732,0.4111,0.2581,0.2308,0.1575,0.0123,0.0,0.0,0.0,0.0,0.0,-0.0123,-0.1602,-0.2428,-0.2352,-0.5274,-0.6809,-0.6821,-0.8159,-0.894,-0.894,-0.8933,-0.961,-1.1031,-1.3191,-1.498,-1.6266,-1.5972,-1.5838,-1.5832,-1.5832,-1.5832,-1.5832,-1.5825,-1.6669,-1.787,-1.9139,-2.1042,-2.3135,0.0,0.0,0.0,0.0,0.0,0.0,0.0,0.0,0.0,0.0,0.0,0.0,0.0,0.0,0.0,0.0,0.0,0.0,0.0,2.1618,2.2748,2.3141,2.0983,1.9523,1.9028,1.713,1.6281,1.6506,1.5556,1.4959,1.4729,1.2748,0.9814,0.6119,0.2262,-0.1193,-0.4238,-0.5858,-0.7723,-0.9509,-0.8503,-0.8147,-0.8381,-1.0828,-1.2746,-1.408,0.0,0.0,0.0,0.0,-0.9327,-0.5917,-0.5811,-0.3777,-0.1409,-0.1132,-0.0724,-0.0226,0.0324,0.026,0.0,0.0096,-0.2375,-0.4675,-0.4323,-0.4111,-0.3192,0.0106,0.3696,0.7206,1.004,1.178,1.2234,1.0646,1.0506,0.9664,0.6991,0.6657,0.605,0.4306,0.3211,0.235,0.1726,0.0617,0.0,0.0,0.0,0.0,0.0,-0.0494,-0.1343,-0.2388,-0.4245,-0.5798,-0.6807,-0.8196,-0.894,-0.8937,-0.8835,-0.9869,-1.2077,-1.2602,-1.4161,-1.6259,-1.5959,-1.5832,-1.5832,-1.5832,-1.5832,-1.5832,-1.5832,-1.6434,-1.7515,-1.8595,-1.9948,-2.1352,0.0,0.0,0.0,0.0,0.0,0.0,0.0,0.0,0.0,0.0,0.0,0.0,0.0,0.0,0.0,0.0,0.0,0.0,0.0,0.0,2.0321,2.1807,2.0101,1.8801,1.81,1.6179,1.5355,1.5711,1.4356,1.3862,1.414,1.1818,0.9512,0.7186,0.4762,0.205,-0.0738,-0.2397,-0.3851,-0.4991,-0.4728,-0.4702,-0.5251,-0.8453,-0.8907,0.0,0.0,0.0,0.0,0.0,-0.5262,-0.2095,-0.1946,-0.0142,0.227,0.3752,0.4239,0.4394,0.4511,0.3897,0.307,0.2228,-0.0985,-0.3791,-0.3536,-0.3712,-0.2901,0.0716,0.4158,0.7566,1.09,1.2571,1.3255,1.2267,1.1946,1.1059,0.9203,0.8545,0.7633,0.6108,0.5011,0.4014,0.2752,0.1619,0.0744,0.0,0.0,0.0,0.0,0.0,-0.0489,-0.1553,-0.3538,-0.4987,-0.6012,-0.7922,-0.8828,-0.8774,-0.8625,-0.9638,-1.1754,-1.1554,-1.2844,-1.5409,-1.5223,-1.5343,-1.5832,-1.5832,-1.5832,-1.5818,-1.5712,-1.6009,-1.6708,-1.7741,-1.8692,-1.9818,0.0,0.0,0.0,0.0,0.0,0.0,0.0,0.0,0.0,0.0,0.0,0.0,0.0,0.0,0.0,0.0,0.0,0.0,0.0,0.0,0.0,1.9385,1.8923,1.8041,1.6814,1.5063,1.4281,1.4424,1.2795,1.2044,1.2122,1.109,0.9434,0.7255,0.5811,0.4378,0.2875,0.0256,-0.1348,-0.2259,-0.3931,-0.3914,-0.3345,-0.7865,0.0,0.0,0.0,0.0,0.0,-0.0056,0.0569,0.3091,0.3291,0.4739,0.6811,0.9178,0.9421,0.8773,0.7804,0.6618,0.5101,0.2814,-0.078,-0.3514,-0.2343,-0.3027,-0.2344,0.2756,0.5828,0.8863,1.3143,1.406,1.4161,1.441,1.2472,1.1218,1.1532,1.0318,0.9032,0.8036,0.7738,0.645,0.3209,0.2792,0.2004,0.0247,0.0,0.0,0.0,0.0,0.0,0.0,-0.2812,-0.4378,-0.4467,-0.7236,-0.8621,-0.8469,-0.8333,-0.8965,-1.0142,-1.0074,-1.1356,-1.3776,-1.3878,-1.4555,-1.571,-1.571,-1.5798,-1.5758,-1.5484,-1.5364,-1.5494,-1.6507,-1.7494,-1.8675,0.0,0.0,0.0,0.0,0.0,0.0,0.0,0.0,0.0,0.0,0.0,0.0,0.0,0.0,0.0,0.0,0.0,0.0,0.0,0.0,0.0,0.0,0.0,0.0,0.0,0.0,0.0,0.0,0.0,0.9885,1.1146,1.0079,0.893,0.7681,0.6735,0.5693,0.4719,0.4251,0.2217,-0.0617,0.0,-0.261,-0.374,0.0,0.0,0.0,0.0,0.0,1.1951,0.6354,0.5958,0.8083,0.9483,1.0455,1.1427,1.3103,1.396,1.418,1.2894,1.0279,0.742,0.5468,0.0576,-0.3731,-0.3443,-0.3539,-0.2659,0.1208,0.5408,0.9544,1.3187,1.5503,1.6606,1.567,1.4342,1.3138,1.2293,1.0979,0.9982,0.9745,0.8651,0.7498,0.6552,0.4225,0.2542,0.2005,0.0747,0.0,0.0,0.0,0.0,0.0,-0.1836,-0.3248,-0.4276,-0.7105,-0.8469,-0.8323,-0.8289,-0.891,-1.0065,-1.0019,-1.0872,-1.2431,-1.3488,-1.3957,-1.4066,-1.5119,-1.5378,-1.5177,-1.5104,-1.4937,-1.4994,-1.6869,-1.7333,-1.7435,0.0,0.0,0.0,0.0,0.0,0.0,0.0,0.0,0.0,0.0,0.0,0.0,0.0,0.0,0.0,0.0,0.0,0.0,0.0,0.0,0.0,0.0,0.0,0.0,0.0,0.0,0.0,0.0,0.0,0.0,0.0,0.5634,0.5982,0.6185,0.665,0.6336,0.5477,0.0,0.0,0.0,0.0,0.0,0.0,0.0,0.0,0.0,0.0,0.0,1.9763,1.6342,1.4368,1.3599,1.5146,1.5698,1.6095,1.7392,1.7793,1.7434,1.5774,1.2147,0.8403,0.6281,0.103,-0.373,-0.3574,-0.3372,-0.1983,0.2098,0.6208,1.0327,1.4497,1.6404,1.7196,1.6746,1.5587,1.4391,1.3379,1.2098,1.1014,1.0476,0.9604,0.8676,0.7837,0.536,0.3425,0.2644,0.0995,0.0,0.0,0.0,0.0,0.0,-0.1474,-0.319,-0.5106,-0.6738,-0.7788,-0.817,-0.817,-0.8521,-0.9118,-0.9118,-0.9801,-1.1068,0.0,-1.2574,-1.3479,-1.413,-1.4644,-1.4937,-1.4676,-1.4476,-1.446,-1.5906,-1.6421,-1.6688,0.0,0.0,0.0,0.0,0.0,0.0,0.0,0.0,0.0,0.0,0.0,0.0,0.0,0.0,0.0,0.0,0.0,0.0,0.0,0.0,0.0,0.0,0.0,0.0,0.0,0.0,0.0,0.0,0.0,0.0,0.0,0.0,0.0,0.0,0.0,0.0,0.0,0.0,0.0,0.0,0.0,0.0,0.0,0.0,0.0,0.0,0.0,2.5376,2.6547,2.6702,2.3381,1.9243,2.0276,2.0437,2.0332,2.147,2.0886,1.948,1.7321,1.3181,0.8869,0.6198,0.1093,-0.3356,-0.3307,-0.2756,-0.0767,0.4049,0.7612,1.1387,1.6202,1.7054,1.7181,1.7762,1.6706,1.5476,1.479,1.3361,1.1983,1.0952,1.051,0.9653,0.8087,0.6445,0.4635,0.3011,0.1233,0.0243,0.0,0.0,0.0,0.0,-0.1451,-0.335,-0.5965,-0.6167,-0.6833,-0.8038,-0.8038,-0.8038,-0.8038,-0.8038,-0.8627,-0.9792,-0.9987,0.0,-1.3136,-1.3265,-1.3944,-1.4736,-1.4229,-1.4008,-1.4074,-1.4626,-1.5372,-1.6305,0.0,0.0,0.0,0.0,0.0,0.0,0.0,0.0,0.0,0.0,0.0,0.0,0.0,0.0,0.0,0.0,0.0,0.0,0.0,0.0,0.0,0.0,0.0,0.0,0.0,0.0,0.0,0.0,0.0,0.0,0.0,0.0,0.0,0.0,0.0,0.0,0.0,0.0,0.0,0.0,0.0,0.0,0.0,0.0,0.0,0.0,2.3437,2.7048,2.8924,2.9924,2.7359,2.3956,2.4684,2.4271,2.3449,2.3208,2.2418,2.1035,1.8701,1.4857,1.0595,0.6634,0.1701,-0.2389,-0.3318,-0.2726,-0.0762,0.3941,0.8373,1.2574,1.6237,1.8201,1.9276,1.951,1.7848,1.6654,1.7029,1.4523,1.2637,1.2627,1.1361,1.028,0.9905,0.814,0.6405,0.4807,0.2933,0.1273,0.012,0.0,0.0,0.0,-0.1367,-0.2798,-0.4338,-0.545,-0.6753,-0.8038,-0.8038,-0.8038,-0.8038,-0.8038,-0.8137,-0.8421,-1.0363,0.0,-1.1676,-1.3539,-1.4137,-1.3861,-1.3761,-1.3574,-1.358,-1.5289,-1.5813,-1.5938,0.0,0.0,0.0,0.0,0.0,0.0,0.0,0.0,0.0,0.0,0.0,0.0,0.0,0.0,0.0,0.0,0.0,0.0,0.0,0.0,0.0,0.0,0.0,0.0,0.0,-1.613,-1.7449,-1.9025,0.0,-1.4531,-1.369,-1.2503,-0.7814,-0.0297,0.1327,0.0,0.0,0.0,0.0,0.0,0.0,0.0,0.0,0.0,0.0,0.0,0.0,2.6287,2.8889,3.0682,2.9835,2.819,2.8431,2.7995,2.725,2.6054,2.4678,2.2907,1.9752,1.5767,1.1294,0.6624,0.1859,-0.2099,-0.3118,-0.2293,0.0,0.482,0.9382,1.3705,1.7316,1.8962,1.9783,1.98,1.8844,1.78,1.7274,1.5253,1.3554,1.3003,1.1362,1.0086,0.9944,0.8262,0.6829,0.6109,0.3673,0.1583,0.0116,0.0,0.0,0.0,-0.0622,-0.1949,-0.4016,-0.462,-0.6024,-0.8038,-0.8038,-0.8038,-0.8038,-0.8038,-0.7994,-0.7913,-0.8993,0.0,-1.0985,-1.1875,-1.2782,-1.3614,-1.33,-1.3093,-1.3172,-1.5009,-1.5568,-1.561,0.0,0.0,0.0,0.0,0.0,0.0,0.0,0.0,-0.2552,-0.4162,-0.7302,-1.0149,-1.2108,-1.3533,0.0,0.0,0.0,0.0,0.0,0.0,0.0,0.0,0.0,0.0,0.0,0.0,0.0,-1.9457,-1.9487,0.0,0.0,0.0,0.0,0.0,0.0096,0.3227,0.6399,0.0,0.0,0.0,0.0,0.7883,0.0,0.0,0.0,0.0,0.0,2.4162,2.744,3.0002,3.0874,3.0877,3.0902,3.073,3.0064,2.7974,2.6402,2.4415,2.0443,1.6255,1.1796,0.6355,0.1945,-0.1393,-0.2645,-0.1594,0.1109,0.6026,1.0376,1.4416,1.8108,1.9506,1.998,1.9742,1.9489,1.8871,1.7426,1.5747,1.4275,1.343,1.1202,0.9751,0.9578,0.8239,0.7206,0.6809,0.3918,0.1541,0.011,0.0,0.0,0.0,0.0,-0.1125,-0.3516,-0.3815,-0.522,-0.7537,-0.7839,-0.8038,-0.8038,-0.8007,-0.7926,-0.7801,-0.7904,0.0,0.0,-1.0634,-1.1757,-1.3494,-1.2959,-1.2782,-1.2845,-1.4336,-1.4972,-1.5217,0.0,0.0,0.0,0.0,0.0,0.0,0.0,0.0,-0.1937,-0.4053,-0.7567,-1.0971,-1.392,-1.5354,0.0,0.0,0.0,0.0,0.0,0.0,0.0,0.0,0.0,0.0,0.0,0.0,0.0,-1.8331,-1.8031,0.0,0.0,0.0,0.0,0.0,0.0,0.4095,1.127,1.0177,0.0,0.0,0.0,0.0,0.0,0.0,0.0,0.0,0.0,2.0684,2.4517,2.8021,2.9809,3.0628,3.1159,3.1066,3.0161,2.713,2.6285,2.5215,2.0486,1.6826,1.2689,0.5639,0.2615,0.0786,-0.196,-0.0654,0.2451,0.7283,1.0965,1.4366,1.7524,1.9725,2.0801,1.9886,1.9636,1.9445,1.8816,1.5941,1.4242,1.4791,1.1853,0.971,0.9429,0.9148,0.8267,0.6699,0.3717,0.1461,0.0105,0.0,0.0,0.0,0.0,-0.0707,-0.2213,-0.3416,-0.472,-0.6229,-0.7434,-0.8038,-0.8035,-0.7896,-0.7824,-0.789,-0.8606,0.0,0.0,-1.1483,-1.2312,-1.322,-1.2879,-1.2579,-1.2486,-1.347,-1.4183,-1.4728,0.0,0.0,0.0,0.0,0.0,0.0,0.0,0.0,-0.2896,-0.601,-0.9024,-1.2304,-1.5948,-1.7774,0.0,0.0,0.0,0.0,0.0,0.0,0.0,0.0,0.0,0.0,0.0,0.0,-1.6675,-1.6194,-1.5962,0.0,0.0,0.0,0.0,0.0,0.0,0.2656,0.6091,0.5589,0.0,0.0,0.0,0.0,0.0,0.0,0.0,0.0,0.0,0.0,2.0087,2.3743,2.5493,2.6315,2.7245,2.8003,2.8505,2.8616,2.7212,2.5194,2.3105,1.8858,1.3355,0.6466,0.3383,0.1117,-0.1793,-0.0561,0.2616,0.7431,1.0567,1.3552,1.7325,1.9215,1.9987,1.9306,1.9288,1.9104,1.7986,1.6005,1.45,1.4392,1.2173,1.0286,0.9367,0.9028,0.8212,0.6553,0.4475,0.2675,0.1325,0.0408,0.0,0.0,0.0,-0.0605,-0.2013,-0.3316,-0.472,-0.6029,-0.7251,-0.7902,-0.7896,-0.775,-0.7634,-0.7533,-0.7764,0.0,0.0,-1.0468,-1.1423,-1.2886,-1.2405,-1.2144,-1.2233,-1.35,-1.4082,-1.4397,0.0,0.0,0.0,0.0,0.0,0.0,-0.2388,-0.3087,-0.4767,-0.7698,-1.0982,-1.4275,-1.754,-1.9626,-1.9897,-1.7635,0.0,0.0,0.0,0.0,0.0,0.0,0.0,0.0,0.0,0.0,-1.5916,-1.4652,-1.3518,-1.1447,0.0,0.0,-0.3329,-0.2069,0.0,0.0,0.0,0.0,0.0,0.0,0.0,0.0,0.0,0.0,0.0,0.0,0.0,0.0,0.0,0.0,0.0,2.2055,2.3389,2.4478,2.5827,2.8061,2.7419,2.5678,2.4334,1.9978,1.4437,0.8227,0.4812,0.2219,-0.033,0.104,0.3986,0.803,1.0835,1.3574,1.6999,1.8625,1.9161,1.8572,1.8704,1.8448,1.7204,1.5713,1.4629,1.4351,1.2326,1.0651,0.9614,0.8897,0.7909,0.6405,0.4928,0.3464,0.2115,0.0702,0.0,0.0,0.0,-0.0404,-0.141,-0.3099,-0.4384,-0.5381,-0.694,-0.775,-0.7743,-0.755,-0.7407,-0.7292,-0.7095,0.0,0.0,-0.9513,-1.0631,-1.2513,-1.1937,-1.1737,-1.192,-1.3186,-1.3753,-1.4078,0.0,0.0,0.0,0.0,0.0,0.0,0.0,0.0,-0.7702,-0.8656,-1.32,-1.6908,-1.8412,-2.0639,-2.0859,-1.8054,0.0,0.0,0.0,0.0,0.0,0.0,0.0,0.0,0.0,0.0,0.0,-1.4121,-1.0755,-0.7633,-0.4695,-0.2207,-0.0613,0.0208,0.0,0.0,0.0,0.0,0.0,0.0,0.0,0.0,0.0,0.0,0.0,0.0,0.0,0.0,0.0,0.0,0.0,0.0,0.0,2.1176,2.191,2.4408,2.6464,2.7054,2.3197,1.9576,1.5817,1.0853,0.7322,0.466,0.3178,0.4639,0.7051,0.936,1.2152,1.474,1.6453,1.7905,1.853,1.781,1.7684,1.745,1.6826,1.5279,1.455,1.5163,1.2549,1.0661,1.0364,0.8921,0.7497,0.6387,0.4869,0.0,0.2113,0.0693,0.0,0.0,0.0,0.0,0.0,-0.2569,-0.3813,-0.3813,-0.6421,-0.76,-0.759,-0.7285,-0.7143,-0.7126,0.0,0.0,0.0,-0.9229,-1.0199,-1.185,-1.155,-1.143,-1.1498,-1.2376,-1.3026,-1.3545,0.0,0.0,0.0,0.0,0.0,0.0,0.0,0.0,-1.0379,-1.2902,-1.5414,-1.7782,-2.0011,-2.0879,-2.0146,-1.7237,0.0,0.0,0.0,0.0,0.0,0.0,0.0,0.0,0.0,0.0,0.0,0.0,-0.6791,-0.3972,-0.1217,0.1265,0.1957,0.1183,0.1909,0.1407,0.0,0.0,0.0,0.0,0.0,0.0,0.2904,0.0,0.0,0.0,0.0,0.0,0.0,0.0,0.0,0.0,0.0,0.0,0.0,1.8395,2.124,2.3475,2.2757,1.9381,1.5078,1.0453,0.8396,0.6885,0.4591,0.5947,0.8344,1.0723,1.2246,1.3796,1.5906,1.7052,1.7643,1.731,1.7527,1.7297,1.6272,1.5882,1.5432,1.475,1.246,1.0331,0.922,0.8511,0.7968,0.7503,0.6072,0.5023,0.463,0.2423,0.0873,0.0,0.0,0.0,0.0,-0.1711,-0.2913,-0.366,-0.5348,-0.6422,-0.7132,-0.6932,-0.6783,0.0,0.0,0.0,0.0,-0.8849,-0.9859,-1.1536,-1.1243,-1.1009,-1.0938,-1.1527,-1.2017,-1.2472,0.0,0.0,0.0,0.0,0.0,0.0,0.0,0.0,-1.3277,-1.5462,-1.726,-1.8966,-2.0612,0.0,0.0,0.0,0.0,0.0,0.0,0.0,0.0,0.0,0.0,0.0,0.0,0.0,0.0,0.0,0.0,0.0,0.2263,0.3849,0.3673,0.2091,0.2131,0.1363,0.0,0.0,0.0,0.0,0.0,0.0,0.2322,0.0,0.0,0.0,0.0,0.0,0.0,0.0,0.0,0.0,0.0,0.0,0.0,0.0,1.6438,1.9334,2.1138,1.9109,1.5687,1.2633,1.0585,0.8835,0.7204,0.8248,1.0078,1.1623,1.2806,1.3922,1.5402,1.6206,1.6629,1.6536,1.6807,1.6704,1.6074,1.6152,1.5633,1.3881,1.222,1.0467,0.8529,0.8235,0.8119,0.7967,0.6586,0.5741,0.5699,0.3205,0.1498,0.0664,0.0284,0.0,0.0,-0.1277,-0.2433,-0.3509,-0.469,-0.5785,-0.6753,-0.6603,-0.6451,0.0,0.0,0.0,0.0,-0.8294,-0.922,-1.0748,-1.0568,-1.0388,-1.0329,-1.0938,-1.1467,-1.2006,0.0,0.0,0.0,0.0,0.0,0.0,0.0,0.0,0.0,0.0,0.0,-2.0262,-2.034,0.0,0.0,0.0,0.0,0.0,0.0,0.0,0.0,0.0,0.0,0.0,0.0,0.0,0.0,-0.188,0.2417,0.4876,0.5607,0.0,0.4643,0.2865,0.1765,0.0794,0.0,0.0,0.0,0.0,0.0,0.0,0.0,0.0,0.0,0.0,0.0,0.0,0.0,0.0,0.0,0.0,0.0,0.0,0.0,0.0,0.0,0.0,0.0,1.8276,1.7127,1.6384,1.3363,1.0669,1.0732,1.1366,0.0,1.2188,1.3739,1.4963,1.4963,1.5424,1.5805,1.5825,1.5812,1.5905,1.6199,1.6259,1.5373,1.2778,1.2294,1.0988,0.8432,0.8127,0.8062,0.7821,0.6614,0.587,0.5667,0.3275,0.187,0.1956,0.0634,0.0,0.0,-0.1134,-0.2151,-0.3181,-0.436,-0.5406,-0.6337,-0.6288,-0.6142,0.0,0.0,0.0,0.0,-0.7668,-0.8483,-0.9686,-0.9686,-0.9673,-0.9762,-1.0536,-1.1288,-1.1931,0.0,0.0,0.0,0.0,0.0,0.0,0.0,0.0,0.0,0.0,0.0,0.0,0.0,0.0,0.0,0.0,0.0,0.0,0.0,0.0,0.0,0.0,0.0,0.0,0.0,0.0,0.0,0.2531,0.6185,0.7475,0.6583,0.6422,0.0,0.0,0.1781,0.0,0.0,0.0,0.0,0.0,0.0,0.0,0.0,0.0,0.0,0.0,0.3097,0.3766,0.0,0.0,0.0,0.0,0.0,0.0,0.0,0.0,0.8304,1.0021,1.2816,0.0,1.5294,1.3691,1.3065,1.2698,0.0,1.26,1.3287,1.3574,1.4328,1.4963,1.4963,1.5257,1.5571,1.5792,1.5645,1.5598,1.5892,1.6126,1.5673,1.387,1.3715,1.261,0.9612,0.9381,0.8902,0.7911,0.721,0.6824,0.6793,0.4353,0.304,0.2988,0.1068,0.0,0.0,-0.0246,-0.0965,-0.2006,-0.2996,-0.397,-0.4984,-0.5625,-0.583,0.0,0.0,0.0,-0.7568,-0.7461,-0.8289,-0.9686,-0.9686,-0.9546,-0.9395,-1.0151,-1.0685,-1.1172,0.0,0.0,0.0,0.0,0.0,0.0,0.0,0.0,0.0,0.0,0.0,0.0,0.0,0.0,0.0,0.0,0.0,0.0,0.0,0.0,0.0,0.0,0.0,0.0,0.0,0.0,0.0,0.0,0.0,0.9688,0.0,0.0,0.0,0.0,0.0,0.0,0.0,0.0,0.0,0.0,-0.0066,0.0,0.0,0.0,0.0,0.0,0.4194,0.4586,0.0,0.4688,0.5079,0.5473,0.0,0.0,0.0,0.0,0.6532,0.8057,1.0523,1.3194,1.5138,1.4304,1.4446,1.4552,1.3525,1.3613,1.4054,1.4699,1.519,1.5521,1.5521,1.5887,1.5978,1.5698,1.5611,1.5651,1.5805,1.5965,1.5577,1.4187,1.3872,1.2857,1.0821,0.9975,0.9239,0.8344,0.7545,0.7051,0.6844,0.5043,0.3774,0.3297,0.1534,0.0386,0.0,0.0,-0.0531,-0.1591,-0.2062,-0.301,-0.4263,-0.4755,-0.5067,0.0,0.0,0.0,-0.6717,-0.7013,-0.7777,-0.8826,-0.9167,-0.9185,-0.9038,-0.9463,-0.9918,-1.0415,0.0,0.0,0.0,0.0,0.0,0.0,0.0,0.0,0.0,0.0,0.0,0.0,0.0,0.0,0.0,0.0,0.0,0.0,0.0,0.0,0.0,0.0,0.0,0.0,0.0,0.0,0.0,0.0,0.0,0.0,0.0,0.0,0.5202,0.0,0.0,0.0,0.0,0.0,-0.1069,-0.1245,-0.0197,0.0,0.0,0.0,0.0,0.0,0.0,0.0,0.0,0.4841,0.4688,0.453,0.3435,0.0,0.0,0.0,0.0,0.0,0.9447,1.2717,1.5619,1.6022,1.6352,1.6267,1.5275,1.4794,1.4817,1.5786,1.6209,1.6367,1.642,1.6888,1.6943,1.6162,1.6033,1.6028,1.5892,1.5858,1.5406,1.4248,1.3692,1.2928,1.1719,1.0362,0.9298,0.8873,0.7672,0.6861,0.6461,0.5352,0.4227,0.3304,0.1977,0.0948,0.0223,0.0073,-0.0434,-0.1374,-0.1506,-0.23,-0.359,-0.384,-0.4249,-0.4732,0.0,0.0,-0.5883,-0.6587,-0.7196,-0.7777,-0.8533,-0.8804,-0.8804,-0.891,-0.9309,-0.9909,0.0,0.0,0.0,0.0,0.0,0.0,0.0,0.0,0.0,0.0,0.0,0.0,0.0,0.0,0.0,0.0,0.0,0.0,0.0,0.0,0.0,0.0,0.0,0.0,0.0,0.0,0.0,0.0,0.0,0.0,1.1039,0.902,0.5773,0.1675,0.0,0.0856,0.0,0.0,-0.0478,-0.1213,-0.0333,0.0,0.0,0.0,0.0,0.0,0.0,0.0,0.0,0.5306,0.4688,0.453,0.3435,0.0,0.0,0.0,0.0,0.0,0.693,1.1245,1.5359,1.6119,1.703,1.7711,1.7459,1.7111,1.6854,1.7009,1.73,1.7641,1.8018,1.8164,1.8345,1.8771,1.801,1.7131,1.6359,1.5985,1.5551,1.4871,1.495,1.4216,1.222,1.1163,0.9995,0.8585,0.7296,0.6491,0.6302,0.522,0.4343,0.4021,0.2279,0.1254,0.1094,0.0349,-0.0071,-0.0282,-0.1009,-0.1503,-0.1747,-0.3214,-0.3904,-0.3989,0.0,-0.5115,-0.5817,-0.6437,-0.7052,-0.7777,-0.8533,-0.8804,-0.8857,-0.9465,-0.971,-0.9961,0.0,0.0,0.0,0.0,0.0,0.0,0.0,0.0,0.0,0.0,0.0,0.0,0.0,0.0,0.0,0.0,0.0,0.0,0.0,0.0,0.0,0.0,0.0,0.0,0.0,0.0,0.0,0.0,0.0,1.3875,1.2413,0.9058,0.5545,0.2141,0.0,0.2094,0.1644,0.1141,0.0421,-0.0411,0.0,0.0,0.0,0.0,0.0,0.0,0.0,0.0,0.0,0.0,0.3889,0.2731,0.1029,0.0,0.0,0.0,0.0,0.0,0.68,1.1112,1.5205,1.7572,1.8877,1.9563,1.9501,1.8726,1.8113,1.8486,1.8672,1.8846,1.9019,1.9125,1.9341,1.9463,1.9039,1.8211,1.6987,1.6672,1.6148,1.51,1.4937,1.4432,1.3259,1.212,1.0789,0.9227,0.7899,0.6868,0.6098,0.5428,0.4788,0.4107,0.2747,0.182,0.1313,0.0466,0.0,0.0,-0.0383,-0.0811,-0.1226,-0.2412,-0.3143,-0.3558,0.0,-0.4791,-0.5117,-0.5745,-0.6416,-0.7182,-0.7937,-0.8427,-0.8837,-0.8978,-0.934,-0.9882,0.0,0.0,0.0,0.0,0.0,0.0,0.0,0.0,0.0,0.0,0.0,0.0,0.0,0.0,0.0,0.0,0.0,0.0,0.0,0.0,0.0,0.0,0.0,0.0,0.0,0.0,1.135,1.4172,1.4227,1.3755,1.2742,0.8564,0.5329,0.3137,0.0,0.3407,0.3051,0.2481,0.1512,0.0282,0.0,0.0,0.0,0.0,0.0,0.0,0.0,0.0,0.0,0.0,0.0,0.0,0.0,0.0,0.0,-0.1564,0.0083,0.2323,0.6515,1.0833,1.5027,1.8886,2.0583,2.1504,2.1949,2.0969,2.007,2.0557,2.0627,2.0407,2.0181,2.0347,2.0404,1.9923,1.9943,1.9298,1.7584,1.7206,1.6638,1.498,1.4556,1.4249,1.3814,1.2494,1.1169,0.9956,0.8509,0.7212,0.6115,0.5752,0.5122,0.4312,0.3357,0.2462,0.1577,0.0695,0.0188,0.0,0.0,-0.0301,-0.0881,-0.1629,-0.2343,-0.3065,-0.3901,-0.4349,-0.457,-0.5382,-0.6091,-0.6696,-0.7616,-0.8277,-0.8677,-0.8457,-0.8796,-0.9368,0.0,0.0,0.0,0.0,0.0,0.0,0.0,0.0,0.0,0.0,0.0,0.0,0.0,0.0,0.0,0.0,0.0,0.0,0.0,0.0,0.0,0.0,0.0,0.0,0.0,0.8793,1.1411,1.3124,1.4552,1.3602,1.04,0.7805,0.5592,0.3775,0.5151,0.469,0.298,0.3992,0.2793,0.0289,0.1234,0.0,0.0,0.0,0.0,0.0,0.0,0.0,0.0,0.0,0.0,0.0,0.0,0.0,-0.4499,-0.4343,-0.2032,0.1151,0.4342,0.9337,1.4634,1.8779,2.1181,2.3229,2.5579,2.4979,2.3919,2.3985,2.3573,2.2898,2.1899,2.2094,2.2074,2.1141,2.1114,2.0387,1.8018,1.7363,1.6469,1.4412,1.4128,1.3781,1.3003,1.1639,1.0754,1.0405,0.8365,0.7033,0.6829,0.5922,0.5308,0.5024,0.4074,0.3168,0.2422,0.1478,0.066,0.0,0.0,0.0,-0.0118,-0.0854,-0.1567,-0.2341,-0.3065,-0.379,-0.4625,-0.5987,-0.6534,-0.675,-0.8156,-0.8592,-0.8404,-0.8383,-0.8232,-0.8207,0.0,0.0,0.0,0.0,0.0,0.0,0.0,0.0,0.0,0.0,0.0,0.0,0.0,0.0,0.0,0.0,0.0,0.0,0.0,0.0,0.0,0.0,0.0,0.0149,0.2608,0.7096,1.0527,1.2887,1.3794,1.3134,1.0941,0.9151,0.0,0.7095,0.6949,0.6499,0.5775,0.5604,0.4192,0.189,0.2327,0.2463,0.0,0.0,0.0,0.0,0.0,0.0,0.0,0.0,0.4709,0.0534,0.0,0.0,-0.8268,-0.7745,-0.4787,-0.0776,0.3542,0.9684,1.5785,1.9495,2.2524,2.4922,2.6236,2.5835,2.5026,2.4777,2.4336,2.3535,2.2172,2.2441,2.2688,2.2044,2.2015,2.1392,1.938,1.8333,1.6955,1.4936,1.4049,1.326,1.2538,1.1905,1.1103,1.0184,0.8746,0.7573,0.6839,0.5814,0.5152,0.5003,0.4078,0.345,0.3166,0.1819,0.0937,0.0697,0.023,0.0,0.0,-0.0788,-0.1436,-0.2113,-0.2984,-0.3701,-0.4254,-0.4977,-0.5681,-0.638,-0.7704,-0.8076,-0.7856,-0.7856,-0.785,-0.8012,0.0,0.0,0.0,0.0,0.0,0.0,0.0,0.0,0.0,0.0,0.0,0.0,0.0,0.0,0.0,0.0,0.0,0.0,0.0,0.0,0.0,0.0,0.0,-0.2338,0.0143,0.423,0.8163,1.1843,1.2845,1.2729,1.1419,0.0,0.9439,0.8898,0.8533,0.8239,0.7941,0.6997,0.5367,0.342,0.3158,0.3062,0.0,0.0,0.0,0.0,0.0,0.0,0.0,0.0,0.4504,0.0,0.0,0.0,0.0,0.0,-0.7199,-0.2192,0.2837,0.9476,1.6004,1.9992,2.3157,2.5625,2.6757,2.6671,2.6398,2.6211,2.5015,2.369,2.2827,2.2685,2.2646,2.2363,2.2432,2.1824,1.9933,1.8611,1.7033,1.493,1.3649,1.2685,1.2084,1.1764,1.1227,1.0325,0.9259,0.822,0.709,0.6014,0.5239,0.485,0.4198,0.3776,0.3519,0.2136,0.1315,0.1118,0.0336,0.0,0.0,-0.0719,-0.1413,-0.202,-0.2902,-0.3522,-0.4036,-0.4498,-0.5328,-0.6412,-0.729,-0.7596,-0.7513,-0.7513,-0.7543,-0.7692,0.0,0.0,0.0,0.0,0.0,0.0,0.0,0.0,0.0,0.0,0.0,0.0,0.0,0.0,0.0,0.0,0.0,0.0,0.0,0.0,0.0,0.0,0.0,-0.5848,-0.1908,0.034,0.421,0.9695,1.1881,1.2358,1.1337,1.0657,0.9703,0.8654,0.9651,0.9755,0.9025,0.7823,0.6271,0.4493,0.3505,0.3124,0.3657,0.0,0.0,0.0,0.0,0.0,0.0,0.0,0.5111,-0.1346,0.0,0.0,0.0,0.0,-0.9163,-0.3078,0.2127,0.8524,1.487,2.0123,2.2886,2.496,2.7491,2.8109,2.8251,2.8778,2.599,2.3629,2.4093,2.296,2.1885,2.1885,2.2227,2.1697,1.9368,1.8132,1.6545,1.4041,1.2865,1.2064,1.1476,1.1156,1.0989,1.0989,0.9934,0.8828,0.7747,0.6745,0.5723,0.4752,0.4541,0.4125,0.3345,0.2565,0.1842,0.1118,0.0336,0.0,0.0,-0.0649,-0.1277,-0.2012,-0.2655,-0.3313,-0.4065,-0.4796,-0.5868,-0.7092,-0.7086,-0.7251,-0.7506,-0.7506,-0.7275,-0.7147,0.0,0.0,0.0,0.0,0.0,0.0,0.0,0.0,0.0,0.0,0.0,0.0,0.0,0.0,0.0,0.0,0.0,0.0,0.0,0.0,0.0,0.0,0.0,0.0,0.0,0.0,0.5019,1.1012,1.2629,1.3491,0.0,1.2372,1.1794,1.1867,1.1019,0.9896,0.8745,0.8753,0.6629,0.3351,0.3179,0.2657,0.2572,0.0,0.0,0.0,0.0,0.0,0.0,0.0,0.0,0.0,0.0,0.0,0.0,-1.7789,-1.2443,-0.5669,0.0428,0.8593,1.6404,2.0887,2.4236,2.671,2.7823,2.8109,2.794,2.7323,2.6042,2.4588,2.3345,2.2977,2.2534,2.1556,2.1269,2.0819,1.9813,1.8035,1.6266,1.4579,1.3112,1.1963,1.1202,1.0862,1.0688,1.0688,0.9643,0.8555,0.7586,0.6538,0.5485,0.4591,0.4539,0.4405,0.4125,0.2843,0.2063,0.184,0.06,0.0,0.0,-0.0642,-0.1242,-0.1919,-0.2596,-0.3217,-0.3756,-0.4377,-0.4905,-0.5494,-0.6203,-0.6493,-0.6644,-0.7026,-0.7094,-0.7063,0.0,0.0,0.0,0.0,0.0,0.0,0.0,0.0,0.0,0.0,0.0,0.0,0.0,0.0,0.0,0.0,0.0,0.0,0.0,0.0,0.0,0.0,0.0,0.0,0.0,-0.2496,0.3113,0.0,0.0,0.0,1.4337,1.341,1.3104,1.3127,1.1325,1.0085,0.934,0.8734,0.6541,0.3465,0.2778,0.2109,0.2031,0.0,0.0,0.0,0.0,0.0,0.0,0.0,0.0,0.0,0.0,0.0,0.0,-2.0478,-1.4371,-0.6851,-0.0636,0.8311,1.6953,2.14,2.4957,2.7431,2.7984,2.8273,2.8139,2.731,2.6212,2.502,2.3727,2.2981,2.2201,2.1346,2.07,2.0039,1.9268,1.7675,1.616,1.4927,1.3275,1.1948,1.1389,1.091,1.0514,1.0394,0.971,0.889,0.0,0.687,0.5854,0.4956,0.4625,0.4519,0.4519,0.2954,0.2174,0.2174,0.0702,0.0,0.0,-0.0617,-0.1243,-0.1852,-0.2775,-0.3321,-0.3622,-0.3965,-0.4284,-0.4685,-0.5494,-0.6007,-0.627,-0.681,-0.6979,-0.7021,0.0,0.0,0.0,0.0,0.0,0.0,0.0,0.0,0.0,0.0,0.0,0.0,0.0,0.0,0.0,0.0,0.0,0.0,0.0,0.0,0.0,0.0,0.0,0.0,0.0,0.0,0.0,0.0,0.0,0.0,1.38,1.3768,1.3533,1.2998,1.0969,1.0219,1.0265,0.8065,0.6002,0.4126,0.2302,0.1479,0.1563,0.3589,0.0,0.0,0.0,0.0,0.0,0.0,0.0,0.0,-2.3203,-2.4505,-2.4096,-2.1758,-1.5023,-0.7057,-0.0937,0.7758,1.6295,2.1504,2.5036,2.741,2.7984,2.8411,2.8549,2.7984,2.6308,2.4932,2.4708,2.2795,2.1199,2.1084,2.033,1.9316,1.8115,1.7163,1.6142,1.506,1.3377,1.2157,1.1856,1.1045,1.0441,1.014,1.0094,0.9531,0.8253,0.7464,0.6565,0.5546,0.4842,0.4519,0.4519,0.2954,0.2227,0.2164,0.0699,0.0,0.0,-0.063,-0.1281,-0.193,-0.3044,-0.3534,-0.3581,-0.3581,-0.388,-0.4391,-0.5,-0.5556,-0.6143,-0.6687,-0.6884,-0.6989,0.0,0.0,0.0,0.0,0.0,0.0,0.0,0.0,0.0,0.0,0.0,0.0,0.0,0.0,0.0,0.0,0.0,0.0,0.0,0.0,0.0,0.0,0.0,0.0,0.0,0.0,0.0,0.0,0.0,1.1309,1.3195,1.2999,1.2946,1.2878,1.0949,0.9604,0.8658,0.7658,0.5712,0.3088,0.1886,0.046,-0.0625,0.2215,0.4938,0.0,0.0,0.0,0.0,0.0,0.0,0.0,-2.6565,-2.6965,-2.4984,-2.1071,-1.4729,-0.7389,-0.0416,0.6452,1.316,1.9271,2.381,2.7004,2.7913,2.7532,2.6829,2.6251,2.5423,2.4607,2.3756,2.2616,2.1446,2.0397,1.9163,1.8203,1.7598,1.6786,1.586,1.5022,1.3661,1.253,1.1903,1.1045,1.0441,1.014,0.9907,0.0,0.8241,0.7252,0.6356,0.5542,0.4842,0.4519,0.4519,0.2954,0.2201,0.0,0.0727,0.0,0.0,-0.0622,-0.1493,-0.2528,-0.2776,-0.317,-0.3581,-0.3581,-0.3667,-0.384,-0.4395,-0.4815,-0.5255,-0.5792,-0.614,-0.6384,0.0,0.0,0.0,0.0,0.0,0.0,0.0,0.0,0.0,0.0,0.0,0.0,0.0,0.0,0.0,0.0,0.0,0.0,0.0,0.0,0.0,0.0,0.0,0.0,0.0,0.0,0.0,0.0,0.0,0.7983,1.0833,1.1468,1.171,1.15,0.9567,0.8408,0.7769,0.6422,0.47,0.2794,0.1293,-0.0231,-0.1408,0.0154,0.2261,0.4854,0.8882,0.0,0.0,0.0,0.0,0.0,0.0,0.0,-2.3458,-1.8946,-1.3327,-0.7251,-0.0829,0.5374,1.1666,1.8439,2.2114,2.4374,2.5924,2.5677,2.5019,2.4881,2.4619,2.414,2.3323,2.2256,2.1164,2.0064,1.8812,1.7606,1.687,1.6419,1.5856,1.5223,1.4049,1.3229,1.2976,1.1548,1.0594,1.0491,0.0,0.9171,0.8494,0.7307,0.6421,0.6036,0.5062,0.4294,0.3901,0.2788,0.2028,0.1642,0.0513,0.0,0.0,-0.0601,-0.1414,-0.2273,-0.2583,-0.2997,-0.347,-0.347,-0.3425,-0.3441,-0.4209,-0.469,-0.508,-0.5689,-0.6143,-0.6384,0.0,0.0,0.0,0.0,0.0,0.0,0.0,0.0,0.0,0.0,0.0,0.0,0.0,0.0,0.0,0.0,0.0,0.0,0.0,0.0,0.0,0.0,0.0,0.0,0.0,0.0,0.0,0.0,-0.046,0.3737,0.7086,0.9306,1.0025,0.9238,0.7695,0.6929,0.6764,0.4751,0.3463,0.2417,0.0461,-0.0933,-0.1879,-0.2103,-0.0533,0.2001,0.4087,-0.0347,-0.7177,-0.7592,0.0,0.0,0.0,0.0,-2.0519,-1.6136,-1.1454,-0.654,-0.1251,0.4782,1.1081,1.7597,1.9912,2.113,2.3212,2.3435,2.3251,2.3487,2.3717,2.3703,2.3165,2.1934,2.0733,1.9912,1.8707,1.7459,1.6187,1.5999,1.5871,1.5342,1.4231,1.3624,1.4069,1.201,1.0736,1.0906,0.0,0.9057,0.8824,0.7509,0.675,0.6588,0.5332,0.4233,0.3345,0.255,0.1848,0.1104,0.0353,0.0,0.0,-0.0538,-0.1073,-0.1697,-0.2258,-0.2767,-0.3178,-0.3279,-0.3236,-0.3197,-0.4105,-0.4649,-0.5029,-0.5708,-0.6162,-0.6402,0.0,0.0,0.0,0.0,0.0,0.0,0.0,0.0,0.0,0.0,0.0,0.0,0.0,0.0,0.0,0.0,0.0,0.0,0.0,0.0,0.0,0.0,-1.7618,0.0,0.0,0.0,0.0,0.0,-0.4453,-0.1191,0.1272,0.6536,0.8047,0.6298,0.5885,0.5269,0.4421,0.3336,0.2358,0.1359,-0.0753,-0.2063,-0.2968,-0.3902,-0.3492,-0.2077,0.0,-0.3413,-0.8981,-0.8515,-1.3872,0.0,0.0,0.0,-1.6364,-1.3483,-0.9304,-0.4724,-0.0749,0.495,1.0689,1.4569,1.6888,1.8753,2.0811,2.1496,2.1674,2.1738,2.2546,2.3226,2.309,2.1934,2.0616,1.9531,1.8739,1.7615,1.5723,1.5725,1.5673,1.4985,1.3747,1.3155,1.3615,1.1873,1.0736,1.0906,0.9841,0.9057,0.8824,0.7996,0.7235,0.6642,0.5819,0.4721,0.34,0.2599,0.1836,0.1116,0.0331,0.0,0.0,-0.009,-0.0448,-0.1027,-0.1549,-0.2065,-0.2631,-0.3007,-0.3141,-0.3159,-0.3702,-0.4066,-0.4393,-0.4893,-0.5252,-0.5484,0.0,0.0,0.0,0.0,0.0,0.0,0.0,0.0,0.0,0.0,0.0,0.0,0.0,0.0,0.0,0.0,0.0,0.0,0.0,0.0,0.0,-1.6792,-1.7605,-1.7665,-1.6899,0.0,0.0,-0.9134,-0.573,-0.2986,-0.0794,0.2965,0.454,0.4207,0.4141,0.3802,0.3461,0.2401,0.1747,0.1336,-0.0155,-0.1716,-0.3182,-0.361,-0.429,-0.4673,-0.3179,-0.5162,-0.8442,-0.8099,-1.1073,-1.4823,-1.4701,0.0,0.0,0.0,-0.7074,-0.4449,-0.0753,0.353,0.7567,1.0142,1.2325,1.4467,1.6899,1.8095,1.893,1.9952,2.0348,2.0923,2.2176,2.138,2.044,1.9995,1.9157,1.7935,1.6228,1.5963,1.5628,1.4897,1.3857,1.3406,1.3819,1.2333,1.1436,0.0,1.0379,0.9503,0.9368,0.8302,0.7343,0.6642,0.5869,0.4827,0.3345,0.2585,0.1598,0.0489,0.0139,0.0,0.0,0.0,-0.0314,-0.0937,-0.1412,-0.1859,-0.2369,-0.2794,-0.2951,-0.2908,-0.3365,-0.3836,-0.4332,-0.461,-0.5082,-0.5531,0.0,0.0,0.0,0.0,0.0,0.0,0.0,0.0,0.0,0.0,0.0,0.0,0.0,0.0,0.0,0.0,0.0,0.0,0.0,0.0,0.0,-1.6531,-1.7501,-1.7647,-1.6991,0.0,0.0,-0.9794,-0.6828,-0.4308,-0.2271,-0.0397,0.0812,0.1586,0.2263,0.2485,0.2263,0.1337,0.1032,0.1063,0.0,-0.1517,-0.3147,-0.3388,-0.4686,-0.6183,-0.5392,-0.6086,-0.7395,-0.7331,-0.8454,-0.998,-0.984,-0.9603,0.0,0.0,0.0,-0.455,-0.1101,0.1644,0.4125,0.6596,0.8568,1.0639,1.3479,1.4924,1.6147,1.787,1.7865,1.8181,2.0329,2.0356,2.0094,2.0163,1.9497,1.8436,1.6978,1.6405,1.5848,1.4994,1.406,1.3633,1.3945,1.2647,1.1986,0.0,1.0837,0.9814,0.9814,0.862,0.7563,0.6642,0.6091,0.4992,0.3345,0.2404,0.1263,0.0,0.0,0.0,0.0,0.0,-0.0268,-0.0703,-0.1178,-0.1605,-0.2023,-0.2474,-0.2681,-0.2746,-0.313,-0.3718,-0.4319,-0.4541,-0.5014,-0.5638,0.0,0.0,0.0,0.0,0.0,0.0,0.0,0.0,0.0,0.0,0.0,0.0,-0.7398,-0.7274,-0.7548,-0.8468,0.0,0.0,0.0,0.0,0.0,-1.654,-1.7501,0.0,-1.794,-1.6079,-1.401,-1.1724,-0.8799,-0.6353,-0.4295,-0.3209,-0.273,-0.2679,0.0334,0.1075,0.0163,0.0083,0.0084,0.0,-0.1064,-0.2187,-0.3227,-0.4256,-0.5315,-0.6261,-0.6257,-0.6257,-0.6416,-0.6335,-0.7096,-0.7897,-0.7554,-0.7432,-0.7526,0.0,0.0,0.0,-0.1781,-0.0347,0.1332,0.5151,0.6925,0.8553,1.1481,1.2991,1.4063,1.5201,1.5135,1.5399,1.7106,1.8643,1.9626,1.9626,1.9699,1.9202,1.7743,1.7218,1.6516,1.5321,1.4164,1.3516,1.3535,1.2488,1.1986,0.0,1.0837,0.9814,0.9814,0.9106,0.8103,0.6642,0.6588,0.5542,0.34,0.1882,0.0779,0.0,0.0,0.0,0.0,0.0,0.0,-0.0084,-0.0561,-0.0992,-0.1378,-0.1859,-0.232,-0.2746,-0.313,-0.3597,-0.4074,-0.4441,-0.4902,-0.5361,0.0,0.0,0.0,0.0,0.0,0.0,0.0,0.0,0.0,0.0,0.0,0.0,0.0,-0.7748,-0.8042,-0.9625,-1.1088,0.0,0.0,0.0,0.0,-1.6549,-1.7501,-1.8008,-1.8008,-1.6158,-1.4482,-1.3006,-1.0557,-0.8001,-0.5466,-0.4863,-0.3997,-0.2906,-0.1858,-0.1234,-0.0995,-0.099,-0.067,0.0,-0.0419,-0.1673,-0.3285,-0.3568,-0.4793,-0.6396,-0.6396,-0.6396,-0.6413,-0.6512,-0.6715,-0.6931,-0.6791,-0.6966,-0.7298,-0.7922,-0.7148,-0.5774,-0.4228,-0.2288,-0.0271,0.1744,0.3944,0.6036,0.7783,0.8928,1.0119,1.1706,1.1744,1.2101,1.4337,1.6145,1.7788,1.9344,1.93,1.8927,1.8382,1.7961,1.7203,1.5807,1.5018,1.4286,1.3576,1.3147,1.2852,0.0,0.0,1.0914,1.0466,0.9814,0.8771,0.7343,0.6858,0.5486,0.324,0.219,0.1324,0.0583,0.018,0.0,0.0,-0.0404,-0.0517,-0.0481,-0.1025,-0.1294,-0.1337,-0.1818,-0.2281,-0.2716,-0.2841,-0.3368,-0.4026,-0.4156,-0.4852,-0.5674,0.0,0.0,0.0,0.0,0.0,0.0,0.0,0.0,0.0,0.0,0.0,0.0,0.0,0.0,-0.91,-1.1046,-1.2274,-1.343,-1.4309,-1.5387,-1.6347,-1.7255,-1.7724,-1.8008,-1.8008,0.0,0.0,0.0,0.0,-0.9574,-0.7016,-0.6664,-0.5935,-0.4878,-0.4844,-0.382,-0.207,-0.1728,-0.1176,-0.0521,-0.017,-0.1362,-0.328,-0.3268,-0.4613,-0.6556,-0.6607,-0.6593,-0.6644,-0.7151,-0.6919,-0.6551,-0.6947,-0.7291,-0.7631,-0.789,-0.7747,-0.727,-0.6036,-0.4238,-0.2197,-0.0341,0.179,0.3823,0.516,0.6491,0.7803,0.912,0.9282,0.9886,1.2123,1.3439,1.5188,1.8395,1.8767,1.8768,1.9044,1.8638,1.7885,1.6758,1.6134,1.5391,1.4295,1.3993,1.3661,0.0,0.0,0.0,1.1166,1.0269,0.903,0.7325,0.6531,0.5172,0.306,0.2546,0.1814,0.0895,0.0493,0.009,-0.0314,-0.0662,-0.0884,-0.1015,-0.1345,-0.1521,-0.1552,-0.1873,-0.2281,-0.2712,-0.2712,-0.3241,-0.3993,-0.3993,-0.4814,-0.5868,0.0,0.0,0.0,0.0,0.0,0.0,0.0,0.0,0.0,-1.367,0.0,0.0,0.0,0.0,0.0,-1.2626,-1.3111,-1.3987,-1.5733,-1.5781,-1.6584,-1.8492,0.0,0.0,0.0,0.0,0.0,0.0,0.0,0.0,0.0,0.0,-0.8654,-0.8767,-0.8487,-0.6441,-0.315,-0.2151,-0.1611,-0.1471,-0.0425,-0.1364,-0.3296,-0.3554,-0.4869,-0.6732,-0.6875,-0.6834,-0.6871,-0.8012,-0.757,-0.6715,-0.7878,-0.8323,-0.8389,-0.8154,-0.8678,-0.8935,0.0,0.0,0.0,-0.0999,0.068,0.2009,0.387,0.5783,0.7178,0.7355,0.7848,0.8802,1.0443,1.0611,1.1959,1.6563,1.8055,1.8874,1.9643,1.915,1.8589,1.8139,1.7514,1.6649,1.5609,1.4974,1.4429,0.0,1.2589,1.1864,1.1814,1.0517,0.8779,0.6514,0.5733,0.4588,0.2989,0.2934,0.2227,0.094,0.0894,0.0268,-0.0892,-0.0768,-0.1061,-0.1598,-0.1409,-0.1585,-0.2014,-0.2014,-0.2281,-0.2712,-0.2712,-0.3237,-0.4026,-0.4026,-0.4814,-0.5922,0.0,0.0,0.0,0.0,0.0,0.0,0.0,0.0,-1.4475,0.0,0.0,0.0,-1.1044,-1.1811,-1.252,-1.3008,-1.4517,-1.5578,-1.6079,-1.7439,-1.837,-1.8572,-1.8828,-1.8789,0.0,0.0,0.0,0.0,0.0,0.0,0.0,0.0,0.0,0.0,-0.8275,-0.7447,-0.5905,-0.4206,-0.2792,-0.1473,-0.0432,-0.1495,-0.3612,-0.3418,-0.4872,-0.701,-0.6949,-0.6902,-0.6881,-0.7321,-0.7098,-0.6884,-0.7983,-0.8837,-0.957,-0.9805,-1.004,-0.9977,-0.886,0.0,0.0,0.0,0.0,0.0,0.0943,0.2101,0.3139,0.3883,0.4672,0.5519,0.6626,0.8329,1.0345,1.2837,1.4907,1.6881,1.8756,1.8821,1.8655,1.8577,1.8342,1.763,1.6165,1.5875,0.0,0.0,1.3474,1.2841,1.1864,1.0517,0.894,0.7087,0.6347,0.5392,0.4206,0.3218,0.2346,0.1561,0.1126,0.0299,-0.0768,-0.1182,-0.1554,-0.1921,-0.2301,-0.2466,-0.248,-0.2147,-0.2441,-0.3134,-0.3134,-0.3653,-0.4441,-0.4441,-0.5251,-0.6247,0.0,0.0,0.0,0.0,0.0,0.0,0.0,0.0,-1.4565,0.0,0.0,0.0,-1.2289,-1.3342,-1.4137,-1.4479,-1.5484,-1.6523,-1.7398,-1.8336,-1.8982,-1.9107,-1.9072,-1.8984,-1.8906,0.0,0.0,0.0,0.0,0.0,0.0,0.0,0.0,0.0,0.0,-0.891,-0.7947,-0.6054,-0.4086,-0.2024,-0.1024,-0.1941,-0.377,-0.3624,-0.5167,-0.7319,-0.7238,-0.7166,-0.7204,-0.7661,-0.7959,-0.8129,-0.8567,-0.926,-0.9914,-1.0005,-1.0301,-1.0301,-0.9069,-0.8011,-0.682,-0.5193,0.0,0.0,-0.0723,0.046,0.1577,0.2041,0.2829,0.3743,0.4579,0.6236,0.8067,0.9726,1.1518,1.3843,1.7236,1.8317,1.8715,1.8715,1.8746,1.8353,1.7166,1.6578,1.5816,1.4651,1.4086,1.3226,1.1864,1.0813,0.943,0.7666,0.6715,0.5671,0.4604,0.3561,0.2654,0.1781,0.1425,0.0548,-0.0814,-0.1268,-0.1713,-0.2098,-0.2589,-0.2764,-0.2679,-0.2414,-0.2673,-0.329,-0.329,-0.3849,-0.4602,-0.4602,-0.5408,-0.6381,0.0,0.0,0.0,0.0,0.0,0.0,0.0,0.0,0.0,0.0,-1.4018,-1.2784,-1.3387,-1.434,-1.5369,-1.6264,-1.632,-1.7179,-1.9127,-1.8852,-1.9,-1.9837,-1.9228,-1.9014,-1.9346,0.0,0.0,0.0,0.0,0.0,0.0,0.0,0.0,0.0,0.0,0.0,-0.9382,-0.7725,-0.556,-0.3159,-0.2158,-0.2614,-0.3783,-0.4031,-0.5571,-0.757,-0.7556,-0.7554,-0.7681,-0.8748,-0.9541,-0.9987,-0.9494,-0.9696,-1.003,-0.9592,-1.0027,-1.027,-0.8619,-0.8091,-0.7432,-0.4938,-0.3459,0.0,-0.1607,0.0,0.1272,0.1152,0.1919,0.2804,0.3554,0.4338,0.5381,0.7026,0.7939,1.02,1.5261,1.7313,1.8347,1.8543,1.8802,1.8819,1.8254,1.7188,1.625,1.5623,1.4503,1.3226,1.1864,1.1166,0.9998,0.8308,0.693,0.5669,0.4552,0.3935,0.2979,0.1811,0.1778,0.0844,-0.0898,-0.116,-0.1616,-0.2185,-0.253,-0.2712,-0.2712,-0.2712,-0.2973,-0.3392,-0.3392,-0.3914,-0.4698,-0.4724,-0.5501,-0.6381,-2.4149,0.0,0.0,0.0,0.0,0.0,0.0,0.0,-1.4809,-1.5171,-1.481,-1.4641,-1.4897,-1.5013,-1.5452,-1.6585,-1.7439,-1.8405,-1.9453,-2.0188,-2.042,-1.9941,-2.0088,-2.0068,-1.9805,-1.9707,0.0,0.0,0.0,0.0,0.0,0.0,0.0,0.0,0.0,0.0,-0.9594,-0.8513,-0.7134,-0.5402,-0.3645,-0.3311,-0.3864,-0.4813,-0.6119,-0.74,-0.7275,-0.783,-0.874,-0.9738,-1.0579,-1.1061,-1.0587,-1.0979,-1.1383,-1.081,-1.0778,-1.066,-0.9385,-0.8549,-0.7697,-0.6453,-0.4829,0.0,-0.2629,-0.1449,-0.0434,0.0124,0.0932,0.1612,0.1797,0.2629,0.3452,0.3827,0.4466,0.6973,1.267,1.4821,1.6276,1.7564,1.8497,1.8819,1.8254,1.7597,1.6741,1.568,1.4503,1.3226,1.1864,1.1166,1.0266,0.919,0.7224,0.5981,0.543,0.4211,0.2981,0.1806,0.182,0.0912,-0.0741,-0.1114,-0.1581,-0.2078,-0.2493,-0.2712,-0.2712,-0.2712,-0.3171,-0.3858,-0.3858,-0.4409,-0.5214,-0.5515,-0.5998,-0.641,-2.3597,0.0,0.0,0.0,0.0,0.0,0.0,0.0,-1.4897,-1.5337,-1.5398,-1.5722,-1.6422,-1.6395,-1.7093,-1.8847,-1.9391,-1.9995,-2.1006,-2.113,-2.1045,-2.0596,-2.0361,-2.0244,-2.0244,-2.0029,-1.9344,0.0,0.0,0.0,0.0,0.0,0.0,0.0,0.0,-1.1731,-1.1202,-0.9384,-0.7908,-0.6563,-0.4779,-0.4357,-0.4785,-0.5285,-0.6341,-0.7557,-0.793,-0.8785,-0.9908,-1.099,-1.1381,-1.1523,-1.1893,-1.1968,-1.1784,-1.1336,-1.1102,-1.0692,-0.9427,-0.8521,-0.7713,-0.6619,-0.5318,0.0,0.0,-0.2669,-0.1981,-0.1262,-0.0721,-0.042,-0.042,0.0294,0.093,0.1004,0.1303,0.2915,0.6713,1.0247,1.3016,1.4576,1.6196,1.7231,1.7298,1.7082,1.6591,1.5656,1.4778,1.3805,1.2841,1.1507,1.0506,0.9914,0.7492,0.6049,0.5682,0.4316,0.3005,0.1814,0.1818,0.1065,-0.0377,-0.0788,-0.1238,-0.1676,-0.2145,-0.248,-0.2712,-0.2712,-0.3204,-0.3993,-0.3993,-0.4543,-0.534,-0.5765,-0.6152,-0.644,-2.288,-2.2157,0.0,0.0,0.0,0.0,0.0,0.0,-1.5497,-1.5758,-1.6015,-1.6574,-1.7598,-1.787,-1.898,-2.123,-2.1049,-2.1364,-2.2551,-2.1914,-2.1406,-2.124,-2.0557,-2.0293,-2.0557,-2.0225,-1.9611,0.0,0.0,0.0,0.0,0.0,0.0,0.0,0.0,-1.3325,-1.2818,-1.0432,-0.8723,-0.7626,-0.6163,-0.5545,-0.5556,-0.5764,-0.6572,-0.7677,-0.8976,-1.006,-1.1117,-1.2184,-1.2206,-1.197,-1.2811,-1.2585,-1.1884,-1.153,-1.1263,-1.0732,-0.9202,-0.8509,-0.78,-0.6376,-0.5551,-0.4836,0.0,0.0,0.0,-0.238,-0.2206,-0.2206,-0.2206,-0.1924,-0.1676,-0.1607,0.0,0.0,0.0,0.4697,0.0,1.1102,1.3288,1.4997,1.5939,1.6308,1.6262,1.5644,1.5142,1.4567,1.3826,1.1895,1.0681,1.0489,0.7707,0.6117,0.579,0.4369,0.3008,0.182,0.1804,0.1162,0.0,-0.0476,-0.0919,-0.1338,-0.1811,-0.2281,-0.2712,-0.2779,-0.327,-0.3993,-0.3993,-0.4543,-0.5372,-0.5828,-0.6213,-0.644,-2.2804,-2.1659,-2.084,0.0,0.0,0.0,0.0,0.0,-1.6704,-1.5873,-1.6763,-1.7505,-1.7692,-1.868,-1.9995,-2.1733,-2.1473,-2.178,-2.2999,-2.2637,-2.2031,-2.1269,-2.1143,-2.0918,-2.0576,-2.0518,-2.0226,-1.9761,0.0,0.0,0.0,0.0,0.0,0.0,-1.4679,-1.3834,-1.3207,-1.2002,-1.0708,-0.9309,-0.8225,-0.6783,-0.5323,-0.6492,-0.6999,-0.7453,-0.9611,-1.1144,-1.2207,-1.3182,-1.3231,-1.3002,-1.2886,-1.2545,-1.2144,-1.159,-1.1403,-1.0981,-0.925,-0.8751,-0.8276,-0.6462,-0.5868,-0.5335,-0.3926,0.0,-0.314,-0.2355,0.0,-0.2188,-0.2188,0.0,0.0,-0.4003,-0.523,-0.562,-0.3958,-0.1031,0.2952,0.8435,1.0672,1.256,0.0,1.574,1.6178,1.5623,1.5475,1.492,1.3836,1.1895,1.0797,1.0755,0.7892,0.6307,0.6122,0.4589,0.3089,0.1814,0.1789,0.1182,0.0,-0.0484,-0.0919,-0.1338,-0.1811,-0.2281,-0.2712,-0.3101,-0.3528,-0.3993,-0.3993,-0.4543,-0.5404,-0.6152,-0.6457,-0.6529,-2.3374,-2.1772,-2.0625,0.0,0.0,0.0,0.0,0.0,0.0,-1.6951,-1.7479,-1.8527,-2.0012,-2.0658,-2.1552,-2.2938,-2.2877,-2.2856,-2.3164,-2.2754,-2.2353,-2.1992,-2.1748,-2.1406,-2.0967,-2.0957,-2.0742,-2.0293,-1.9619,0.0,0.0,0.0,0.0,0.0,-1.6654,-1.5922,-1.5133,-1.3494,-1.2238,-1.1239,-0.9085,-0.7768,-0.7168,-0.7166,-0.7921,-0.9209,-1.0037,-1.1522,-1.3093,0.0,-1.3193,0.0,-1.2999,-1.2572,-1.2004,-1.175,-1.1443,-1.0949,-0.9854,-0.9358,-0.8776,-0.7581,-0.6958,-0.645,-0.5538,-0.5321,-0.5156,-0.482,0.0,0.0,0.0,0.0,0.0,0.0,-0.6648,-0.6824,0.0,0.0,-0.0444,0.5441,0.0,0.0,0.0,0.0,0.0,0.0,1.5051,1.4829,1.434,1.2415,1.114,1.0813,0.7942,0.6344,0.6213,0.4281,0.2786,0.1784,0.1453,0.0819,0.0,-0.0485,-0.0919,-0.1338,-0.1811,-0.2281,-0.2746,-0.3134,-0.3593,-0.4026,-0.4248,-0.4884,-0.5681,-0.6022,-0.6289,-0.6498,-2.4579,-2.2691,-2.1348,-2.1589,0.0,0.0,0.0,0.0,-1.8691,-1.7807,-1.8442,-1.9747,-2.1823,-2.23,-2.3032,-2.4555,-2.4556,-2.4425,-2.4435,-2.376,-2.3238,-2.3008,-2.2384,-2.1797,-2.125,-2.123,-2.1016,-2.0566,-1.9707,0.0,0.0,0.0,0.0,0.0,-1.8633,-1.8085,-1.6972,-1.5118,-1.3579,-1.2201,-0.9646,-0.8604,-0.8543,-0.7865,-0.8761,-1.0499,-1.059,-1.1911,-1.348,-1.318,-1.2933,0.0,-1.2913,-1.2458,-1.1857,-1.177,-1.139,-1.0848,-1.018,0.0,-0.9199,-0.8294,-0.7739,-0.726,-0.6713,-0.6588,-0.6588,-0.6588,-0.6588,0.0,0.0,0.0,-0.6912,-0.6912,0.0,-0.7503,-0.6032,-0.5008,-0.2466,0.2788,0.0,0.0,0.0,0.0,0.0,1.3936,1.4291,1.4403,1.4433,1.2696,1.1431,1.0813,0.837,0.6755,0.6213,0.4418,0.2908,0.1784,0.1368,0.0737,0.0,-0.0485,-0.0919,-0.1338,-0.1811,-0.2281,-0.2746,-0.3266,-0.3691,-0.4053,-0.4494,-0.5168,-0.5898,-0.5908,-0.6113,-0.6397,-2.6542,-2.4545,-2.3082,-2.3977,-2.2847,0.0,0.0,-2.0477,-2.0322,-1.8056,-1.9778,-2.1383,-2.198,-2.3047,-2.4555,-2.6587,-2.6424,-2.6665,-2.7698,-2.6379,-2.5125,-2.4157,-2.3062,-2.21,-2.125,-2.123,-2.1016,-2.0566,-1.9707,0.0,0.0,0.0,0.0,0.0,-2.0336,-1.9754,-1.8337,-1.689,-1.4572,-1.1729,-1.0253,-0.9183,-0.8466,0.0,-0.9375,-1.0376,-1.1449,0.0,0.0,-1.2866,-1.2829,0.0,0.0,0.0,0.0,0.0,0.0,0.0,0.0,0.0,0.0,-0.8033,0.0,0.0,0.0,0.0,-0.6588,-0.6588,-0.6588,-0.6588,-0.6588,-0.7182,-0.767,-0.767,-0.8262,0.0,0.0,-0.5329,-0.2997,0.0764,0.4402,0.0,0.0,0.9332,1.1065,1.256,1.3283,1.3709,1.3836,1.2541,1.1516,1.0813,0.94,0.7833,0.6213,0.5424,0.3938,0.1784,0.1794,0.1145,0.0,-0.0485,-0.0919,-0.1338,-0.1811,-0.2281,-0.2779,-0.3635,-0.3993,-0.407,-0.4598,-0.524,-0.5884,-0.5904,-0.6022,-0.6237,-2.8087,-2.6919,-2.5464,-2.3966,-2.3545,-2.2944,-2.1409,-2.1443,-2.1538,-2.138,-2.2011,-2.3391,-2.5914,-2.6319,-2.6919,-2.851,-2.8274,-2.78,-2.7491,-2.7034,-2.6064,-2.4672,-2.424,-2.3392,-2.209,-2.208,-2.1728,-2.1006,-2.042,0.0,0.0,0.0,0.0,0.0,0.0,-1.9424,-1.7494,-1.6963,-1.5067,-1.2382,-1.0867,-0.9503,-0.845,0.0,-0.9592,-1.1103,-1.1261,-1.2023,0.0,-1.2552,-1.2325,-1.2144,-1.2044,-1.1683,-1.1269,-1.1169,-1.0935,0.0,0.0,0.0,-1.0756,-0.9348,0.0,0.0,0.0,0.0,0.0,0.0,0.0,-0.8049,-0.8049,-0.8262,-0.8427,-0.8427,-0.8646,-0.848,0.0,-0.5213,-0.3018,-0.1271,0.2139,0.4707,0.0,0.0,0.0,1.0432,1.1688,1.2569,1.312,1.2725,1.1944,1.0864,0.9459,0.7933,0.6344,0.5093,0.3652,0.1905,0.1428,0.08,-0.0039,-0.0771,-0.1168,-0.1338,-0.2109,-0.2547,-0.2779,-0.363,-0.3866,-0.3746,-0.4512,-0.4843,-0.4928,-0.5094,-0.5494,-0.5963,-2.9239,-2.8744,-2.7513,-2.5004,-2.4168,-2.3378,-2.1988,-2.2327,-2.2964,-2.3645,-2.4127,-2.553,-2.8496,-2.8362,-2.8521,-2.9793,-2.9584,-2.9138,-2.855,-2.8052,-2.7311,-2.6047,-2.5373,-2.4575,-2.3412,-2.2988,-2.2331,-2.1298,-2.0623,-2.0402,0.0,0.0,0.0,0.0,0.0,-1.983,-1.8147,-1.7027,-1.5341,-1.3277,-1.1156,-0.9956,0.0,0.0,-1.0196,-1.1327,0.0,-1.1993,-1.2479,-1.2211,-1.1951,-1.171,-1.171,-1.1383,-1.0995,-1.0995,-1.0788,-1.064,-1.0602,-1.1013,0.0,-1.0341,-1.0497,0.0,-0.9401,0.0,-0.9113,0.0,0.0,0.0,-0.8804,-0.8804,-0.8804,-0.8804,-0.8804,-0.8533,0.0,-0.5387,-0.3531,-0.3053,0.0055,0.2456,0.3308,0.4184,0.573,0.832,1.007,1.1312,0.0,0.0,1.2209,1.0864,0.9931,0.8487,0.6406,0.5422,0.3914,0.1993,0.1482,0.08,-0.0039,-0.0885,-0.1312,-0.1338,-0.2278,-0.2712,-0.2742,-0.3515,-0.3764,-0.3736,-0.4307,-0.4512,-0.4565,-0.4743,-0.5231,-0.5908,-2.9792,-2.9702,-2.8961,-2.6894,-2.4648,-2.2687,-2.1596,-2.3205,-2.4569,-2.4703,-2.6064,-2.7764,-2.9498,-2.9207,-2.9335,-3.0363,-3.0414,-3.0507,-3.0603,-2.9569,-2.8724,-2.8119,-2.6542,-2.5497,-2.5049,-2.3891,-2.2673,-2.1429,-2.0466,-2.0216,0.0,0.0,0.0,0.0,-2.1295,-2.0769,-1.9932,-1.6968,-1.5217,-1.4065,-1.1038,-1.0509,-1.1443,-1.1193,-1.1082,-1.1213,-1.2311,-1.2419,-1.1864,-1.185,-1.165,-1.1403,-1.1403,-1.127,-1.1034,-1.108,-1.0884,-1.0719,-1.0741,-1.0793,-1.0804,-1.0813,0.0,0.0,0.0,0.0,-0.9614,0.0,0.0,0.0,0.0,-0.8804,-0.8804,-0.8804,-0.8804,-0.8533,-0.783,-0.5851,-0.4481,-0.4481,-0.1938,0.0167,0.0943,0.238,0.4136,0.6318,0.8436,0.9944,0.0,0.0,1.2224,1.0864,1.0813,0.9365,0.6427,0.6284,0.4786,0.2045,0.1883,0.1188,0.0,-0.0894,-0.1309,-0.1338,-0.2278,-0.2712,-0.2735,-0.3286,-0.3679,-0.3961,-0.4003,-0.4333,-0.477,-0.479,-0.5272,-0.6027,-2.9934,-2.8462,-2.7139,-2.6565,-2.4648,-2.3154,-2.3198,-2.4756,-2.6163,-2.6734,-2.8341,-2.981,-3.1157,-3.0793,-3.0766,-3.1625,-3.1397,-3.0984,-3.0658,-3.0356,-2.9591,-2.8199,-2.727,-2.6447,-2.5451,-2.4052,-2.2987,-2.2384,-2.1078,-2.0805,-2.1563,0.0,0.0,0.0,0.0,-1.8824,-1.6326,-1.554,-1.4058,-1.2172,-1.1392,-1.105,-1.1193,0.0,-1.2091,-1.1721,-1.2018,-1.1997,-1.1837,-1.1617,-1.1343,-1.1235,-1.1803,-1.1775,-1.1667,-1.192,-1.197,-1.1866,-1.1526,-1.1855,-1.2134,-1.1394,-1.1601,-1.1791,0.0,0.0,0.0,0.0,0.0,0.0,0.0,0.0,-0.8804,-0.8804,-0.8804,-0.8533,-0.783,-0.674,-0.581,-0.5261,-0.3605,-0.1724,0.0111,0.1612,0.3164,0.4856,0.7165,0.8925,0.0,0.0,0.0,1.083,1.0813,0.9423,0.6556,0.6312,0.5052,0.282,0.2149,0.1392,0.0626,-0.0695,-0.1318,-0.1338,-0.2278,-0.2712,-0.2775,-0.3538,-0.3644,-0.3383,-0.4053,-0.4352,-0.4447,-0.4645,-0.5225,-0.5954,-2.9934,-2.8371,-2.7209,-2.7209,-2.5972,-2.4861,-2.4601,-2.5967,-2.7501,-2.8721,-2.9682,-3.0679,-3.1874,-3.1477,-3.1295,-3.148,-3.1223,-3.0821,-3.0294,-3.0018,-2.9406,-2.8504,-2.7673,-2.6784,-2.5693,-2.4205,-2.2958,-2.2132,-2.0727,-2.0366,-2.1029,0.0,0.0,0.0,0.0,-1.7533,-1.5403,-1.4594,-1.3302,-1.1856,-1.2305,-1.2433,0.0,-1.2891,-1.3006,-1.2936,-1.2246,-1.2011,-1.1983,-1.1808,-1.1811,-1.1907,-1.2196,-1.2204,-1.2098,-1.2101,-1.211,-1.2085,-1.1999,-1.2277,-1.252,-1.212,-1.2346,-1.2443,-1.1469,-1.0965,-1.061,0.0,0.0,0.0,0.0,0.0,-0.8804,-0.8804,-0.8804,-0.8646,-0.8262,-0.7563,-0.6907,-0.6519,-0.4875,-0.3272,-0.2049,0.0,0.2001,0.3773,0.6082,0.0,0.0,0.0,0.0,1.0821,1.0813,0.9459,0.6642,0.6344,0.518,0.3113,0.2227,0.1466,0.0846,-0.0631,-0.1313,-0.1351,-0.2301,-0.2812,-0.2999,-0.3561,-0.3776,-0.3817,-0.4354,-0.4548,-0.4527,-0.4657,-0.5214,-0.5936,-2.9792,-2.8858,-2.8096,-2.8096,-2.773,-2.7122,-2.6152,-2.7216,-2.8665,-3.0307,-3.0489,-3.0821,-3.1847,-3.1574,-3.1047,-3.0444,-3.0394,-3.0156,-2.9603,-2.9101,-2.8787,-2.8712,-2.772,-2.668,-2.5612,-2.4082,-2.2688,-2.1344,-1.9905,-1.9413,0.0,0.0,0.0,0.0,-1.7895,-1.6866,-1.5789,-1.4179,-1.3162,-1.2732,-1.3476,-1.3996,-1.4192,-1.3573,-1.3776,-1.4193,-1.2852,-1.2379,-1.2372,-1.2334,-1.2633,-1.2943,-1.2647,-1.2539,-1.2456,-1.2064,-1.1939,-1.1974,-1.2324,-1.2382,-1.2456,-1.2821,-1.2881,-1.2715,-1.208,-1.1864,-1.1616,-1.0965,-1.0269,-0.9762,0.0,0.0,-0.8804,-0.8804,-0.8804,-0.8804,-0.8804,-0.8156,-0.7723,-0.7723,-0.5905,0.0,-0.4426,-0.1716,0.0778,0.2728,0.0,0.0,0.0,0.0,0.0,1.0813,1.0813,0.0,0.674,0.0,0.518,0.3113,0.2227,0.1485,0.0837,-0.0559,-0.1256,-0.1339,-0.2296,-0.294,-0.331,-0.3546,-0.4027,-0.4628,-0.4713,-0.4758,-0.4754,-0.4683,-0.5137,-0.5852,-2.9934,-2.8858,-2.8096,-2.8096,-2.8007,-2.8045,-2.8292,-2.9338,-3.0016,-2.9952,-3.1052,-3.1614,-3.0916,-3.0809,-3.0331,-2.9315,-2.9227,-2.8988,-2.8436,-2.831,-2.8047,-2.7595,-2.6954,-2.6008,-2.4596,-2.3029,-2.1853,-2.0881,-1.9444,-1.9114,0.0,0.0,0.0,0.0,-1.7669,-1.6678,-1.5359,-1.4631,0.0,-1.4641,-1.4415,-1.4404,-1.4421,-1.3942,-1.3729,-1.3582,-1.326,-1.3219,-1.3179,-1.2951,-1.2936,-1.3064,-1.329,-1.3398,-1.337,-1.3249,-1.3181,-1.3147,-1.2847,-1.2791,-1.2821,-1.29,-1.2881,-1.2881,-1.2725,-1.2236,-1.1616,-1.0965,-1.0269,-0.9614,-0.9061,0.0,0.0,0.0,-0.8804,-0.8804,-0.8804,-0.8156,-0.7723,-0.7723,-0.6794,-0.5751,-0.4535,-0.1716,0.0167,0.0556,0.0,0.0,0.0,0.0,0.0,0.0,1.0813,0.0,0.0,0.0,0.518,0.3113,0.2227,0.1485,0.0878,-0.0279,-0.0989,-0.1339,-0.229,-0.2929,-0.3355,-0.4093,-0.4556,-0.473,-0.4563,-0.4467,-0.4464,-0.4449,-0.4786,-0.5317,-2.9998,-2.9365,-2.8937,-2.8937,-2.9169,0.0,0.0,-3.0278,-3.0523,-3.0266,-3.0636,-3.0758,-3.0244,-2.9917,-2.9515,-2.8976,-2.8662,-2.8273,-2.772,-2.7406,-2.7005,-2.6427,-2.5887,-2.5049,-2.3792,-2.2388,-2.1391,-2.0684,-1.9103,-1.8626,-1.9212,0.0,0.0,-1.7296,-1.6217,-1.5495,0.0,0.0,0.0,-1.467,-1.5087,-1.5111,-1.4896,-1.4526,-1.4399,-1.4335,-1.3718,-1.3637,-1.3705,-1.3429,-1.3614,-1.3865,-1.3653,-1.3575,-1.3506,-1.3268,-1.3184,-1.3135,-1.2939,-1.2881,-1.2881,-1.2881,-1.2881,-1.2881,-1.2881,-1.2618,-1.2187,-1.1466,-1.0762,-1.002,-0.9008,-0.9361,0.0,0.0,0.0,0.0,-0.8857,-0.848,-0.8262,-0.8262,-0.7616,-0.674,-0.5638,-0.3591,-0.1662,-0.0111,0.2167,0.0,0.0,0.0,0.0,0.0,0.0,0.0,0.0,0.0,0.0,0.3113,0.2227,0.1502,0.0866,-0.0444,-0.112,-0.1353,-0.2521,-0.3257,-0.3723,-0.4596,-0.5003,-0.5037,-0.4878,-0.4734,-0.4632,-0.4766,-0.4855,-0.4943,-3.057,-3.0432,-3.0432,-3.0432,-3.0714,-3.0944,-3.0722,-3.0633,-3.0567,-3.0583,-3.003,-2.9616,-2.9616,-2.9101,-2.8699,-2.8586,-2.8072,-2.7519,-2.6954,-2.6414,-2.5862,-2.5285,-2.487,-2.4107,-2.3024,-2.2024,-2.1174,-2.0429,-1.8947,0.0,0.0,0.0,0.0,0.0,0.0,0.0,0.0,0.0,-1.4646,-1.4875,-1.5599,-1.5679,-1.5286,-1.5017,-1.4977,-1.4983,-1.4072,-1.3866,-1.4063,-1.37,-1.4063,-1.4512,-1.375,-1.3506,-1.3428,-1.3008,-1.2881,-1.2881,-1.2881,-1.2881,-1.2881,-1.2881,-1.2881,-1.2881,-1.2881,-1.2881,-1.2666,-1.1972,-1.1266,-1.0466,-0.9413,-1.0064,0.0,0.0,0.0,0.0,0.0,-0.891,-0.8956,-0.8804,-0.8156,-0.7396,-0.6696,0.0,0.0,0.0,0.0,0.0,0.0,0.0,0.0,0.0,0.0,0.8281,0.5808,0.0,0.4784,0.0,0.2137,0.1429,0.067,-0.0619,-0.1264,-0.1362,-0.2752,-0.3691,-0.4318,-0.5023,-0.5309,-0.5289,-0.5257,-0.5054,-0.4827,-0.5037,-0.5006,-0.4874,-3.2393,-3.2321,-3.2321,0.0,0.0,-3.2114,-3.1259,-3.0703,-3.0472,-3.0549,-2.9679,-2.9001,-2.9001,-2.8511,-2.7984,-2.7482,-2.6929,-2.6364,-2.5787,-2.5272,-2.4732,-2.4167,-2.4104,-2.3442,-2.2032,-2.191,-2.1151,-1.978,-1.9392,-1.8923,0.0,0.0,0.0,0.0,0.0,0.0,0.0,-1.6085,-1.6384,-1.705,-1.636,-1.5797,-1.5361,-1.4945,-1.4574,-1.4194,-1.4101,-1.4063,-1.4029,-1.3636,-1.3824,-1.4111,-1.3652,-1.3506,-1.3428,-1.3008,-1.2881,-1.2881,-1.2881,-1.2881,-1.2881,-1.2881,-1.2881,-1.2881,-1.2881,-1.2881,-1.2666,-1.1972,-1.1266,-1.0762,-1.0669,-1.0712,-1.0568,0.0,0.0,0.0,0.0,-0.9309,-0.9465,-0.8857,-0.8156,-0.7396,-0.6696,-0.5406,0.0,0.0,-0.1134,0.0,0.0,0.0,0.0,0.7938,0.0,0.7749,0.6712,0.5023,0.3547,0.2263,0.1952,0.1207,0.0045,-0.064,-0.1059,-0.1365,-0.2854,-0.4116,-0.5182,-0.5277,-0.5309,-0.5309,-0.5282,-0.5087,-0.479,-0.482,-0.5044,-0.5332,0.0,0.0,0.0,0.0,0.0,0.0,0.0,-2.9953,-2.9634,-2.9189,-2.8712,-2.831,-2.7971,-2.7444,-2.6892,-2.6327,-2.5787,-2.5234,-2.4669,-2.4117,-2.3565,-2.3012,-2.2661,-2.2268,-2.167,-2.1163,-2.057,0.0,0.0,0.0,0.0,0.0,0.0,0.0,0.0,-1.7363,-1.8065,-1.6658,-1.6566,-1.7205,-1.6098,-1.542,-1.499,-1.4561,-1.4131,-1.376,-1.376,-1.3594,-1.3359,-1.3184,-1.3408,-1.3682,-1.3262,-1.3135,-1.3096,-1.293,-1.2881,-1.2881,-1.2881,-1.2881,-1.2881,-1.2881,-1.2881,-1.2881,-1.2881,-1.2881,-1.2666,-1.1972,-1.1566,-1.1266,-1.0864,-1.1484,-1.1692,0.0,0.0,0.0,0.0,0.0,-0.9547,-0.8817,-0.8137,-0.723,-0.6036,-0.5599,0.0,0.0,0.0,0.0,0.0,0.0,0.0,0.6735,0.0,0.599,0.488,0.3945,0.2799,0.156,0.1348,0.0806,-0.0045,-0.0792,-0.1807,-0.2944,-0.3535,-0.4356,-0.5309,-0.5309,-0.5309,-0.5309,-0.5554,-0.5303,-0.4865,-0.5283,-0.5432,-0.5465,-3.2979,0.0,-3.2701,0.0,-3.2192,-3.1702,-3.0392,-2.9685,-2.9006,-2.8081,-2.7473,-2.7118,-2.7055,-2.654,-2.5975,-2.5423,-2.4732,-2.4155,-2.3766,-2.305,-2.2472,-2.2083,-2.1694,0.0,-2.1493,-2.0893,-2.0511,-2.0354,-2.0039,0.0,0.0,0.0,0.0,0.0,-1.7546,-1.7932,-1.8748,-1.6746,-1.6346,-1.6884,-1.568,-1.4893,-1.4375,-1.4062,-1.3691,-1.332,-1.332,-1.3135,-1.2881,-1.2881,-1.3076,-1.3271,-1.2969,-1.2881,-1.2881,-1.2881,-1.2881,-1.2881,-1.2881,-1.2881,-1.2881,-1.2881,-1.2881,-1.2881,-1.2881,-1.2881,-1.2764,-1.2236,-1.2129,-1.1981,-1.1484,-1.2206,-1.251,-1.1266,0.0,0.0,0.0,-1.0415,-0.974,-0.8835,-0.7735,-0.6622,-0.5592,-0.5486,0.0,0.0,0.0,0.0,0.0,0.0,0.0,0.0,0.0,0.0,0.0,0.284,0.1993,0.1091,0.0972,0.0493,-0.0313,-0.1305,-0.26,-0.4051,-0.4149,-0.4602,-0.5309,-0.5309,-0.5372,-0.5491,-0.5672,-0.5474,-0.5194,-0.5713,-0.5832,-0.5842,-3.3514,-3.3514,-3.3514,-3.3514,-3.3499,-3.3161,-3.2205,-3.0404,-2.8798,-2.7815,-2.6024,-2.5272,-2.642,-2.595,-2.5398,-2.487,-2.3803,-2.309,-2.3078,-2.2121,-2.1506,0.0,0.0,-2.1493,-2.1493,-2.1493,-2.1217,-2.0677,0.0,0.0,-1.9356,0.0,-1.8666,-1.8269,-1.7536,-1.7584,-1.8178,-1.6219,-1.5816,-1.6404,-1.5289,-1.4287,-1.3525,-1.3516,-1.3262,-1.2891,-1.2891,-1.2881,-1.2881,-1.2881,-1.2881,-1.2891,-1.2881,-1.2881,-1.2881,-1.2881,-1.2881,-1.2881,-1.2881,-1.2881,-1.2881,-1.2881,-1.2881,-1.2881,-1.2881,-1.2881,-1.2881,-1.2881,-1.2881,-1.2881,-1.2881,-1.2881,-1.2666,-1.1922,0.0,0.0,0.0,-1.0813,-1.0289,-0.8888,-0.6844,-0.5508,-0.5483,-0.5024,0.0,0.0,0.0,0.0,0.0,0.0,0.0,0.3637,0.3782,0.0,0.3627,0.1827,0.0989,0.1095,0.0959,0.0268,-0.0937,-0.2271,-0.3354,-0.4222,-0.4477,-0.4858,-0.5309,-0.5309,-0.5522,-0.5851,-0.546,-0.5554,-0.5882,-0.5906,-0.6144,-0.6644,-3.2826,-3.2467,-3.2003,-3.1539,-3.145,-3.0866,-2.9021,-2.8205,-2.7271,-2.5897,-2.4887,-2.4243,-2.4205,-2.4029,-2.3703,0.0,-2.2435,-2.202,0.0,-2.0966,-2.0514,-2.097,-1.9849,-1.9597,-2.0326,-1.9987,-1.9899,-2.0075,0.0,0.0,0.0,-1.9409,-1.9329,-1.9177,-1.8952,-1.9033,-1.9209,-1.7222,-1.631,-1.6186,-1.4977,-1.4133,-1.3518,-1.3648,-1.3359,-1.2978,-1.3372,-1.3505,-1.3505,-1.3505,-1.3789,-1.4071,-1.3647,-1.3238,-1.2881,-1.2881,-1.2881,-1.2881,-1.2881,-1.2881,-1.2881,-1.2881,-1.2656,-1.252,-1.2812,-1.2881,-1.2803,-1.25,-1.2676,-1.2881,-1.2881,-1.2881,-1.2822,-1.2608,-1.2774,0.0,-1.2304,0.0,-0.9511,-0.8053,-0.6012,-0.459,-0.4113,-0.4462,0.0,0.0,0.0,0.0,0.0,0.0,0.0,0.0,0.2317,0.0,0.2011,0.0889,0.0099,-0.0285,-0.0319,-0.0924,-0.2007,-0.2637,-0.3391,-0.4227,-0.4477,-0.5011,-0.5672,-0.5404,-0.5522,-0.589,-0.5765,-0.5797,-0.5944,-0.6213,-0.6845,-0.7645,-3.1405,-3.1076,-3.0657,-3.0238,-3.0163,-2.9578,-2.7954,-2.7058,-2.6144,-2.4818,-2.3739,-2.2912,-2.2548,-2.2334,0.0,-2.202,-2.1493,-2.1179,-2.1179,-2.0125,-1.9673,-2.0037,-1.8869,-1.8518,-1.9183,0.0,0.0,-1.9208,-1.9572,-1.953,-1.9089,-1.9089,-1.9089,-1.9036,-1.8802,-1.8882,-1.9071,-1.7277,-1.6384,-1.6207,-1.5148,-1.4395,-1.3944,-1.4073,-1.3873,-1.361,-1.3732,-1.3815,-1.3815,-1.3815,-1.405,-1.4329,-1.419,-1.3884,-1.3478,-1.3017,-1.3065,-1.3238,-1.3238,-1.3238,-1.3238,-1.3238,-1.2857,-1.2549,-1.2822,-1.2754,-1.2607,-1.25,-1.2695,-1.2881,-1.2881,-1.2881,-1.2968,-1.32,-1.3065,-1.2871,-1.289,0.0,-0.9078,0.0,0.0,0.0,0.0,-0.435,-0.5024,0.0,0.0,0.0,0.0,0.0,0.0,0.2078,0.1428,0.0,0.0914,0.0052,-0.0639,-0.1254,-0.1448,-0.1923,-0.2511,-0.3312,-0.3834,-0.4227,-0.4772,-0.5364,-0.5882,-0.5617,-0.5765,-0.6121,-0.5944,-0.6006,-0.6183,-0.6554,-0.7289,-0.814,-2.937,-2.934,-2.931,0.0,-2.931,0.0,-2.8435,-2.6673,-2.5188,-2.4459,-2.2679,-2.1423,-2.138,-2.0853,-2.0756,-2.1217,0.0,0.0,0.0,-1.9522,-1.8932,-1.892,-1.8405,-1.8129,-1.8204,-1.8166,-1.8166,-1.8204,-1.8204,-1.8204,-1.8204,-1.8204,-1.8204,-1.8157,-1.7472,-1.7557,-1.8047,-1.6668,-1.621,-1.6255,-1.5597,-1.5054,-1.4698,-1.4744,-1.4744,-1.4652,-1.4097,-1.3909,-1.3909,-1.3909,-1.3956,-1.4097,-1.4606,-1.4744,-1.4525,-1.3382,-1.342,-1.3862,-1.3862,-1.3862,-1.3862,-1.3815,-1.3324,-1.2861,-1.2803,-1.252,-1.2383,-1.2754,-1.2861,-1.2881,-1.2881,-1.2881,-1.3113,-1.3684,-1.3286,-1.2852,-1.2725,0.0,-0.882,0.0,0.0,0.0,0.0,-0.4587,-0.5462,0.0,0.0,0.0,0.0,0.0,0.0955,0.1008,0.1006,0.0703,0.0101,-0.0554,-0.1212,-0.1873,-0.2497,-0.2708,-0.2691,-0.4192,-0.4649,-0.4327,-0.5308,-0.5814,-0.5944,-0.5944,-0.6183,-0.651,-0.6067,-0.6151,-0.6537,-0.6881,-0.7511,-0.8274,0.0,0.0,-2.6557,-2.6557,-2.6557,-2.6287,-2.5587,-2.5063,-2.4297,-2.3058,-2.1786,-2.0759,-2.0253,-1.9359,-1.8844,-1.897,-1.9246,-1.9409,-1.9409,-1.838,-1.7953,-1.838,-1.7438,-1.7325,-1.8191,-1.779,-1.779,-1.8204,-1.8204,-1.8204,-1.8204,-1.8204,-1.8204,-1.8204,-1.8001,-1.7812,-1.7576,-1.723,-1.6566,-1.5766,-1.5586,-1.5211,-1.4744,-1.5231,-1.5096,-1.4744,-1.505,-1.5174,-1.5174,-1.5174,-1.5499,-1.5832,-1.5499,-1.5365,-1.5231,-1.4468,-1.4387,-1.4468,-1.4468,-1.4468,-1.4376,-1.3909,-1.3324,-1.2753,-1.2067,-1.2314,-1.2656,-1.2432,-1.2646,-1.2881,-1.2881,-1.2881,-1.3113,-1.3684,-1.3286,-1.2686,-1.2057,-1.0237,0.0,0.0,-0.4139,-0.334,-0.2565,-0.4306,-0.5356,0.0,0.0,0.0,0.0,-0.1352,-0.035,0.0224,0.028,-0.0055,-0.0785,-0.0868,-0.1452,-0.2495,-0.3081,-0.3591,-0.3972,-0.436,-0.4704,-0.5072,-0.5624,-0.6043,-0.6366,-0.6366,-0.6601,-0.6875,-0.6182,-0.614,-0.6526,-0.6868,-0.7796,-0.8985,-2.6138,-2.5854,-2.5615,-2.5615,-2.5615,-2.5354,-2.4652,-2.4061,-2.322,-2.1866,-2.0704,-1.9742,-1.912,-1.8555,-1.8204,-1.8204,-1.848,-1.8643,-1.8643,-1.7852,-1.7513,-1.7815,-1.6986,-1.681,-1.7426,-1.7137,-1.7137,-1.7438,-1.7438,-1.7438,-1.7438,-1.7438,-1.7438,-1.7438,-1.7438,-1.7262,-1.6986,-1.6986,-1.661,-1.6008,-1.6008,-1.5832,-1.5567,-1.5876,-1.5832,-1.5522,-1.5588,-1.5588,-1.5588,-1.5588,-1.582,-1.6095,-1.6051,-1.6008,-1.5964,-1.5611,-1.5332,-1.5096,-1.5096,-1.5096,-1.496,-1.4376,-1.3398,-1.2594,-1.261,-1.2596,-1.2578,-1.2539,-1.2715,-1.2881,-1.2881,-1.3152,-1.342,-1.3732,-1.3256,-1.2492,-1.1384,-0.9475,0.0,-0.4664,-0.41,-0.3566,-0.2788,-0.47,-0.5736,-0.5133,-0.5334,0.0,-0.3424,-0.2232,-0.1082,-0.0056,-0.0276,-0.0753,-0.1398,-0.1915,-0.2565,-0.3463,-0.3825,-0.418,-0.4642,-0.4868,-0.5142,-0.5419,-0.6076,-0.6628,-0.705,-0.7209,-0.7414,-0.7569,-0.7111,-0.7175,-0.7549,-0.7731,-0.8683,-0.991,-2.5031,-2.5091,-2.5136,-2.5031,-2.5016,-2.4837,-2.4268,-2.3231,-2.213,-2.0907,-1.9746,-1.8767,-1.8172,-1.8003,-1.7953,-1.7953,-1.7953,-1.799,-1.8078,-1.7564,-1.725,-1.725,-1.6773,-1.6522,-1.6522,-1.6522,-1.6522,-1.6522,-1.6522,-1.6522,-1.6522,-1.6522,-1.6522,-1.6522,-1.6522,-1.6522,-1.6522,-1.6522,-1.6522,-1.6522,-1.6522,-1.6522,-1.6522,-1.6522,-1.6522,-1.6423,-1.5908,-1.5732,-1.5732,-1.5732,-1.5732,-1.582,-1.6337,-1.6522,-1.6522,-1.6522,-1.6139,-1.5732,-1.5732,-1.5588,-1.532,-1.4698,-1.3351,-1.2454,-1.3356,-1.2785,-1.2236,-1.2607,-1.2734,-1.2783,-1.2783,-1.3283,-1.3684,-1.3779,-1.3168,-1.2143,-1.0723,0.0,-0.6742,-0.4535,-0.4395,-0.4181,-0.3398,-0.532,-0.6298,-0.5504,-0.564,-0.5346,0.0,-0.3063,-0.1648,-0.0166,-0.0647,-0.1199,-0.1794,-0.3034,-0.3902,-0.4387,-0.4387,-0.4635,-0.502,-0.5505,-0.5688,-0.5685,-0.6608,-0.7297,-0.7782,-0.8217,-0.8402,-0.8436,-0.836,-0.855,-0.8835,-0.8919,-0.9729,-1.0785,-2.2413,-2.2757,-2.2951,-2.2398,-2.2308,-2.2263,-2.2173,-2.1973,-2.1415,-2.0198,-1.9486,-1.8704,-1.7637,-1.7074,-1.6773,-1.6773,-1.6773,-1.6986,-1.7476,-1.6974,-1.666,-1.666,-1.6572,-1.6522,-1.6522,-1.6522,-1.6522,-1.6522,-1.6522,-1.6522,-1.6522,-1.6522,-1.6522,-1.6522,-1.6522,-1.6522,-1.6522,-1.6522,-1.6522,-1.6522,-1.6522,-1.6522,-1.6522,-1.6522,-1.6522,-1.6479,-1.638,-1.638,-1.638,-1.638,-1.638,-1.638,-1.6466,-1.6522,-1.6522,-1.6522,-1.6423,-1.638,-1.638,-1.5611,-1.4698,-1.4097,-1.3073,-1.2246,-1.2398,-1.2073,-1.1724,-1.1792,-1.207,-1.2334,-1.2334,-1.2722,-1.319,-1.3732,-1.2745,-1.1455,-0.9981,0.0,-0.6582,-0.3889,-0.4122,-0.4181,-0.3398,-0.532,-0.6182,-0.5217,-0.6297,-0.6105,-0.402,-0.3195,-0.2188,-0.0821,-0.0944,-0.1285,-0.1773,-0.3119,-0.3964,-0.4387,-0.4387,-0.4805,-0.5579,-0.578,-0.5976,-0.6219,-0.7151,-0.7753,-0.8098,-0.8835,-0.93,-0.9514,-0.9119,-0.912,-0.9393,-0.953,-1.0122,-1.0981,-2.1829,-2.2218,-2.2473,-2.1814,-2.1695,-2.1695,-2.1695,-2.1395,-2.0868,-2.0003,-1.9355,-1.8681,-1.7847,-1.7274,-1.6909,-1.6909,-1.668,-1.6635,-1.6898,-1.666,-1.6522,-1.6522,-1.6522,-1.6522,-1.6522,-1.6522,-1.6522,-1.6522,-1.6522,-1.6522,-1.6522,-1.6522,-1.6522,-1.6522,-1.6522,-1.6522,-1.6522,-1.6522,-1.6522,-1.6522,-1.6522,-1.6522,-1.6522,-1.6522,-1.6522,-1.6522,-1.6522,-1.6522,-1.6522,-1.6522,-1.6522,-1.6522,-1.6522,-1.6522,-1.6522,-1.6522,-1.6281,-1.6008,-1.6008,-1.5141,-1.4236,-1.4283,-1.3212,-1.2365,-1.2972,-1.2311,-1.1683,-1.1933,-1.2084,-1.218,-1.218,-1.2852,-1.3372,-1.3324,-1.2444,0.0,0.0,-0.7951,-0.6288,-0.4229,-0.4175,-0.4183,-0.3803,-0.4996,-0.5575,-0.5031,-0.5677,-0.563,-0.4454,-0.3503,-0.2533,-0.1514,-0.1409,-0.1652,-0.218,-0.3064,-0.3855,-0.4495,-0.461,-0.514,-0.6019,-0.6094,-0.6465,-0.7085,-0.7715,-0.8364,-0.9053,-0.9651,-1.0182,-1.0589,-1.0363,-1.0539,-1.0898,-1.0771,-1.1258,-1.2015,-2.1365,-2.1754,-2.2009,-2.1335,-2.1231,-2.1231,-2.1231,-2.0797,-2.0264,-1.9734,-1.9209,-1.8688,-1.8185,-1.7747,-1.7422,-1.7312,-1.6909,-1.6637,-1.6522,-1.6522,-1.6522,-1.6522,-1.6522,-1.6522,-1.6522,-1.6522,-1.6522,-1.6522,-1.6522,-1.6522,-1.6522,-1.6522,-1.6522,-1.6522,-1.6522,-1.6522,-1.6522,-1.6522,-1.6522,-1.6522,-1.6637,-1.668,-1.668,-1.668,-1.668,-1.668,-1.6552,-1.6522,-1.6522,-1.6522,-1.6522,-1.6522,-1.6522,-1.6522,-1.6522,-1.6522,-1.5966,-1.5409,-1.5409,-1.4654,-1.3914,-1.4204,-1.3207,-1.2307,-1.3206,-1.2287,-1.1387,-1.1746,-1.1864,-1.1908,-1.2051,-1.2822,-1.3297,-1.2958,0.0,0.0,0.0,-0.7459,-0.6026,-0.4573,-0.4284,-0.4195,-0.4347,-0.4931,-0.5269,-0.5229,-0.5365,-0.5298,-0.5018,-0.3707,-0.2558,-0.1548,-0.159,-0.1932,-0.2549,-0.3224,-0.4049,-0.5012,-0.5161,-0.5649,-0.6428,-0.6628,-0.7127,-0.7829,-0.8336,-0.9142,-1.0058,-1.0527,-1.1047,-1.1592,-1.1642,-1.1969,-1.239,-1.2084,-1.2491,-1.3177,-1.9974,-2.0393,-2.0647,-1.9944,-1.9839,-1.9839,-1.9839,-1.9794,-1.9568,-1.904,-1.8921,-1.8688,-1.8185,-1.8066,-1.7827,-1.7353,-1.7271,-1.7034,-1.6522,-1.6522,-1.6522,-1.6522,-1.6522,-1.6522,-1.6522,-1.6522,-1.6522,-1.6522,-1.6522,-1.6522,-1.6522,-1.6522,-1.6522,-1.6522,-1.6522,-1.6522,-1.6522,-1.6522,-1.6522,-1.6552,-1.7034,-1.7229,-1.7229,-1.7229,-1.7229,-1.7188,-1.668,-1.6522,-1.6522,-1.6522,-1.6522,-1.6522,-1.6522,-1.6522,-1.6522,-1.6522,-1.5721,-1.4867,-1.4867,-1.4385,-1.3783,-1.3264,-1.2431,-1.1776,-1.1857,-1.1114,-1.042,-1.0449,-1.0753,-1.1133,-1.1577,-1.2018,-1.2449,-1.2861,0.0,0.0,-0.8878,-0.7356,-0.5864,-0.4418,-0.4076,-0.4236,-0.4779,-0.5501,-0.6033,-0.627,-0.6401,-0.6119,-0.5325,-0.3663,-0.1928,-0.018,-0.1208,-0.2089,-0.2693,-0.3752,-0.4946,-0.6167,-0.6192,-0.6426,-0.6885,-0.7634,-0.8007,-0.8116,-0.9198,-1.0083,-1.0776,-1.1358,-1.1917,-1.2434,-1.2681,-1.3025,-1.337,-1.3159,-1.3478,-1.402,-1.9824,-2.0243,-2.0498,-1.9809,-1.969,-1.969,-1.969,-1.969,-1.9639,-1.9406,-1.9406,-1.9332,-1.9132,-1.8817,-1.8496,-1.8302,-1.7987,-1.7706,-1.7504,-1.7504,-1.7353,-1.6993,-1.6993,-1.6993,-1.6993,-1.6993,-1.6837,-1.6522,-1.6522,-1.6522,-1.6522,-1.6837,-1.6993,-1.6993,-1.7353,-1.7312,-1.7034,-1.7353,-1.7312,-1.7034,-1.7585,-1.7787,-1.7747,-1.7422,-1.7312,-1.7229,-1.668,-1.6522,-1.6522,-1.6522,-1.6522,-1.6522,-1.6522,-1.6522,-1.6446,-1.6107,-1.4964,-1.3818,-1.3851,-1.3604,-1.3286,-1.3045,-1.2568,-1.2217,-1.2491,-1.1615,-1.084,-1.118,-1.1043,-1.0957,-1.1123,-1.1514,-1.1875,-1.2077,0.0,-0.9795,-0.8837,-0.7211,-0.5753,-0.4762,-0.4164,-0.3972,-0.4212,-0.4404,-0.467,-0.5119,-0.4783,-0.4555,-0.461,-0.2947,-0.1565,-0.0582,-0.1385,-0.2021,-0.2512,-0.4398,-0.5648,-0.631,-0.673,-0.7536,-0.8681,-0.8559,-0.9069,-1.0084,-1.0097,-1.0583,-1.1402,-1.1746,-1.2361,-1.3092,-1.332,-1.3651,-1.3982,-1.3917,-1.4124,-1.4411,-1.9779,-2.0064,-2.0243,-1.9765,-1.969,-1.969,-1.969,-1.969,-1.9615,-1.9405,-1.9375,-1.9301,-1.9091,-1.8729,-1.8448,-1.8302,-1.8139,-1.7901,-1.7515,-1.768,-1.7623,-1.7299,-1.7312,-1.7312,-1.7312,-1.7463,-1.7394,-1.6993,-1.6993,-1.6993,-1.6993,-1.7394,-1.7544,-1.7585,-1.7947,-1.7907,-1.7585,-1.7947,-1.7907,-1.7585,-1.8145,-1.8341,-1.8302,-1.7947,-1.7706,-1.7463,-1.6951,-1.6637,-1.6497,-1.6321,-1.6371,-1.6459,-1.6107,-1.6007,-1.5894,-1.5341,-1.4368,-1.3411,-1.3136,-1.3053,-1.2997,-1.272,-1.2552,-1.2495,-1.2646,-1.181,-1.1084,-1.1468,-1.1077,-1.0752,-1.0889,-1.1152,-1.1439,-1.1577,-1.0695,-0.9678,-0.8821,-0.7254,-0.5906,-0.5154,-0.4283,-0.3859,-0.4222,-0.4032,-0.4096,-0.4652,-0.4022,-0.3665,-0.3745,-0.2571,-0.167,-0.1205,-0.2207,-0.3002,-0.3509,-0.533,-0.6642,-0.7536,-0.814,-0.9197,-1.0555,-1.0173,-1.0755,-1.2085,-1.1714,-1.1847,-1.2359,-1.2677,-1.3073,-1.3529,-1.3854,-1.4192,-1.4489,-1.4503,-1.4616,-1.477,-1.969,-1.969,-1.969,-1.969,-1.969,-1.969,-1.9675,-1.969,-1.945,-1.8777,-1.8702,-1.8448,-1.7757,-1.7697,-1.7471,-1.6938,-1.7512,-1.7383,-1.6195,-1.6715,-1.7149,-1.7272,-1.7299,-1.7312,-1.7299,-1.7814,-1.8092,-1.8092,-1.8092,-1.8092,-1.8106,-1.8106,-1.8106,-1.8106,-1.8106,-1.8106,-1.8106,-1.8106,-1.8106,-1.8145,-1.8688,-1.8893,-1.8893,-1.8878,-1.8559,-1.8013,-1.749,-1.6938,-1.6421,-1.5869,-1.6057,-1.6308,-1.5255,-1.4916,-1.479,-1.4249,-1.4085,-1.3838,-1.2794,-1.2838,-1.2978,-1.2029,-1.2138,-1.2389,-1.192,-1.1394,-1.1019,-1.1019,-1.0649,-1.041,-1.083,-1.0908,-1.1045,-1.1528,-1.1051,-1.0131,-0.8906,-0.7478,-0.6333,-0.559,-0.4382,-0.4056,-0.5173,-0.4735,-0.4652,-0.526,-0.4735,-0.3902,-0.276,-0.2572,-0.2309,-0.1828,-0.382,-0.5237,-0.5996,-0.6613,-0.8015,-1.0228,-1.0686,-1.141,-1.2334,-1.2647,-1.3173,-1.3842,-1.4156,-1.4069,-1.3771,-1.4346,-1.4249,-1.3792,-1.4368,-1.4728,-1.4907,-1.4981,-1.5035,-1.5101,-1.969,-1.969,-1.969,-1.969,-1.969,-1.9525,-1.9076,-1.939,-1.9286,-1.8164,-1.8418,-1.8448,-1.7757,-1.7697,-1.765,-1.7471,-1.7648,-1.7611,-1.7238,-1.7041,-1.6979,-1.7018,-1.7917,-1.8208,-1.7735,-1.7885,-1.7773,-1.7394,-1.7394,-1.7653,-1.8106,-1.8496,-1.865,-1.8688,-1.9043,-1.9006,-1.8688,-1.9043,-1.9006,-1.8688,-1.9244,-1.9176,-1.8726,-1.8354,-1.7616,-1.6762,-1.6251,-1.5737,-1.5341,-1.5178,-1.5229,-1.5304,-1.5016,-1.4639,-1.4299,-1.4135,-1.3314,-1.2481,-1.2508,-1.2354,-1.2138,-1.1884,-1.2389,-1.2791,-1.1993,-1.1664,-1.1431,-1.1094,-1.0905,-1.0843,-1.0928,-1.0958,-1.1038,-1.1172,-1.0145,-0.9297,-0.9264,-0.7604,-0.6425,-0.6539,-0.5116,-0.4308,-0.4652,-0.418,-0.3924,-0.41,-0.3812,-0.3324,-0.2605,-0.2603,-0.2632,-0.2558,-0.42,-0.5677,-0.6811,-0.8558,-1.0138,-1.1538,-1.2304,-1.3398,-1.4743,-1.4131,-1.4545,-1.574,-1.5183,-1.5143,-1.5453,-1.5189,-1.5184,-1.5287,-1.5038,-1.5057,-1.5186,-1.5192,-1.5214,-1.5231,-1.9909,-1.9818,-1.96,-1.9346,-1.9286,-1.9076,-1.8418,-1.8763,-1.8728,-1.7682,-1.7894,-1.7894,-1.7228,-1.7044,-1.6952,-1.6952,-1.6952,-1.7176,-1.7652,-1.7169,-1.6928,-1.7209,-1.8001,-1.8129,-1.7512,-1.7722,-1.7652,-1.732,-1.732,-1.7555,-1.7961,-1.8564,-1.8826,-1.8826,-1.9144,-1.9129,-1.8812,-1.8862,-1.8723,-1.8446,-1.8793,-1.8672,-1.828,-1.7944,-1.7268,-1.6473,-1.5973,-1.5522,-1.5095,-1.4689,-1.44,-1.4225,-1.4248,-1.4014,-1.3722,-1.3722,-1.3082,-1.2318,-1.2246,-1.2138,-1.1993,-1.1579,-1.221,-1.2756,-1.221,-1.1774,-1.1505,-1.1579,-1.1282,-1.1057,-1.1282,-1.1319,-1.1319,-1.1319,-1.0354,-0.9672,-0.9759,-0.8287,-0.7226,-0.7342,-0.5797,-0.4774,-0.4739,-0.4052,-0.3581,-0.3581,-0.3393,-0.323,-0.3034,-0.3325,-0.3619,-0.3901,-0.5582,-0.7161,-0.8577,-1.0735,-1.2155,-1.2817,-1.3947,-1.5278,-1.6702,-1.597,-1.6104,-1.6889,-1.6348,-1.6203,-1.631,-1.5755,-1.5743,-1.598,-1.54,-1.5226,-1.5303,-1.5309,-1.5293,-1.5302,-2.0042,-1.9817,-1.9351,-1.8717,-1.8612,-1.8388,-1.7762,-1.7975,-1.7991,-1.7337,-1.7306,-1.7073,-1.6433,-1.6067,-1.5885,-1.5856,-1.5827,-1.6278,-1.7443,-1.695,-1.6891,-1.7488,-1.7518,-1.7308,-1.6867,-1.7353,-1.7608,-1.7608,-1.7608,-1.7637,-1.7697,-1.8328,-1.8612,-1.8612,-1.8612,-1.8612,-1.8583,-1.7951,-1.7697,-1.7697,-1.7697,-1.7652,-1.7608,-1.7608,-1.7239,-1.6698,-1.6271,-1.5789,-1.5212,-1.4319,-1.3647,-1.3216,-1.3252,-1.3264,-1.3198,-1.3198,-1.3163,-1.2943,-1.2102,-1.2138,-1.221,-1.1308,-1.1726,-1.2389,-1.2437,-1.1763,-1.1394,-1.2246,-1.1726,-1.1282,-1.1774,-1.1847,-1.1836,-1.1791,-1.1246,-1.0718,-1.0326,-0.9245,-0.8396,-0.8139,-0.6518,-0.5411,-0.5389,-0.4316,-0.3581,-0.3581,-0.3492,-0.3533,-0.3868,-0.4471,-0.503,-0.5616,-0.7628,-0.9361,-1.0718,-1.3038,-1.4166,-1.4128,-1.5596,-1.6955,-1.8145,-1.7868,-1.7697,-1.7595,-1.7556,-1.725,-1.674,-1.6158,-1.5999,-1.6066,-1.5499,-1.527,-1.5268,-1.529,-1.5281,-1.5287,-1.8718,-1.8592,-1.8402,-1.7987,-1.7939,-1.7812,-1.7425,-1.7853,-1.7894,-1.7013,-1.7357,-1.7436,-1.6765,-1.6633,-1.6474,-1.6219,-1.5955,-1.5918,-1.6203,-1.6098,-1.6054,-1.6218,-1.6218,-1.6291,-1.6435,-1.6728,-1.6921,-1.6921,-1.6921,-1.7189,-1.7697,-1.7832,-1.7939,-1.7939,-1.7939,-1.7939,-1.7891,-1.7757,-1.7697,-1.7697,-1.7697,-1.7384,-1.6921,-1.6921,-1.6331,-1.5444,-1.5017,-1.4593,-1.4156,-1.3585,-1.3298,-1.3188,-1.3231,-1.3229,-1.3198,-1.3198,-1.2943,-1.2615,-1.2389,-1.2138,-1.1884,-1.17,-1.1468,-1.1431,-1.1847,-1.2066,-1.2138,-1.1993,-1.2066,-1.221,-1.2318,-1.2365,-1.2224,-1.179,-1.1011,-1.0521,-1.0707,-0.9537,-0.8909,-0.9616,-0.787,-0.6434,-0.5956,-0.4522,-0.3581,-0.3581,-0.3931,-0.43,-0.4655,-0.5093,-0.5703,-0.6471,-0.9097,-1.0669,-1.1102,-1.5162,-1.6731,-1.5725,-1.6636,-1.7557,-1.8491,-1.8194,-1.8463,-1.9085,-1.8244,-1.8066,-1.8215,-1.6745,-1.6186,-1.6186,-1.5388,-1.5037,-1.4991,-1.5089,-1.5138,-1.5146,-1.8747,-1.8481,-1.8115,-1.7791,-1.7745,-1.7573,-1.7117,-1.7456,-1.7599,-1.7099,-1.7351,-1.7423,-1.7075,-1.6892,-1.6659,-1.6328,-1.6136,-1.5983,-1.5799,-1.5799,-1.5885,-1.6039,-1.6039,-1.6191,-1.6528,-1.667,-1.6743,-1.6743,-1.6571,-1.6696,-1.7015,-1.7164,-1.7219,-1.7219,-1.7219,-1.7219,-1.7204,-1.6922,-1.6787,-1.6787,-1.6787,-1.6578,-1.6278,-1.6278,-1.5906,-1.5359,-1.4721,-1.4084,-1.348,-1.3035,-1.3012,-1.3163,-1.2943,-1.3012,-1.3198,-1.3198,-1.3012,-1.272,-1.2282,-1.1965,-1.1767,-1.1791,-1.1333,-1.1009,-1.1395,-1.1631,-1.1805,-1.1791,-1.2189,-1.2579,-1.2791,-1.2826,-1.2655,-1.2119,-1.1628,-1.119,-1.0885,-1.0219,-0.9757,-0.9816,-0.8382,-0.6842,-0.5444,-0.4264,-0.3711,-0.3965,-0.422,-0.4648,-0.5167,-0.5883,-0.669,-0.7688,-1.0048,-1.1707,-1.2494,-1.5806,-1.7253,-1.6832,-1.801,-1.8676,-1.8787,-1.8949,-1.895,-1.886,-1.8528,-1.8293,-1.8072,-1.6678,-1.6103,-1.6014,-1.5149,-1.4794,-1.478,-1.4983,-1.5042,-1.5042,-1.8555,-1.8131,-1.7606,-1.7475,-1.7449,-1.7316,-1.693,-1.7126,-1.732,-1.7368,-1.7392,-1.7392,-1.7392,-1.7076,-1.67,-1.6318,-1.6358,-1.6212,-1.5816,-1.5788,-1.5958,-1.6367,-1.6258,-1.6355,-1.669,-1.6827,-1.6866,-1.6789,-1.6528,-1.6355,-1.6301,-1.6545,-1.6548,-1.6383,-1.6383,-1.6323,-1.6174,-1.5665,-1.5469,-1.5469,-1.5469,-1.5529,-1.5619,-1.5499,-1.5529,-1.5504,-1.472,-1.3971,-1.3254,-1.2791,-1.2873,-1.3129,-1.272,-1.2908,-1.3198,-1.3198,-1.3198,-1.299,-1.2066,-1.1733,-1.1662,-1.155,-1.1092,-1.0715,-1.0798,-1.1038,-1.1372,-1.1795,-1.2273,-1.2679,-1.3082,-1.3095,-1.292,-1.2361,-1.2392,-1.2109,-1.1149,-1.1013,-1.0728,-0.9896,-0.8616,-0.6996,-0.4899,-0.4092,-0.3924,-0.4347,-0.4478,-0.4972,-0.5908,-0.6737,-0.7802,-0.9213,-1.1066,-1.2791,-1.4353,-1.6327,-1.7512,-1.7903,-1.9516,-1.9907,-1.9223,-1.9673,-1.9435,-1.8617,-1.88,-1.8423,-1.7582,-1.659,-1.6017,-1.5709,-1.4992,-1.4632,-1.4563,-1.4844,-1.495,-1.497,-1.5731,-1.5582,-1.5632,-1.5935,-1.5982,-1.6281,-1.7117,-1.7272,-1.7392,-1.7681,-1.7726,-1.7726,-1.7726,-1.7415,-1.6954,-1.6261,-1.6538,-1.6457,-1.5763,-1.5715,-1.6025,-1.6706,-1.6123,-1.5951,-1.6259,-1.6912,-1.7076,-1.6789,-1.6763,-1.6581,-1.6301,-1.6339,-1.5884,-1.5052,-1.5052,-1.4737,-1.4199,-1.4109,-1.4079,-1.4079,-1.4079,-1.4408,-1.4857,-1.4288,-1.4423,-1.4862,-1.4342,-1.4001,-1.3735,-1.3254,-1.3163,-1.3198,-1.3129,-1.3163,-1.3198,-1.3198,-1.3198,-1.299,-1.2066,-1.1733,-1.15,-1.0623,-1.0295,-1.012,-0.9775,-1.099,-1.2218,-1.2287,-1.2602,-1.2877,-1.294,-1.2754,-1.2411,-1.1872,-1.2293,-1.2478,-1.191,-1.1593,-1.1427,-1.1478,-0.9304,-0.7286,-0.5993,-0.4894,-0.4303,-0.4387,-0.487,-0.5919,-0.7676,-0.7576,-0.8724,-1.1536,-1.2857,-1.437,-1.623,-1.8607,-1.9652,-1.9405,-2.075,-2.0921,-2.0131,-1.9918,-2.0153,-2.0634,-1.9651,-1.8904,-1.8293,-1.7277,-1.6245,-1.5284,-1.5225,-1.4818,-1.4283,-1.4619,-1.4804,-1.4902,-1.5362,-1.5238,-1.5216,-1.5588,-1.5638,-1.5796,-1.628,-1.6352,-1.6395,-1.6555,-1.6576,-1.6576,-1.6576,-1.694,-1.6934,-1.6258,-1.6489,-1.6422,-1.5751,-1.532,-1.5311,-1.5827,-1.5535,-1.5528,-1.5863,-1.6184,-1.6199,-1.5905,-1.6272,-1.6184,-1.5631,-1.5453,-1.5099,-1.4671,-1.4546,-1.4303,-1.4004,-1.387,-1.381,-1.381,-1.381,-1.3989,-1.4214,-1.3914,-1.3871,-1.3867,-1.3249,-1.3198,-1.3335,-1.2887,-1.292,-1.3058,-1.2834,-1.2567,-1.2316,-1.2316,-1.2529,-1.2527,-1.1521,-1.145,-1.1487,-1.0729,-1.0275,-1.0087,-1.0391,-1.1102,-1.1686,-1.1509,-1.2095,-1.2673,-1.2673,-1.2589,-1.2321,-1.1787,-1.2346,-1.2537,-1.1661,-1.1622,-1.1387,-1.0616,-0.916,-0.7822,-0.6716,-0.5828,-0.5492,-0.5839,-0.5819,-0.644,-0.791,-0.7836,-0.8691,-1.0822,-1.2662,-1.4408,-1.5982,-1.8333,-1.9434,-1.9281,-2.0351,-2.0673,-2.0312,-2.0887,-2.1066,-2.094,-2.1036,-2.0152,-1.8592,-1.8497,-1.7482,-1.6005,-1.6146,-1.5809,-1.5224,-1.4798,-1.4641,-1.4592]}]]